<?xml version="1.0" encoding="UTF-8" ?>
<gpx version="1.1" xmlns:xsi="http://www.w3.org/2001/XMLSchema-instance"
    xmlns="http://www.topografix.com/GPX/1/1"
    xsi:schemaLocation="http://www.topografix.com/GPX/1/1 http://www.topografix.com/GPX/1/1/gpx.xsd"
    creator="Openrunner - https://www.openrunner.com" >	<trk>
	                   <name>POINTE DU RAZ LADIES CLASSIC-23592957</name>
						<trkseg>
					<trkpt lat="48.037440" lon="-4.712400">
						<ele>52</ele>
						<time>2026-06-27T18:18:04Z</time>
					</trkpt>
					<trkpt lat="48.037450" lon="-4.712220">
						<ele>52</ele>
						<time>2026-06-27T18:18:06Z</time>
					</trkpt>
					<trkpt lat="48.037510" lon="-4.711780">
						<ele>53</ele>
						<time>2026-06-27T18:18:11Z</time>
					</trkpt>
					<trkpt lat="48.037920" lon="-4.709400">
						<ele>67</ele>
						<time>2026-06-27T18:18:41Z</time>
					</trkpt>
					<trkpt lat="48.038010" lon="-4.708970">
						<ele>68</ele>
						<time>2026-06-27T18:18:46Z</time>
					</trkpt>
					<trkpt lat="48.038050" lon="-4.708840">
						<ele>68</ele>
						<time>2026-06-27T18:18:48Z</time>
					</trkpt>
					<trkpt lat="48.038170" lon="-4.708580">
						<ele>68</ele>
						<time>2026-06-27T18:18:52Z</time>
					</trkpt>
					<trkpt lat="48.039040" lon="-4.707040">
						<ele>69</ele>
						<time>2026-06-27T18:19:16Z</time>
					</trkpt>
					<trkpt lat="48.039260" lon="-4.706680">
						<ele>69</ele>
						<time>2026-06-27T18:19:21Z</time>
					</trkpt>
					<trkpt lat="48.039330" lon="-4.706530">
						<ele>70</ele>
						<time>2026-06-27T18:19:24Z</time>
					</trkpt>
					<trkpt lat="48.039660" lon="-4.705010">
						<ele>71</ele>
						<time>2026-06-27T18:19:43Z</time>
					</trkpt>
					<trkpt lat="48.039710" lon="-4.704330">
						<ele>72</ele>
						<time>2026-06-27T18:19:51Z</time>
					</trkpt>
					<trkpt lat="48.039760" lon="-4.702910">
						<ele>72</ele>
						<time>2026-06-27T18:20:08Z</time>
					</trkpt>
					<trkpt lat="48.039830" lon="-4.702310">
						<ele>72</ele>
						<time>2026-06-27T18:20:15Z</time>
					</trkpt>
					<trkpt lat="48.039870" lon="-4.701790">
						<ele>72</ele>
						<time>2026-06-27T18:20:21Z</time>
					</trkpt>
					<trkpt lat="48.039890" lon="-4.701260">
						<ele>72</ele>
						<time>2026-06-27T18:20:27Z</time>
					</trkpt>
					<trkpt lat="48.039900" lon="-4.700870">
						<ele>72</ele>
						<time>2026-06-27T18:20:32Z</time>
					</trkpt>
					<trkpt lat="48.039860" lon="-4.699600">
						<ele>70</ele>
						<time>2026-06-27T18:20:47Z</time>
					</trkpt>
					<trkpt lat="48.039880" lon="-4.697830">
						<ele>69</ele>
						<time>2026-06-27T18:21:08Z</time>
					</trkpt>
					<trkpt lat="48.039790" lon="-4.696770">
						<ele>68</ele>
						<time>2026-06-27T18:21:21Z</time>
					</trkpt>
					<trkpt lat="48.039570" lon="-4.695090">
						<ele>68</ele>
						<time>2026-06-27T18:21:41Z</time>
					</trkpt>
					<trkpt lat="48.039340" lon="-4.693720">
						<ele>66</ele>
						<time>2026-06-27T18:21:58Z</time>
					</trkpt>
					<trkpt lat="48.039320" lon="-4.693270">
						<ele>65</ele>
						<time>2026-06-27T18:22:03Z</time>
					</trkpt>
					<trkpt lat="48.039340" lon="-4.693030">
						<ele>65</ele>
						<time>2026-06-27T18:22:06Z</time>
					</trkpt>
					<trkpt lat="48.039620" lon="-4.691710">
						<ele>67</ele>
						<time>2026-06-27T18:22:23Z</time>
					</trkpt>
					<trkpt lat="48.039780" lon="-4.690850">
						<ele>68</ele>
						<time>2026-06-27T18:22:33Z</time>
					</trkpt>
					<trkpt lat="48.040040" lon="-4.689230">
						<ele>68</ele>
						<time>2026-06-27T18:22:53Z</time>
					</trkpt>
					<trkpt lat="48.040100" lon="-4.688960">
						<ele>68</ele>
						<time>2026-06-27T18:22:57Z</time>
					</trkpt>
					<trkpt lat="48.040550" lon="-4.687450">
						<ele>66</ele>
						<time>2026-06-27T18:23:16Z</time>
					</trkpt>
					<trkpt lat="48.040720" lon="-4.686770">
						<ele>66</ele>
						<time>2026-06-27T18:23:25Z</time>
					</trkpt>
					<trkpt lat="48.040760" lon="-4.686370">
						<ele>66</ele>
						<time>2026-06-27T18:23:30Z</time>
					</trkpt>
					<trkpt lat="48.040770" lon="-4.686050">
						<ele>66</ele>
						<time>2026-06-27T18:23:34Z</time>
					</trkpt>
					<trkpt lat="48.040760" lon="-4.685800">
						<ele>65</ele>
						<time>2026-06-27T18:23:37Z</time>
					</trkpt>
					<trkpt lat="48.040690" lon="-4.685350">
						<ele>65</ele>
						<time>2026-06-27T18:23:42Z</time>
					</trkpt>
					<trkpt lat="48.040590" lon="-4.684960">
						<ele>65</ele>
						<time>2026-06-27T18:23:47Z</time>
					</trkpt>
					<trkpt lat="48.040230" lon="-4.684120">
						<ele>66</ele>
						<time>2026-06-27T18:23:59Z</time>
					</trkpt>
					<trkpt lat="48.039960" lon="-4.683550">
						<ele>66</ele>
						<time>2026-06-27T18:24:07Z</time>
					</trkpt>
					<trkpt lat="48.038630" lon="-4.681080">
						<ele>67</ele>
						<time>2026-06-27T18:24:45Z</time>
					</trkpt>
					<trkpt lat="48.038470" lon="-4.680700">
						<ele>67</ele>
						<time>2026-06-27T18:24:50Z</time>
					</trkpt>
					<trkpt lat="48.037990" lon="-4.679000">
						<ele>68</ele>
						<time>2026-06-27T18:25:12Z</time>
					</trkpt>
					<trkpt lat="48.037450" lon="-4.676910">
						<ele>71</ele>
						<time>2026-06-27T18:25:39Z</time>
					</trkpt>
					<trkpt lat="48.037410" lon="-4.676670">
						<ele>71</ele>
						<time>2026-06-27T18:25:42Z</time>
					</trkpt>
					<trkpt lat="48.037430" lon="-4.676270">
						<ele>70</ele>
						<time>2026-06-27T18:25:47Z</time>
					</trkpt>
					<trkpt lat="48.037760" lon="-4.673870">
						<ele>68</ele>
						<time>2026-06-27T18:26:16Z</time>
					</trkpt>
					<trkpt lat="48.037920" lon="-4.672510">
						<ele>67</ele>
						<time>2026-06-27T18:26:32Z</time>
					</trkpt>
					<trkpt lat="48.037920" lon="-4.672250">
						<ele>67</ele>
						<time>2026-06-27T18:26:35Z</time>
					</trkpt>
					<trkpt lat="48.037890" lon="-4.671830">
						<ele>66</ele>
						<time>2026-06-27T18:26:40Z</time>
					</trkpt>
					<trkpt lat="48.037580" lon="-4.668860">
						<ele>65</ele>
						<time>2026-06-27T18:27:16Z</time>
					</trkpt>
					<trkpt lat="48.037520" lon="-4.668620">
						<ele>64</ele>
						<time>2026-06-27T18:27:19Z</time>
					</trkpt>
					<trkpt lat="48.037420" lon="-4.668400">
						<ele>63</ele>
						<time>2026-06-27T18:27:22Z</time>
					</trkpt>
					<trkpt lat="48.036760" lon="-4.667190">
						<ele>61</ele>
						<time>2026-06-27T18:27:41Z</time>
					</trkpt>
					<trkpt lat="48.036570" lon="-4.666780">
						<ele>61</ele>
						<time>2026-06-27T18:27:47Z</time>
					</trkpt>
					<trkpt lat="48.036470" lon="-4.666520">
						<ele>61</ele>
						<time>2026-06-27T18:27:50Z</time>
					</trkpt>
					<trkpt lat="48.036460" lon="-4.666430">
						<ele>61</ele>
						<time>2026-06-27T18:27:51Z</time>
					</trkpt>
					<trkpt lat="48.036420" lon="-4.666330">
						<ele>61</ele>
						<time>2026-06-27T18:27:53Z</time>
					</trkpt>
					<trkpt lat="48.036220" lon="-4.665550">
						<ele>63</ele>
						<time>2026-06-27T18:28:03Z</time>
					</trkpt>
					<trkpt lat="48.036190" lon="-4.665350">
						<ele>63</ele>
						<time>2026-06-27T18:28:05Z</time>
					</trkpt>
					<trkpt lat="48.036070" lon="-4.664900">
						<ele>64</ele>
						<time>2026-06-27T18:28:11Z</time>
					</trkpt>
					<trkpt lat="48.035880" lon="-4.663700">
						<ele>65</ele>
						<time>2026-06-27T18:28:26Z</time>
					</trkpt>
					<trkpt lat="48.035890" lon="-4.663700">
						<ele>65</ele>
						<time>2026-06-27T18:28:26Z</time>
					</trkpt>
					<trkpt lat="48.035870" lon="-4.661900">
						<ele>69</ele>
						<time>2026-06-27T18:28:47Z</time>
					</trkpt>
					<trkpt lat="48.035810" lon="-4.661350">
						<ele>70</ele>
						<time>2026-06-27T18:28:54Z</time>
					</trkpt>
					<trkpt lat="48.035570" lon="-4.659940">
						<ele>69</ele>
						<time>2026-06-27T18:29:11Z</time>
					</trkpt>
					<trkpt lat="48.035030" lon="-4.656390">
						<ele>61</ele>
						<time>2026-06-27T18:29:54Z</time>
					</trkpt>
					<trkpt lat="48.034630" lon="-4.653970">
						<ele>57</ele>
						<time>2026-06-27T18:30:24Z</time>
					</trkpt>
					<trkpt lat="48.034460" lon="-4.653090">
						<ele>56</ele>
						<time>2026-06-27T18:30:35Z</time>
					</trkpt>
					<trkpt lat="48.034150" lon="-4.651240">
						<ele>53</ele>
						<time>2026-06-27T18:30:58Z</time>
					</trkpt>
					<trkpt lat="48.033950" lon="-4.650250">
						<ele>50</ele>
						<time>2026-06-27T18:31:10Z</time>
					</trkpt>
					<trkpt lat="48.033880" lon="-4.649970">
						<ele>49</ele>
						<time>2026-06-27T18:31:14Z</time>
					</trkpt>
					<trkpt lat="48.033730" lon="-4.649500">
						<ele>48</ele>
						<time>2026-06-27T18:31:20Z</time>
					</trkpt>
					<trkpt lat="48.033580" lon="-4.649130">
						<ele>46</ele>
						<time>2026-06-27T18:31:25Z</time>
					</trkpt>
					<trkpt lat="48.033000" lon="-4.647970">
						<ele>44</ele>
						<time>2026-06-27T18:31:42Z</time>
					</trkpt>
					<trkpt lat="48.032630" lon="-4.647190">
						<ele>42</ele>
						<time>2026-06-27T18:31:54Z</time>
					</trkpt>
					<trkpt lat="48.032450" lon="-4.646640">
						<ele>41</ele>
						<time>2026-06-27T18:32:01Z</time>
					</trkpt>
					<trkpt lat="48.032340" lon="-4.646210">
						<ele>41</ele>
						<time>2026-06-27T18:32:06Z</time>
					</trkpt>
					<trkpt lat="48.032090" lon="-4.644660">
						<ele>40</ele>
						<time>2026-06-27T18:32:25Z</time>
					</trkpt>
					<trkpt lat="48.031950" lon="-4.644090">
						<ele>39</ele>
						<time>2026-06-27T18:32:32Z</time>
					</trkpt>
					<trkpt lat="48.031710" lon="-4.643420">
						<ele>38</ele>
						<time>2026-06-27T18:32:42Z</time>
					</trkpt>
					<trkpt lat="48.031250" lon="-4.642390">
						<ele>32</ele>
						<time>2026-06-27T18:32:56Z</time>
					</trkpt>
					<trkpt lat="48.030960" lon="-4.641660">
						<ele>30</ele>
						<time>2026-06-27T18:33:06Z</time>
					</trkpt>
					<trkpt lat="48.029640" lon="-4.637720">
						<ele>21</ele>
						<time>2026-06-27T18:33:59Z</time>
					</trkpt>
					<trkpt lat="48.029460" lon="-4.637080">
						<ele>17</ele>
						<time>2026-06-27T18:34:07Z</time>
					</trkpt>
					<trkpt lat="48.029420" lon="-4.636780">
						<ele>15</ele>
						<time>2026-06-27T18:34:11Z</time>
					</trkpt>
					<trkpt lat="48.029410" lon="-4.636350">
						<ele>14</ele>
						<time>2026-06-27T18:34:16Z</time>
					</trkpt>
					<trkpt lat="48.029450" lon="-4.635880">
						<ele>13</ele>
						<time>2026-06-27T18:34:21Z</time>
					</trkpt>
					<trkpt lat="48.029600" lon="-4.634960">
						<ele>10</ele>
						<time>2026-06-27T18:34:33Z</time>
					</trkpt>
					<trkpt lat="48.029600" lon="-4.634630">
						<ele>8</ele>
						<time>2026-06-27T18:34:37Z</time>
					</trkpt>
					<trkpt lat="48.029700" lon="-4.633600">
						<ele>5</ele>
						<time>2026-06-27T18:34:49Z</time>
					</trkpt>
					<trkpt lat="48.029880" lon="-4.633560">
						<ele>5</ele>
						<time>2026-06-27T18:34:52Z</time>
					</trkpt>
					<trkpt lat="48.030020" lon="-4.633550">
						<ele>6</ele>
						<time>2026-06-27T18:34:55Z</time>
					</trkpt>
					<trkpt lat="48.030140" lon="-4.633580">
						<ele>6</ele>
						<time>2026-06-27T18:34:57Z</time>
					</trkpt>
					<trkpt lat="48.030220" lon="-4.633650">
						<ele>6</ele>
						<time>2026-06-27T18:34:59Z</time>
					</trkpt>
					<trkpt lat="48.030300" lon="-4.633780">
						<ele>7</ele>
						<time>2026-06-27T18:35:01Z</time>
					</trkpt>
					<trkpt lat="48.030480" lon="-4.634160">
						<ele>8</ele>
						<time>2026-06-27T18:35:06Z</time>
					</trkpt>
					<trkpt lat="48.030580" lon="-4.634330">
						<ele>9</ele>
						<time>2026-06-27T18:35:09Z</time>
					</trkpt>
					<trkpt lat="48.030890" lon="-4.634730">
						<ele>11</ele>
						<time>2026-06-27T18:35:16Z</time>
					</trkpt>
					<trkpt lat="48.030980" lon="-4.634810">
						<ele>12</ele>
						<time>2026-06-27T18:35:18Z</time>
					</trkpt>
					<trkpt lat="48.031140" lon="-4.634830">
						<ele>13</ele>
						<time>2026-06-27T18:35:21Z</time>
					</trkpt>
					<trkpt lat="48.032110" lon="-4.634690">
						<ele>13</ele>
						<time>2026-06-27T18:35:38Z</time>
					</trkpt>
					<trkpt lat="48.033030" lon="-4.634300">
						<ele>11</ele>
						<time>2026-06-27T18:35:55Z</time>
					</trkpt>
					<trkpt lat="48.033580" lon="-4.634110">
						<ele>11</ele>
						<time>2026-06-27T18:36:05Z</time>
					</trkpt>
					<trkpt lat="48.033980" lon="-4.633910">
						<ele>11</ele>
						<time>2026-06-27T18:36:13Z</time>
					</trkpt>
					<trkpt lat="48.034390" lon="-4.633790">
						<ele>11</ele>
						<time>2026-06-27T18:36:20Z</time>
					</trkpt>
					<trkpt lat="48.034840" lon="-4.633570">
						<ele>10</ele>
						<time>2026-06-27T18:36:29Z</time>
					</trkpt>
					<trkpt lat="48.035000" lon="-4.633550">
						<ele>11</ele>
						<time>2026-06-27T18:36:32Z</time>
					</trkpt>
					<trkpt lat="48.035150" lon="-4.633580">
						<ele>11</ele>
						<time>2026-06-27T18:36:34Z</time>
					</trkpt>
					<trkpt lat="48.035310" lon="-4.633660">
						<ele>12</ele>
						<time>2026-06-27T18:36:37Z</time>
					</trkpt>
					<trkpt lat="48.035570" lon="-4.633870">
						<ele>14</ele>
						<time>2026-06-27T18:36:43Z</time>
					</trkpt>
					<trkpt lat="48.036070" lon="-4.634420">
						<ele>18</ele>
						<time>2026-06-27T18:36:54Z</time>
					</trkpt>
					<trkpt lat="48.036790" lon="-4.635080">
						<ele>16</ele>
						<time>2026-06-27T18:37:09Z</time>
					</trkpt>
					<trkpt lat="48.037060" lon="-4.635220">
						<ele>16</ele>
						<time>2026-06-27T18:37:14Z</time>
					</trkpt>
					<trkpt lat="48.037430" lon="-4.635330">
						<ele>14</ele>
						<time>2026-06-27T18:37:20Z</time>
					</trkpt>
					<trkpt lat="48.037780" lon="-4.635330">
						<ele>12</ele>
						<time>2026-06-27T18:37:27Z</time>
					</trkpt>
					<trkpt lat="48.037830" lon="-4.635350">
						<ele>12</ele>
						<time>2026-06-27T18:37:28Z</time>
					</trkpt>
					<trkpt lat="48.037950" lon="-4.635440">
						<ele>12</ele>
						<time>2026-06-27T18:37:30Z</time>
					</trkpt>
					<trkpt lat="48.038100" lon="-4.635630">
						<ele>11</ele>
						<time>2026-06-27T18:37:33Z</time>
					</trkpt>
					<trkpt lat="48.038320" lon="-4.636150">
						<ele>10</ele>
						<time>2026-06-27T18:37:41Z</time>
					</trkpt>
					<trkpt lat="48.038590" lon="-4.636590">
						<ele>9</ele>
						<time>2026-06-27T18:37:48Z</time>
					</trkpt>
					<trkpt lat="48.038780" lon="-4.637000">
						<ele>8</ele>
						<time>2026-06-27T18:37:54Z</time>
					</trkpt>
					<trkpt lat="48.038980" lon="-4.638000">
						<ele>8</ele>
						<time>2026-06-27T18:38:06Z</time>
					</trkpt>
					<trkpt lat="48.039210" lon="-4.638820">
						<ele>8</ele>
						<time>2026-06-27T18:38:17Z</time>
					</trkpt>
					<trkpt lat="48.039360" lon="-4.639170">
						<ele>9</ele>
						<time>2026-06-27T18:38:22Z</time>
					</trkpt>
					<trkpt lat="48.039550" lon="-4.639440">
						<ele>9</ele>
						<time>2026-06-27T18:38:26Z</time>
					</trkpt>
					<trkpt lat="48.039640" lon="-4.639530">
						<ele>9</ele>
						<time>2026-06-27T18:38:28Z</time>
					</trkpt>
					<trkpt lat="48.039830" lon="-4.639630">
						<ele>10</ele>
						<time>2026-06-27T18:38:32Z</time>
					</trkpt>
					<trkpt lat="48.040750" lon="-4.639770">
						<ele>13</ele>
						<time>2026-06-27T18:38:48Z</time>
					</trkpt>
					<trkpt lat="48.041090" lon="-4.639840">
						<ele>15</ele>
						<time>2026-06-27T18:38:54Z</time>
					</trkpt>
					<trkpt lat="48.041500" lon="-4.640020">
						<ele>16</ele>
						<time>2026-06-27T18:39:02Z</time>
					</trkpt>
					<trkpt lat="48.042580" lon="-4.640420">
						<ele>24</ele>
						<time>2026-06-27T18:39:22Z</time>
					</trkpt>
					<trkpt lat="48.043150" lon="-4.640580">
						<ele>27</ele>
						<time>2026-06-27T18:39:32Z</time>
					</trkpt>
					<trkpt lat="48.043280" lon="-4.640640">
						<ele>28</ele>
						<time>2026-06-27T18:39:35Z</time>
					</trkpt>
					<trkpt lat="48.044270" lon="-4.640820">
						<ele>33</ele>
						<time>2026-06-27T18:39:52Z</time>
					</trkpt>
					<trkpt lat="48.044660" lon="-4.640840">
						<ele>34</ele>
						<time>2026-06-27T18:39:59Z</time>
					</trkpt>
					<trkpt lat="48.044860" lon="-4.640820">
						<ele>34</ele>
						<time>2026-06-27T18:40:03Z</time>
					</trkpt>
					<trkpt lat="48.045140" lon="-4.640860">
						<ele>34</ele>
						<time>2026-06-27T18:40:08Z</time>
					</trkpt>
					<trkpt lat="48.045190" lon="-4.640890">
						<ele>34</ele>
						<time>2026-06-27T18:40:09Z</time>
					</trkpt>
					<trkpt lat="48.045220" lon="-4.640930">
						<ele>34</ele>
						<time>2026-06-27T18:40:10Z</time>
					</trkpt>
					<trkpt lat="48.045320" lon="-4.641200">
						<ele>35</ele>
						<time>2026-06-27T18:40:13Z</time>
					</trkpt>
					<trkpt lat="48.045480" lon="-4.641450">
						<ele>35</ele>
						<time>2026-06-27T18:40:17Z</time>
					</trkpt>
					<trkpt lat="48.045590" lon="-4.641560">
						<ele>35</ele>
						<time>2026-06-27T18:40:20Z</time>
					</trkpt>
					<trkpt lat="48.045760" lon="-4.641690">
						<ele>35</ele>
						<time>2026-06-27T18:40:23Z</time>
					</trkpt>
					<trkpt lat="48.046130" lon="-4.641930">
						<ele>35</ele>
						<time>2026-06-27T18:40:30Z</time>
					</trkpt>
					<trkpt lat="48.046180" lon="-4.641650">
						<ele>37</ele>
						<time>2026-06-27T18:40:34Z</time>
					</trkpt>
					<trkpt lat="48.046240" lon="-4.641010">
						<ele>37</ele>
						<time>2026-06-27T18:40:41Z</time>
					</trkpt>
					<trkpt lat="48.046240" lon="-4.640500">
						<ele>36</ele>
						<time>2026-06-27T18:40:47Z</time>
					</trkpt>
					<trkpt lat="48.046210" lon="-4.639980">
						<ele>36</ele>
						<time>2026-06-27T18:40:54Z</time>
					</trkpt>
					<trkpt lat="48.046110" lon="-4.639430">
						<ele>37</ele>
						<time>2026-06-27T18:41:00Z</time>
					</trkpt>
					<trkpt lat="48.045950" lon="-4.638710">
						<ele>39</ele>
						<time>2026-06-27T18:41:09Z</time>
					</trkpt>
					<trkpt lat="48.045910" lon="-4.637990">
						<ele>41</ele>
						<time>2026-06-27T18:41:18Z</time>
					</trkpt>
					<trkpt lat="48.045950" lon="-4.637030">
						<ele>42</ele>
						<time>2026-06-27T18:41:29Z</time>
					</trkpt>
					<trkpt lat="48.046010" lon="-4.636500">
						<ele>42</ele>
						<time>2026-06-27T18:41:36Z</time>
					</trkpt>
					<trkpt lat="48.046120" lon="-4.636020">
						<ele>42</ele>
						<time>2026-06-27T18:41:42Z</time>
					</trkpt>
					<trkpt lat="48.046270" lon="-4.635640">
						<ele>42</ele>
						<time>2026-06-27T18:41:47Z</time>
					</trkpt>
					<trkpt lat="48.046670" lon="-4.634840">
						<ele>43</ele>
						<time>2026-06-27T18:41:59Z</time>
					</trkpt>
					<trkpt lat="48.046720" lon="-4.634580">
						<ele>43</ele>
						<time>2026-06-27T18:42:02Z</time>
					</trkpt>
					<trkpt lat="48.046730" lon="-4.634400">
						<ele>44</ele>
						<time>2026-06-27T18:42:04Z</time>
					</trkpt>
					<trkpt lat="48.046720" lon="-4.634160">
						<ele>43</ele>
						<time>2026-06-27T18:42:07Z</time>
					</trkpt>
					<trkpt lat="48.046350" lon="-4.632700">
						<ele>42</ele>
						<time>2026-06-27T18:42:26Z</time>
					</trkpt>
					<trkpt lat="48.046180" lon="-4.631800">
						<ele>42</ele>
						<time>2026-06-27T18:42:37Z</time>
					</trkpt>
					<trkpt lat="48.046150" lon="-4.631380">
						<ele>42</ele>
						<time>2026-06-27T18:42:42Z</time>
					</trkpt>
					<trkpt lat="48.046170" lon="-4.629750">
						<ele>45</ele>
						<time>2026-06-27T18:43:01Z</time>
					</trkpt>
					<trkpt lat="48.046310" lon="-4.628720">
						<ele>47</ele>
						<time>2026-06-27T18:43:14Z</time>
					</trkpt>
					<trkpt lat="48.046430" lon="-4.628100">
						<ele>46</ele>
						<time>2026-06-27T18:43:22Z</time>
					</trkpt>
					<trkpt lat="48.046570" lon="-4.627560">
						<ele>44</ele>
						<time>2026-06-27T18:43:28Z</time>
					</trkpt>
					<trkpt lat="48.046770" lon="-4.626650">
						<ele>43</ele>
						<time>2026-06-27T18:43:40Z</time>
					</trkpt>
					<trkpt lat="48.046910" lon="-4.625840">
						<ele>40</ele>
						<time>2026-06-27T18:43:50Z</time>
					</trkpt>
					<trkpt lat="48.046980" lon="-4.625390">
						<ele>38</ele>
						<time>2026-06-27T18:43:55Z</time>
					</trkpt>
					<trkpt lat="48.047010" lon="-4.625070">
						<ele>37</ele>
						<time>2026-06-27T18:43:59Z</time>
					</trkpt>
					<trkpt lat="48.047070" lon="-4.623780">
						<ele>33</ele>
						<time>2026-06-27T18:44:15Z</time>
					</trkpt>
					<trkpt lat="48.047180" lon="-4.623010">
						<ele>30</ele>
						<time>2026-06-27T18:44:24Z</time>
					</trkpt>
					<trkpt lat="48.047370" lon="-4.622140">
						<ele>27</ele>
						<time>2026-06-27T18:44:35Z</time>
					</trkpt>
					<trkpt lat="48.047390" lon="-4.621890">
						<ele>27</ele>
						<time>2026-06-27T18:44:38Z</time>
					</trkpt>
					<trkpt lat="48.047390" lon="-4.621230">
						<ele>24</ele>
						<time>2026-06-27T18:44:46Z</time>
					</trkpt>
					<trkpt lat="48.047350" lon="-4.620450">
						<ele>22</ele>
						<time>2026-06-27T18:44:55Z</time>
					</trkpt>
					<trkpt lat="48.047350" lon="-4.619570">
						<ele>20</ele>
						<time>2026-06-27T18:45:05Z</time>
					</trkpt>
					<trkpt lat="48.047380" lon="-4.619240">
						<ele>20</ele>
						<time>2026-06-27T18:45:09Z</time>
					</trkpt>
					<trkpt lat="48.047650" lon="-4.618020">
						<ele>20</ele>
						<time>2026-06-27T18:45:25Z</time>
					</trkpt>
					<trkpt lat="48.047740" lon="-4.617530">
						<ele>20</ele>
						<time>2026-06-27T18:45:31Z</time>
					</trkpt>
					<trkpt lat="48.047850" lon="-4.617120">
						<ele>20</ele>
						<time>2026-06-27T18:45:36Z</time>
					</trkpt>
					<trkpt lat="48.048190" lon="-4.616580">
						<ele>21</ele>
						<time>2026-06-27T18:45:45Z</time>
					</trkpt>
					<trkpt lat="48.048370" lon="-4.616200">
						<ele>22</ele>
						<time>2026-06-27T18:45:50Z</time>
					</trkpt>
					<trkpt lat="48.048420" lon="-4.616030">
						<ele>22</ele>
						<time>2026-06-27T18:45:53Z</time>
					</trkpt>
					<trkpt lat="48.048530" lon="-4.615210">
						<ele>26</ele>
						<time>2026-06-27T18:46:02Z</time>
					</trkpt>
					<trkpt lat="48.048640" lon="-4.614170">
						<ele>29</ele>
						<time>2026-06-27T18:46:15Z</time>
					</trkpt>
					<trkpt lat="48.048650" lon="-4.613710">
						<ele>30</ele>
						<time>2026-06-27T18:46:20Z</time>
					</trkpt>
					<trkpt lat="48.048640" lon="-4.613520">
						<ele>31</ele>
						<time>2026-06-27T18:46:23Z</time>
					</trkpt>
					<trkpt lat="48.048560" lon="-4.612890">
						<ele>33</ele>
						<time>2026-06-27T18:46:30Z</time>
					</trkpt>
					<trkpt lat="48.048560" lon="-4.612610">
						<ele>33</ele>
						<time>2026-06-27T18:46:34Z</time>
					</trkpt>
					<trkpt lat="48.048650" lon="-4.611680">
						<ele>36</ele>
						<time>2026-06-27T18:46:45Z</time>
					</trkpt>
					<trkpt lat="48.048790" lon="-4.610860">
						<ele>38</ele>
						<time>2026-06-27T18:46:55Z</time>
					</trkpt>
					<trkpt lat="48.048840" lon="-4.610440">
						<ele>40</ele>
						<time>2026-06-27T18:47:00Z</time>
					</trkpt>
					<trkpt lat="48.048910" lon="-4.609720">
						<ele>42</ele>
						<time>2026-06-27T18:47:09Z</time>
					</trkpt>
					<trkpt lat="48.049000" lon="-4.608230">
						<ele>41</ele>
						<time>2026-06-27T18:47:26Z</time>
					</trkpt>
					<trkpt lat="48.048980" lon="-4.607530">
						<ele>40</ele>
						<time>2026-06-27T18:47:35Z</time>
					</trkpt>
					<trkpt lat="48.048900" lon="-4.606990">
						<ele>39</ele>
						<time>2026-06-27T18:47:41Z</time>
					</trkpt>
					<trkpt lat="48.048890" lon="-4.606530">
						<ele>39</ele>
						<time>2026-06-27T18:47:47Z</time>
					</trkpt>
					<trkpt lat="48.049000" lon="-4.605430">
						<ele>37</ele>
						<time>2026-06-27T18:48:00Z</time>
					</trkpt>
					<trkpt lat="48.049210" lon="-4.604360">
						<ele>35</ele>
						<time>2026-06-27T18:48:13Z</time>
					</trkpt>
					<trkpt lat="48.049230" lon="-4.604130">
						<ele>34</ele>
						<time>2026-06-27T18:48:16Z</time>
					</trkpt>
					<trkpt lat="48.049230" lon="-4.603500">
						<ele>34</ele>
						<time>2026-06-27T18:48:24Z</time>
					</trkpt>
					<trkpt lat="48.049050" lon="-4.602250">
						<ele>35</ele>
						<time>2026-06-27T18:48:39Z</time>
					</trkpt>
					<trkpt lat="48.049000" lon="-4.601760">
						<ele>36</ele>
						<time>2026-06-27T18:48:45Z</time>
					</trkpt>
					<trkpt lat="48.048990" lon="-4.601430">
						<ele>37</ele>
						<time>2026-06-27T18:48:49Z</time>
					</trkpt>
					<trkpt lat="48.049020" lon="-4.600660">
						<ele>40</ele>
						<time>2026-06-27T18:48:58Z</time>
					</trkpt>
					<trkpt lat="48.048880" lon="-4.598680">
						<ele>44</ele>
						<time>2026-06-27T18:49:21Z</time>
					</trkpt>
					<trkpt lat="48.048870" lon="-4.597900">
						<ele>45</ele>
						<time>2026-06-27T18:49:31Z</time>
					</trkpt>
					<trkpt lat="48.048900" lon="-4.597000">
						<ele>47</ele>
						<time>2026-06-27T18:49:41Z</time>
					</trkpt>
					<trkpt lat="48.048940" lon="-4.596530">
						<ele>48</ele>
						<time>2026-06-27T18:49:47Z</time>
					</trkpt>
					<trkpt lat="48.049030" lon="-4.596120">
						<ele>48</ele>
						<time>2026-06-27T18:49:52Z</time>
					</trkpt>
					<trkpt lat="48.049180" lon="-4.595840">
						<ele>49</ele>
						<time>2026-06-27T18:49:57Z</time>
					</trkpt>
					<trkpt lat="48.049350" lon="-4.595630">
						<ele>49</ele>
						<time>2026-06-27T18:50:00Z</time>
					</trkpt>
					<trkpt lat="48.049480" lon="-4.595540">
						<ele>50</ele>
						<time>2026-06-27T18:50:03Z</time>
					</trkpt>
					<trkpt lat="48.049600" lon="-4.595480">
						<ele>50</ele>
						<time>2026-06-27T18:50:05Z</time>
					</trkpt>
					<trkpt lat="48.049760" lon="-4.595430">
						<ele>50</ele>
						<time>2026-06-27T18:50:08Z</time>
					</trkpt>
					<trkpt lat="48.050590" lon="-4.595290">
						<ele>51</ele>
						<time>2026-06-27T18:50:23Z</time>
					</trkpt>
					<trkpt lat="48.050770" lon="-4.595240">
						<ele>51</ele>
						<time>2026-06-27T18:50:26Z</time>
					</trkpt>
					<trkpt lat="48.050890" lon="-4.595190">
						<ele>51</ele>
						<time>2026-06-27T18:50:28Z</time>
					</trkpt>
					<trkpt lat="48.051030" lon="-4.595090">
						<ele>52</ele>
						<time>2026-06-27T18:50:31Z</time>
					</trkpt>
					<trkpt lat="48.051140" lon="-4.594990">
						<ele>53</ele>
						<time>2026-06-27T18:50:34Z</time>
					</trkpt>
					<trkpt lat="48.051190" lon="-4.594920">
						<ele>53</ele>
						<time>2026-06-27T18:50:35Z</time>
					</trkpt>
					<trkpt lat="48.051380" lon="-4.595060">
						<ele>54</ele>
						<time>2026-06-27T18:50:39Z</time>
					</trkpt>
					<trkpt lat="48.051540" lon="-4.595020">
						<ele>55</ele>
						<time>2026-06-27T18:50:41Z</time>
					</trkpt>
					<trkpt lat="48.051960" lon="-4.594960">
						<ele>58</ele>
						<time>2026-06-27T18:50:49Z</time>
					</trkpt>
					<trkpt lat="48.052220" lon="-4.594880">
						<ele>60</ele>
						<time>2026-06-27T18:50:54Z</time>
					</trkpt>
					<trkpt lat="48.052550" lon="-4.594690">
						<ele>63</ele>
						<time>2026-06-27T18:51:00Z</time>
					</trkpt>
					<trkpt lat="48.052920" lon="-4.594540">
						<ele>64</ele>
						<time>2026-06-27T18:51:07Z</time>
					</trkpt>
					<trkpt lat="48.053430" lon="-4.594420">
						<ele>67</ele>
						<time>2026-06-27T18:51:16Z</time>
					</trkpt>
					<trkpt lat="48.053460" lon="-4.594370">
						<ele>67</ele>
						<time>2026-06-27T18:51:17Z</time>
					</trkpt>
					<trkpt lat="48.053470" lon="-4.594300">
						<ele>67</ele>
						<time>2026-06-27T18:51:18Z</time>
					</trkpt>
					<trkpt lat="48.053480" lon="-4.593120">
						<ele>69</ele>
						<time>2026-06-27T18:51:32Z</time>
					</trkpt>
					<trkpt lat="48.053550" lon="-4.593120">
						<ele>69</ele>
						<time>2026-06-27T18:51:33Z</time>
					</trkpt>
					<trkpt lat="48.054010" lon="-4.593200">
						<ele>71</ele>
						<time>2026-06-27T18:51:41Z</time>
					</trkpt>
					<trkpt lat="48.054570" lon="-4.593190">
						<ele>74</ele>
						<time>2026-06-27T18:51:51Z</time>
					</trkpt>
					<trkpt lat="48.054890" lon="-4.593220">
						<ele>75</ele>
						<time>2026-06-27T18:51:57Z</time>
					</trkpt>
					<trkpt lat="48.055230" lon="-4.593220">
						<ele>77</ele>
						<time>2026-06-27T18:52:03Z</time>
					</trkpt>
					<trkpt lat="48.055600" lon="-4.593110">
						<ele>79</ele>
						<time>2026-06-27T18:52:10Z</time>
					</trkpt>
					<trkpt lat="48.055660" lon="-4.591860">
						<ele>79</ele>
						<time>2026-06-27T18:52:24Z</time>
					</trkpt>
					<trkpt lat="48.055640" lon="-4.591500">
						<ele>79</ele>
						<time>2026-06-27T18:52:29Z</time>
					</trkpt>
					<trkpt lat="48.055570" lon="-4.590860">
						<ele>78</ele>
						<time>2026-06-27T18:52:36Z</time>
					</trkpt>
					<trkpt lat="48.055500" lon="-4.590400">
						<ele>77</ele>
						<time>2026-06-27T18:52:42Z</time>
					</trkpt>
					<trkpt lat="48.055330" lon="-4.589590">
						<ele>76</ele>
						<time>2026-06-27T18:52:52Z</time>
					</trkpt>
					<trkpt lat="48.054400" lon="-4.584560">
						<ele>65</ele>
						<time>2026-06-27T18:53:54Z</time>
					</trkpt>
					<trkpt lat="48.054320" lon="-4.584350">
						<ele>65</ele>
						<time>2026-06-27T18:53:57Z</time>
					</trkpt>
					<trkpt lat="48.054260" lon="-4.583830">
						<ele>63</ele>
						<time>2026-06-27T18:54:03Z</time>
					</trkpt>
					<trkpt lat="48.055480" lon="-4.583360">
						<ele>61</ele>
						<time>2026-06-27T18:54:26Z</time>
					</trkpt>
					<trkpt lat="48.055580" lon="-4.583310">
						<ele>61</ele>
						<time>2026-06-27T18:54:28Z</time>
					</trkpt>
					<trkpt lat="48.055690" lon="-4.583200">
						<ele>61</ele>
						<time>2026-06-27T18:54:30Z</time>
					</trkpt>
					<trkpt lat="48.056060" lon="-4.583690">
						<ele>62</ele>
						<time>2026-06-27T18:54:39Z</time>
					</trkpt>
					<trkpt lat="48.056280" lon="-4.583840">
						<ele>62</ele>
						<time>2026-06-27T18:54:43Z</time>
					</trkpt>
					<trkpt lat="48.056360" lon="-4.584000">
						<ele>62</ele>
						<time>2026-06-27T18:54:45Z</time>
					</trkpt>
					<trkpt lat="48.056490" lon="-4.585650">
						<ele>65</ele>
						<time>2026-06-27T18:55:05Z</time>
					</trkpt>
					<trkpt lat="48.056510" lon="-4.585730">
						<ele>65</ele>
						<time>2026-06-27T18:55:06Z</time>
					</trkpt>
					<trkpt lat="48.056560" lon="-4.585800">
						<ele>65</ele>
						<time>2026-06-27T18:55:07Z</time>
					</trkpt>
					<trkpt lat="48.058220" lon="-4.585960">
						<ele>72</ele>
						<time>2026-06-27T18:55:37Z</time>
					</trkpt>
					<trkpt lat="48.058710" lon="-4.585870">
						<ele>74</ele>
						<time>2026-06-27T18:55:46Z</time>
					</trkpt>
					<trkpt lat="48.058850" lon="-4.585880">
						<ele>75</ele>
						<time>2026-06-27T18:55:48Z</time>
					</trkpt>
					<trkpt lat="48.059480" lon="-4.586020">
						<ele>77</ele>
						<time>2026-06-27T18:56:00Z</time>
					</trkpt>
					<trkpt lat="48.059560" lon="-4.586050">
						<ele>77</ele>
						<time>2026-06-27T18:56:01Z</time>
					</trkpt>
					<trkpt lat="48.059890" lon="-4.586010">
						<ele>77</ele>
						<time>2026-06-27T18:56:07Z</time>
					</trkpt>
					<trkpt lat="48.059970" lon="-4.585920">
						<ele>77</ele>
						<time>2026-06-27T18:56:09Z</time>
					</trkpt>
					<trkpt lat="48.060340" lon="-4.585260">
						<ele>75</ele>
						<time>2026-06-27T18:56:19Z</time>
					</trkpt>
					<trkpt lat="48.060540" lon="-4.584940">
						<ele>73</ele>
						<time>2026-06-27T18:56:24Z</time>
					</trkpt>
					<trkpt lat="48.060580" lon="-4.584940">
						<ele>73</ele>
						<time>2026-06-27T18:56:25Z</time>
					</trkpt>
					<trkpt lat="48.061850" lon="-4.586300">
						<ele>76</ele>
						<time>2026-06-27T18:56:53Z</time>
					</trkpt>
					<trkpt lat="48.062490" lon="-4.587010">
						<ele>77</ele>
						<time>2026-06-27T18:57:07Z</time>
					</trkpt>
					<trkpt lat="48.063860" lon="-4.588400">
						<ele>81</ele>
						<time>2026-06-27T18:57:36Z</time>
					</trkpt>
					<trkpt lat="48.063930" lon="-4.588630">
						<ele>82</ele>
						<time>2026-06-27T18:57:39Z</time>
					</trkpt>
					<trkpt lat="48.063950" lon="-4.588810">
						<ele>82</ele>
						<time>2026-06-27T18:57:42Z</time>
					</trkpt>
					<trkpt lat="48.063950" lon="-4.589770">
						<ele>83</ele>
						<time>2026-06-27T18:57:53Z</time>
					</trkpt>
					<trkpt lat="48.063930" lon="-4.590040">
						<ele>83</ele>
						<time>2026-06-27T18:57:56Z</time>
					</trkpt>
					<trkpt lat="48.063950" lon="-4.590620">
						<ele>83</ele>
						<time>2026-06-27T18:58:03Z</time>
					</trkpt>
					<trkpt lat="48.063940" lon="-4.590870">
						<ele>84</ele>
						<time>2026-06-27T18:58:06Z</time>
					</trkpt>
					<trkpt lat="48.063820" lon="-4.591970">
						<ele>84</ele>
						<time>2026-06-27T18:58:19Z</time>
					</trkpt>
					<trkpt lat="48.063820" lon="-4.592250">
						<ele>84</ele>
						<time>2026-06-27T18:58:23Z</time>
					</trkpt>
					<trkpt lat="48.064000" lon="-4.592250">
						<ele>83</ele>
						<time>2026-06-27T18:58:26Z</time>
					</trkpt>
					<trkpt lat="48.064570" lon="-4.592400">
						<ele>82</ele>
						<time>2026-06-27T18:58:36Z</time>
					</trkpt>
					<trkpt lat="48.064300" lon="-4.595460">
						<ele>80</ele>
						<time>2026-06-27T18:59:13Z</time>
					</trkpt>
					<trkpt lat="48.064270" lon="-4.595990">
						<ele>80</ele>
						<time>2026-06-27T18:59:19Z</time>
					</trkpt>
					<trkpt lat="48.064230" lon="-4.597620">
						<ele>78</ele>
						<time>2026-06-27T18:59:39Z</time>
					</trkpt>
					<trkpt lat="48.063980" lon="-4.600910">
						<ele>73</ele>
						<time>2026-06-27T19:00:18Z</time>
					</trkpt>
					<trkpt lat="48.063840" lon="-4.603250">
						<ele>72</ele>
						<time>2026-06-27T19:00:46Z</time>
					</trkpt>
					<trkpt lat="48.063790" lon="-4.606240">
						<ele>70</ele>
						<time>2026-06-27T19:01:21Z</time>
					</trkpt>
					<trkpt lat="48.063650" lon="-4.608930">
						<ele>71</ele>
						<time>2026-06-27T19:01:54Z</time>
					</trkpt>
					<trkpt lat="48.063580" lon="-4.613170">
						<ele>68</ele>
						<time>2026-06-27T19:02:44Z</time>
					</trkpt>
					<trkpt lat="48.063580" lon="-4.613160">
						<ele>68</ele>
						<time>2026-06-27T19:02:44Z</time>
					</trkpt>
					<trkpt lat="48.063380" lon="-4.618930">
						<ele>62</ele>
						<time>2026-06-27T19:03:53Z</time>
					</trkpt>
					<trkpt lat="48.063210" lon="-4.620820">
						<ele>67</ele>
						<time>2026-06-27T19:04:16Z</time>
					</trkpt>
					<trkpt lat="48.063000" lon="-4.622580">
						<ele>69</ele>
						<time>2026-06-27T19:04:37Z</time>
					</trkpt>
					<trkpt lat="48.062930" lon="-4.623380">
						<ele>71</ele>
						<time>2026-06-27T19:04:46Z</time>
					</trkpt>
					<trkpt lat="48.063510" lon="-4.623510">
						<ele>72</ele>
						<time>2026-06-27T19:04:57Z</time>
					</trkpt>
					<trkpt lat="48.064050" lon="-4.623850">
						<ele>72</ele>
						<time>2026-06-27T19:05:07Z</time>
					</trkpt>
					<trkpt lat="48.064240" lon="-4.624000">
						<ele>72</ele>
						<time>2026-06-27T19:05:11Z</time>
					</trkpt>
					<trkpt lat="48.064650" lon="-4.624280">
						<ele>72</ele>
						<time>2026-06-27T19:05:19Z</time>
					</trkpt>
					<trkpt lat="48.064860" lon="-4.624370">
						<ele>71</ele>
						<time>2026-06-27T19:05:23Z</time>
					</trkpt>
					<trkpt lat="48.064980" lon="-4.624380">
						<ele>71</ele>
						<time>2026-06-27T19:05:25Z</time>
					</trkpt>
					<trkpt lat="48.064870" lon="-4.625600">
						<ele>75</ele>
						<time>2026-06-27T19:05:40Z</time>
					</trkpt>
					<trkpt lat="48.064740" lon="-4.626800">
						<ele>78</ele>
						<time>2026-06-27T19:05:54Z</time>
					</trkpt>
					<trkpt lat="48.064750" lon="-4.626920">
						<ele>78</ele>
						<time>2026-06-27T19:05:56Z</time>
					</trkpt>
					<trkpt lat="48.064800" lon="-4.626960">
						<ele>78</ele>
						<time>2026-06-27T19:05:57Z</time>
					</trkpt>
					<trkpt lat="48.064920" lon="-4.626950">
						<ele>77</ele>
						<time>2026-06-27T19:05:59Z</time>
					</trkpt>
					<trkpt lat="48.065170" lon="-4.626890">
						<ele>76</ele>
						<time>2026-06-27T19:06:03Z</time>
					</trkpt>
					<trkpt lat="48.065420" lon="-4.626750">
						<ele>75</ele>
						<time>2026-06-27T19:06:08Z</time>
					</trkpt>
					<trkpt lat="48.065630" lon="-4.626670">
						<ele>74</ele>
						<time>2026-06-27T19:06:12Z</time>
					</trkpt>
					<trkpt lat="48.065850" lon="-4.626630">
						<ele>73</ele>
						<time>2026-06-27T19:06:16Z</time>
					</trkpt>
					<trkpt lat="48.066060" lon="-4.626650">
						<ele>72</ele>
						<time>2026-06-27T19:06:20Z</time>
					</trkpt>
					<trkpt lat="48.066300" lon="-4.626620">
						<ele>71</ele>
						<time>2026-06-27T19:06:24Z</time>
					</trkpt>
					<trkpt lat="48.066770" lon="-4.626410">
						<ele>70</ele>
						<time>2026-06-27T19:06:33Z</time>
					</trkpt>
					<trkpt lat="48.067350" lon="-4.626220">
						<ele>68</ele>
						<time>2026-06-27T19:06:43Z</time>
					</trkpt>
					<trkpt lat="48.068200" lon="-4.626180">
						<ele>68</ele>
						<time>2026-06-27T19:06:58Z</time>
					</trkpt>
					<trkpt lat="48.068300" lon="-4.626230">
						<ele>68</ele>
						<time>2026-06-27T19:07:00Z</time>
					</trkpt>
					<trkpt lat="48.068340" lon="-4.626310">
						<ele>68</ele>
						<time>2026-06-27T19:07:01Z</time>
					</trkpt>
					<trkpt lat="48.068390" lon="-4.626580">
						<ele>67</ele>
						<time>2026-06-27T19:07:05Z</time>
					</trkpt>
					<trkpt lat="48.068410" lon="-4.626880">
						<ele>66</ele>
						<time>2026-06-27T19:07:08Z</time>
					</trkpt>
					<trkpt lat="48.068410" lon="-4.627490">
						<ele>64</ele>
						<time>2026-06-27T19:07:15Z</time>
					</trkpt>
					<trkpt lat="48.068380" lon="-4.627590">
						<ele>63</ele>
						<time>2026-06-27T19:07:17Z</time>
					</trkpt>
					<trkpt lat="48.068300" lon="-4.627640">
						<ele>63</ele>
						<time>2026-06-27T19:07:18Z</time>
					</trkpt>
					<trkpt lat="48.068240" lon="-4.627640">
						<ele>63</ele>
						<time>2026-06-27T19:07:19Z</time>
					</trkpt>
					<trkpt lat="48.067980" lon="-4.627580">
						<ele>63</ele>
						<time>2026-06-27T19:07:24Z</time>
					</trkpt>
					<trkpt lat="48.067880" lon="-4.627630">
						<ele>63</ele>
						<time>2026-06-27T19:07:26Z</time>
					</trkpt>
					<trkpt lat="48.067280" lon="-4.628420">
						<ele>59</ele>
						<time>2026-06-27T19:07:40Z</time>
					</trkpt>
					<trkpt lat="48.067190" lon="-4.628500">
						<ele>58</ele>
						<time>2026-06-27T19:07:42Z</time>
					</trkpt>
					<trkpt lat="48.067020" lon="-4.628480">
						<ele>59</ele>
						<time>2026-06-27T19:07:45Z</time>
					</trkpt>
					<trkpt lat="48.066690" lon="-4.628380">
						<ele>63</ele>
						<time>2026-06-27T19:07:51Z</time>
					</trkpt>
					<trkpt lat="48.066580" lon="-4.628370">
						<ele>64</ele>
						<time>2026-06-27T19:07:53Z</time>
					</trkpt>
					<trkpt lat="48.066290" lon="-4.628410">
						<ele>65</ele>
						<time>2026-06-27T19:07:58Z</time>
					</trkpt>
					<trkpt lat="48.066020" lon="-4.628370">
						<ele>67</ele>
						<time>2026-06-27T19:08:03Z</time>
					</trkpt>
					<trkpt lat="48.065940" lon="-4.628390">
						<ele>67</ele>
						<time>2026-06-27T19:08:04Z</time>
					</trkpt>
					<trkpt lat="48.065880" lon="-4.628440">
						<ele>67</ele>
						<time>2026-06-27T19:08:06Z</time>
					</trkpt>
					<trkpt lat="48.065620" lon="-4.628920">
						<ele>68</ele>
						<time>2026-06-27T19:08:13Z</time>
					</trkpt>
					<trkpt lat="48.065610" lon="-4.629210">
						<ele>67</ele>
						<time>2026-06-27T19:08:17Z</time>
					</trkpt>
					<trkpt lat="48.065670" lon="-4.629650">
						<ele>65</ele>
						<time>2026-06-27T19:08:22Z</time>
					</trkpt>
					<trkpt lat="48.065680" lon="-4.629790">
						<ele>65</ele>
						<time>2026-06-27T19:08:24Z</time>
					</trkpt>
					<trkpt lat="48.065670" lon="-4.629940">
						<ele>65</ele>
						<time>2026-06-27T19:08:25Z</time>
					</trkpt>
					<trkpt lat="48.065610" lon="-4.630090">
						<ele>66</ele>
						<time>2026-06-27T19:08:27Z</time>
					</trkpt>
					<trkpt lat="48.065520" lon="-4.630180">
						<ele>68</ele>
						<time>2026-06-27T19:08:29Z</time>
					</trkpt>
					<trkpt lat="48.065350" lon="-4.630280">
						<ele>70</ele>
						<time>2026-06-27T19:08:33Z</time>
					</trkpt>
					<trkpt lat="48.065290" lon="-4.630300">
						<ele>71</ele>
						<time>2026-06-27T19:08:34Z</time>
					</trkpt>
					<trkpt lat="48.065200" lon="-4.630320">
						<ele>72</ele>
						<time>2026-06-27T19:08:35Z</time>
					</trkpt>
					<trkpt lat="48.065090" lon="-4.630320">
						<ele>74</ele>
						<time>2026-06-27T19:08:37Z</time>
					</trkpt>
					<trkpt lat="48.064990" lon="-4.630300">
						<ele>75</ele>
						<time>2026-06-27T19:08:39Z</time>
					</trkpt>
					<trkpt lat="48.064910" lon="-4.630310">
						<ele>76</ele>
						<time>2026-06-27T19:08:40Z</time>
					</trkpt>
					<trkpt lat="48.064900" lon="-4.630270">
						<ele>76</ele>
						<time>2026-06-27T19:08:41Z</time>
					</trkpt>
					<trkpt lat="48.064840" lon="-4.630220">
						<ele>76</ele>
						<time>2026-06-27T19:08:42Z</time>
					</trkpt>
					<trkpt lat="48.064230" lon="-4.629990">
						<ele>79</ele>
						<time>2026-06-27T19:08:53Z</time>
					</trkpt>
					<trkpt lat="48.063470" lon="-4.629660">
						<ele>82</ele>
						<time>2026-06-27T19:09:07Z</time>
					</trkpt>
					<trkpt lat="48.063300" lon="-4.629660">
						<ele>82</ele>
						<time>2026-06-27T19:09:10Z</time>
					</trkpt>
					<trkpt lat="48.062960" lon="-4.629710">
						<ele>82</ele>
						<time>2026-06-27T19:09:17Z</time>
					</trkpt>
					<trkpt lat="48.062950" lon="-4.629940">
						<ele>82</ele>
						<time>2026-06-27T19:09:19Z</time>
					</trkpt>
					<trkpt lat="48.062920" lon="-4.629960">
						<ele>82</ele>
						<time>2026-06-27T19:09:20Z</time>
					</trkpt>
					<trkpt lat="48.062730" lon="-4.629880">
						<ele>82</ele>
						<time>2026-06-27T19:09:23Z</time>
					</trkpt>
					<trkpt lat="48.062490" lon="-4.629670">
						<ele>82</ele>
						<time>2026-06-27T19:09:28Z</time>
					</trkpt>
					<trkpt lat="48.062400" lon="-4.629610">
						<ele>82</ele>
						<time>2026-06-27T19:09:30Z</time>
					</trkpt>
					<trkpt lat="48.061900" lon="-4.629360">
						<ele>80</ele>
						<time>2026-06-27T19:09:39Z</time>
					</trkpt>
					<trkpt lat="48.061850" lon="-4.629300">
						<ele>80</ele>
						<time>2026-06-27T19:09:41Z</time>
					</trkpt>
					<trkpt lat="48.061800" lon="-4.629150">
						<ele>80</ele>
						<time>2026-06-27T19:09:43Z</time>
					</trkpt>
					<trkpt lat="48.061710" lon="-4.629220">
						<ele>80</ele>
						<time>2026-06-27T19:09:44Z</time>
					</trkpt>
					<trkpt lat="48.061190" lon="-4.629340">
						<ele>78</ele>
						<time>2026-06-27T19:09:54Z</time>
					</trkpt>
					<trkpt lat="48.060990" lon="-4.629420">
						<ele>77</ele>
						<time>2026-06-27T19:09:57Z</time>
					</trkpt>
					<trkpt lat="48.060860" lon="-4.629450">
						<ele>76</ele>
						<time>2026-06-27T19:10:00Z</time>
					</trkpt>
					<trkpt lat="48.060660" lon="-4.629470">
						<ele>76</ele>
						<time>2026-06-27T19:10:03Z</time>
					</trkpt>
					<trkpt lat="48.060190" lon="-4.629410">
						<ele>74</ele>
						<time>2026-06-27T19:10:12Z</time>
					</trkpt>
					<trkpt lat="48.060200" lon="-4.629420">
						<ele>74</ele>
						<time>2026-06-27T19:10:12Z</time>
					</trkpt>
					<trkpt lat="48.059920" lon="-4.629520">
						<ele>73</ele>
						<time>2026-06-27T19:10:17Z</time>
					</trkpt>
					<trkpt lat="48.059670" lon="-4.629710">
						<ele>73</ele>
						<time>2026-06-27T19:10:22Z</time>
					</trkpt>
					<trkpt lat="48.059430" lon="-4.629950">
						<ele>72</ele>
						<time>2026-06-27T19:10:27Z</time>
					</trkpt>
					<trkpt lat="48.059210" lon="-4.630220">
						<ele>71</ele>
						<time>2026-06-27T19:10:32Z</time>
					</trkpt>
					<trkpt lat="48.058970" lon="-4.630650">
						<ele>71</ele>
						<time>2026-06-27T19:10:39Z</time>
					</trkpt>
					<trkpt lat="48.058680" lon="-4.631110">
						<ele>70</ele>
						<time>2026-06-27T19:10:46Z</time>
					</trkpt>
					<trkpt lat="48.058390" lon="-4.631530">
						<ele>69</ele>
						<time>2026-06-27T19:10:54Z</time>
					</trkpt>
					<trkpt lat="48.058190" lon="-4.631890">
						<ele>69</ele>
						<time>2026-06-27T19:10:59Z</time>
					</trkpt>
					<trkpt lat="48.057880" lon="-4.633130">
						<ele>66</ele>
						<time>2026-06-27T19:11:15Z</time>
					</trkpt>
					<trkpt lat="48.057590" lon="-4.634170">
						<ele>64</ele>
						<time>2026-06-27T19:11:28Z</time>
					</trkpt>
					<trkpt lat="48.057520" lon="-4.634480">
						<ele>64</ele>
						<time>2026-06-27T19:11:32Z</time>
					</trkpt>
					<trkpt lat="48.057260" lon="-4.636010">
						<ele>68</ele>
						<time>2026-06-27T19:11:51Z</time>
					</trkpt>
					<trkpt lat="48.057140" lon="-4.636850">
						<ele>71</ele>
						<time>2026-06-27T19:12:01Z</time>
					</trkpt>
					<trkpt lat="48.057120" lon="-4.637890">
						<ele>71</ele>
						<time>2026-06-27T19:12:14Z</time>
					</trkpt>
					<trkpt lat="48.056900" lon="-4.639360">
						<ele>68</ele>
						<time>2026-06-27T19:12:32Z</time>
					</trkpt>
					<trkpt lat="48.056810" lon="-4.639600">
						<ele>67</ele>
						<time>2026-06-27T19:12:35Z</time>
					</trkpt>
					<trkpt lat="48.056740" lon="-4.639660">
						<ele>67</ele>
						<time>2026-06-27T19:12:36Z</time>
					</trkpt>
					<trkpt lat="48.056650" lon="-4.639680">
						<ele>67</ele>
						<time>2026-06-27T19:12:38Z</time>
					</trkpt>
					<trkpt lat="48.056410" lon="-4.639650">
						<ele>68</ele>
						<time>2026-06-27T19:12:42Z</time>
					</trkpt>
					<trkpt lat="48.056290" lon="-4.639680">
						<ele>68</ele>
						<time>2026-06-27T19:12:44Z</time>
					</trkpt>
					<trkpt lat="48.056120" lon="-4.639780">
						<ele>68</ele>
						<time>2026-06-27T19:12:48Z</time>
					</trkpt>
					<trkpt lat="48.055640" lon="-4.640130">
						<ele>68</ele>
						<time>2026-06-27T19:12:57Z</time>
					</trkpt>
					<trkpt lat="48.055390" lon="-4.640530">
						<ele>66</ele>
						<time>2026-06-27T19:13:04Z</time>
					</trkpt>
					<trkpt lat="48.055030" lon="-4.640980">
						<ele>64</ele>
						<time>2026-06-27T19:13:12Z</time>
					</trkpt>
					<trkpt lat="48.054860" lon="-4.641110">
						<ele>63</ele>
						<time>2026-06-27T19:13:15Z</time>
					</trkpt>
					<trkpt lat="48.054340" lon="-4.641430">
						<ele>60</ele>
						<time>2026-06-27T19:13:25Z</time>
					</trkpt>
					<trkpt lat="48.054260" lon="-4.641510">
						<ele>59</ele>
						<time>2026-06-27T19:13:27Z</time>
					</trkpt>
					<trkpt lat="48.053830" lon="-4.642040">
						<ele>56</ele>
						<time>2026-06-27T19:13:37Z</time>
					</trkpt>
					<trkpt lat="48.053780" lon="-4.642190">
						<ele>55</ele>
						<time>2026-06-27T19:13:39Z</time>
					</trkpt>
					<trkpt lat="48.053470" lon="-4.642790">
						<ele>51</ele>
						<time>2026-06-27T19:13:48Z</time>
					</trkpt>
					<trkpt lat="48.053320" lon="-4.643190">
						<ele>50</ele>
						<time>2026-06-27T19:13:53Z</time>
					</trkpt>
					<trkpt lat="48.053070" lon="-4.643550">
						<ele>50</ele>
						<time>2026-06-27T19:14:00Z</time>
					</trkpt>
					<trkpt lat="48.051790" lon="-4.644810">
						<ele>45</ele>
						<time>2026-06-27T19:14:27Z</time>
					</trkpt>
					<trkpt lat="48.051480" lon="-4.645070">
						<ele>43</ele>
						<time>2026-06-27T19:14:33Z</time>
					</trkpt>
					<trkpt lat="48.051080" lon="-4.645360">
						<ele>42</ele>
						<time>2026-06-27T19:14:41Z</time>
					</trkpt>
					<trkpt lat="48.050800" lon="-4.645500">
						<ele>40</ele>
						<time>2026-06-27T19:14:46Z</time>
					</trkpt>
					<trkpt lat="48.050600" lon="-4.645700">
						<ele>39</ele>
						<time>2026-06-27T19:14:51Z</time>
					</trkpt>
					<trkpt lat="48.050510" lon="-4.645970">
						<ele>39</ele>
						<time>2026-06-27T19:14:54Z</time>
					</trkpt>
					<trkpt lat="48.050490" lon="-4.646370">
						<ele>41</ele>
						<time>2026-06-27T19:14:59Z</time>
					</trkpt>
					<trkpt lat="48.050470" lon="-4.646460">
						<ele>41</ele>
						<time>2026-06-27T19:15:00Z</time>
					</trkpt>
					<trkpt lat="48.050440" lon="-4.646540">
						<ele>42</ele>
						<time>2026-06-27T19:15:01Z</time>
					</trkpt>
					<trkpt lat="48.050380" lon="-4.646600">
						<ele>42</ele>
						<time>2026-06-27T19:15:02Z</time>
					</trkpt>
					<trkpt lat="48.050250" lon="-4.646590">
						<ele>43</ele>
						<time>2026-06-27T19:15:05Z</time>
					</trkpt>
					<trkpt lat="48.049940" lon="-4.646300">
						<ele>41</ele>
						<time>2026-06-27T19:15:11Z</time>
					</trkpt>
					<trkpt lat="48.049880" lon="-4.646260">
						<ele>41</ele>
						<time>2026-06-27T19:15:12Z</time>
					</trkpt>
					<trkpt lat="48.049780" lon="-4.646230">
						<ele>41</ele>
						<time>2026-06-27T19:15:14Z</time>
					</trkpt>
					<trkpt lat="48.049430" lon="-4.646210">
						<ele>42</ele>
						<time>2026-06-27T19:15:21Z</time>
					</trkpt>
					<trkpt lat="48.048860" lon="-4.646120">
						<ele>45</ele>
						<time>2026-06-27T19:15:31Z</time>
					</trkpt>
					<trkpt lat="48.048730" lon="-4.646130">
						<ele>45</ele>
						<time>2026-06-27T19:15:33Z</time>
					</trkpt>
					<trkpt lat="48.048640" lon="-4.646180">
						<ele>46</ele>
						<time>2026-06-27T19:15:35Z</time>
					</trkpt>
					<trkpt lat="48.048310" lon="-4.646760">
						<ele>49</ele>
						<time>2026-06-27T19:15:44Z</time>
					</trkpt>
					<trkpt lat="48.048080" lon="-4.646990">
						<ele>48</ele>
						<time>2026-06-27T19:15:49Z</time>
					</trkpt>
					<trkpt lat="48.047810" lon="-4.647180">
						<ele>47</ele>
						<time>2026-06-27T19:15:54Z</time>
					</trkpt>
					<trkpt lat="48.047790" lon="-4.647210">
						<ele>47</ele>
						<time>2026-06-27T19:15:55Z</time>
					</trkpt>
					<trkpt lat="48.047270" lon="-4.646370">
						<ele>42</ele>
						<time>2026-06-27T19:16:08Z</time>
					</trkpt>
					<trkpt lat="48.046950" lon="-4.645790">
						<ele>38</ele>
						<time>2026-06-27T19:16:17Z</time>
					</trkpt>
					<trkpt lat="48.046730" lon="-4.645450">
						<ele>35</ele>
						<time>2026-06-27T19:16:23Z</time>
					</trkpt>
					<trkpt lat="48.046290" lon="-4.644880">
						<ele>29</ele>
						<time>2026-06-27T19:16:33Z</time>
					</trkpt>
					<trkpt lat="48.046060" lon="-4.644450">
						<ele>26</ele>
						<time>2026-06-27T19:16:40Z</time>
					</trkpt>
					<trkpt lat="48.045960" lon="-4.644160">
						<ele>24</ele>
						<time>2026-06-27T19:16:44Z</time>
					</trkpt>
					<trkpt lat="48.045910" lon="-4.643960">
						<ele>24</ele>
						<time>2026-06-27T19:16:46Z</time>
					</trkpt>
					<trkpt lat="48.045890" lon="-4.643780">
						<ele>25</ele>
						<time>2026-06-27T19:16:48Z</time>
					</trkpt>
					<trkpt lat="48.045890" lon="-4.643460">
						<ele>27</ele>
						<time>2026-06-27T19:16:52Z</time>
					</trkpt>
					<trkpt lat="48.045970" lon="-4.642870">
						<ele>30</ele>
						<time>2026-06-27T19:16:59Z</time>
					</trkpt>
					<trkpt lat="48.046130" lon="-4.641940">
						<ele>35</ele>
						<time>2026-06-27T19:17:11Z</time>
					</trkpt>
					<trkpt lat="48.045630" lon="-4.641590">
						<ele>35</ele>
						<time>2026-06-27T19:17:20Z</time>
					</trkpt>
					<trkpt lat="48.045440" lon="-4.641400">
						<ele>35</ele>
						<time>2026-06-27T19:17:25Z</time>
					</trkpt>
					<trkpt lat="48.045280" lon="-4.641120">
						<ele>35</ele>
						<time>2026-06-27T19:17:29Z</time>
					</trkpt>
					<trkpt lat="48.045250" lon="-4.640990">
						<ele>34</ele>
						<time>2026-06-27T19:17:31Z</time>
					</trkpt>
					<trkpt lat="48.045200" lon="-4.640900">
						<ele>34</ele>
						<time>2026-06-27T19:17:32Z</time>
					</trkpt>
					<trkpt lat="48.045130" lon="-4.640850">
						<ele>34</ele>
						<time>2026-06-27T19:17:33Z</time>
					</trkpt>
					<trkpt lat="48.045000" lon="-4.640830">
						<ele>34</ele>
						<time>2026-06-27T19:17:36Z</time>
					</trkpt>
					<trkpt lat="48.044910" lon="-4.640820">
						<ele>34</ele>
						<time>2026-06-27T19:17:37Z</time>
					</trkpt>
					<trkpt lat="48.044710" lon="-4.640840">
						<ele>34</ele>
						<time>2026-06-27T19:17:41Z</time>
					</trkpt>
					<trkpt lat="48.044400" lon="-4.640830">
						<ele>33</ele>
						<time>2026-06-27T19:17:46Z</time>
					</trkpt>
					<trkpt lat="48.043920" lon="-4.640760">
						<ele>32</ele>
						<time>2026-06-27T19:17:55Z</time>
					</trkpt>
					<trkpt lat="48.043330" lon="-4.640650">
						<ele>29</ele>
						<time>2026-06-27T19:18:05Z</time>
					</trkpt>
					<trkpt lat="48.043080" lon="-4.640560">
						<ele>27</ele>
						<time>2026-06-27T19:18:10Z</time>
					</trkpt>
					<trkpt lat="48.042590" lon="-4.640420">
						<ele>24</ele>
						<time>2026-06-27T19:18:19Z</time>
					</trkpt>
					<trkpt lat="48.041450" lon="-4.640000">
						<ele>16</ele>
						<time>2026-06-27T19:18:40Z</time>
					</trkpt>
					<trkpt lat="48.041060" lon="-4.639840">
						<ele>14</ele>
						<time>2026-06-27T19:18:47Z</time>
					</trkpt>
					<trkpt lat="48.040870" lon="-4.639790">
						<ele>14</ele>
						<time>2026-06-27T19:18:50Z</time>
					</trkpt>
					<trkpt lat="48.039830" lon="-4.639630">
						<ele>10</ele>
						<time>2026-06-27T19:19:09Z</time>
					</trkpt>
					<trkpt lat="48.039620" lon="-4.639520">
						<ele>9</ele>
						<time>2026-06-27T19:19:13Z</time>
					</trkpt>
					<trkpt lat="48.039550" lon="-4.639440">
						<ele>9</ele>
						<time>2026-06-27T19:19:15Z</time>
					</trkpt>
					<trkpt lat="48.039370" lon="-4.639170">
						<ele>9</ele>
						<time>2026-06-27T19:19:19Z</time>
					</trkpt>
					<trkpt lat="48.039210" lon="-4.638820">
						<ele>8</ele>
						<time>2026-06-27T19:19:24Z</time>
					</trkpt>
					<trkpt lat="48.038990" lon="-4.638070">
						<ele>8</ele>
						<time>2026-06-27T19:19:34Z</time>
					</trkpt>
					<trkpt lat="48.038860" lon="-4.637330">
						<ele>9</ele>
						<time>2026-06-27T19:19:43Z</time>
					</trkpt>
					<trkpt lat="48.038960" lon="-4.637350">
						<ele>8</ele>
						<time>2026-06-27T19:19:45Z</time>
					</trkpt>
					<trkpt lat="48.039720" lon="-4.637880">
						<ele>9</ele>
						<time>2026-06-27T19:20:00Z</time>
					</trkpt>
					<trkpt lat="48.039790" lon="-4.637910">
						<ele>10</ele>
						<time>2026-06-27T19:20:01Z</time>
					</trkpt>
					<trkpt lat="48.039860" lon="-4.637900">
						<ele>10</ele>
						<time>2026-06-27T19:20:02Z</time>
					</trkpt>
					<trkpt lat="48.040180" lon="-4.636900">
						<ele>10</ele>
						<time>2026-06-27T19:20:15Z</time>
					</trkpt>
					<trkpt lat="48.040340" lon="-4.635660">
						<ele>11</ele>
						<time>2026-06-27T19:20:30Z</time>
					</trkpt>
					<trkpt lat="48.040390" lon="-4.634450">
						<ele>12</ele>
						<time>2026-06-27T19:20:45Z</time>
					</trkpt>
					<trkpt lat="48.040440" lon="-4.634340">
						<ele>12</ele>
						<time>2026-06-27T19:20:46Z</time>
					</trkpt>
					<trkpt lat="48.040650" lon="-4.634100">
						<ele>14</ele>
						<time>2026-06-27T19:20:51Z</time>
					</trkpt>
					<trkpt lat="48.040710" lon="-4.633800">
						<ele>14</ele>
						<time>2026-06-27T19:20:55Z</time>
					</trkpt>
					<trkpt lat="48.040750" lon="-4.633330">
						<ele>14</ele>
						<time>2026-06-27T19:21:01Z</time>
					</trkpt>
					<trkpt lat="48.040780" lon="-4.633290">
						<ele>14</ele>
						<time>2026-06-27T19:21:01Z</time>
					</trkpt>
					<trkpt lat="48.040850" lon="-4.633290">
						<ele>14</ele>
						<time>2026-06-27T19:21:03Z</time>
					</trkpt>
					<trkpt lat="48.041520" lon="-4.633100">
						<ele>21</ele>
						<time>2026-06-27T19:21:15Z</time>
					</trkpt>
					<trkpt lat="48.041610" lon="-4.633050">
						<ele>22</ele>
						<time>2026-06-27T19:21:16Z</time>
					</trkpt>
					<trkpt lat="48.041470" lon="-4.632750">
						<ele>19</ele>
						<time>2026-06-27T19:21:21Z</time>
					</trkpt>
					<trkpt lat="48.041440" lon="-4.632570">
						<ele>19</ele>
						<time>2026-06-27T19:21:23Z</time>
					</trkpt>
					<trkpt lat="48.041410" lon="-4.632200">
						<ele>16</ele>
						<time>2026-06-27T19:21:27Z</time>
					</trkpt>
					<trkpt lat="48.041460" lon="-4.631440">
						<ele>14</ele>
						<time>2026-06-27T19:21:36Z</time>
					</trkpt>
					<trkpt lat="48.041330" lon="-4.629240">
						<ele>14</ele>
						<time>2026-06-27T19:22:03Z</time>
					</trkpt>
					<trkpt lat="48.041350" lon="-4.628530">
						<ele>14</ele>
						<time>2026-06-27T19:22:11Z</time>
					</trkpt>
					<trkpt lat="48.041300" lon="-4.628240">
						<ele>14</ele>
						<time>2026-06-27T19:22:15Z</time>
					</trkpt>
					<trkpt lat="48.041260" lon="-4.628060">
						<ele>14</ele>
						<time>2026-06-27T19:22:17Z</time>
					</trkpt>
					<trkpt lat="48.041190" lon="-4.627900">
						<ele>13</ele>
						<time>2026-06-27T19:22:19Z</time>
					</trkpt>
					<trkpt lat="48.041040" lon="-4.627740">
						<ele>12</ele>
						<time>2026-06-27T19:22:23Z</time>
					</trkpt>
					<trkpt lat="48.040740" lon="-4.627520">
						<ele>9</ele>
						<time>2026-06-27T19:22:28Z</time>
					</trkpt>
					<trkpt lat="48.040570" lon="-4.627340">
						<ele>8</ele>
						<time>2026-06-27T19:22:32Z</time>
					</trkpt>
					<trkpt lat="48.040510" lon="-4.627180">
						<ele>8</ele>
						<time>2026-06-27T19:22:34Z</time>
					</trkpt>
					<trkpt lat="48.040500" lon="-4.626950">
						<ele>9</ele>
						<time>2026-06-27T19:22:37Z</time>
					</trkpt>
					<trkpt lat="48.040280" lon="-4.626850">
						<ele>7</ele>
						<time>2026-06-27T19:22:41Z</time>
					</trkpt>
					<trkpt lat="48.038980" lon="-4.626680">
						<ele>10</ele>
						<time>2026-06-27T19:23:04Z</time>
					</trkpt>
					<trkpt lat="48.038830" lon="-4.626680">
						<ele>12</ele>
						<time>2026-06-27T19:23:07Z</time>
					</trkpt>
					<trkpt lat="48.038630" lon="-4.626740">
						<ele>15</ele>
						<time>2026-06-27T19:23:11Z</time>
					</trkpt>
					<trkpt lat="48.038550" lon="-4.627050">
						<ele>15</ele>
						<time>2026-06-27T19:23:15Z</time>
					</trkpt>
					<trkpt lat="48.038510" lon="-4.627510">
						<ele>14</ele>
						<time>2026-06-27T19:23:20Z</time>
					</trkpt>
					<trkpt lat="48.038480" lon="-4.627660">
						<ele>15</ele>
						<time>2026-06-27T19:23:22Z</time>
					</trkpt>
					<trkpt lat="48.038410" lon="-4.627820">
						<ele>17</ele>
						<time>2026-06-27T19:23:24Z</time>
					</trkpt>
					<trkpt lat="48.038340" lon="-4.627860">
						<ele>18</ele>
						<time>2026-06-27T19:23:26Z</time>
					</trkpt>
					<trkpt lat="48.038290" lon="-4.627830">
						<ele>19</ele>
						<time>2026-06-27T19:23:27Z</time>
					</trkpt>
					<trkpt lat="48.038250" lon="-4.627730">
						<ele>20</ele>
						<time>2026-06-27T19:23:28Z</time>
					</trkpt>
					<trkpt lat="48.038200" lon="-4.627350">
						<ele>21</ele>
						<time>2026-06-27T19:23:33Z</time>
					</trkpt>
					<trkpt lat="48.038130" lon="-4.627050">
						<ele>23</ele>
						<time>2026-06-27T19:23:36Z</time>
					</trkpt>
					<trkpt lat="48.038050" lon="-4.626810">
						<ele>25</ele>
						<time>2026-06-27T19:23:40Z</time>
					</trkpt>
					<trkpt lat="48.037860" lon="-4.626360">
						<ele>30</ele>
						<time>2026-06-27T19:23:46Z</time>
					</trkpt>
					<trkpt lat="48.037670" lon="-4.626020">
						<ele>35</ele>
						<time>2026-06-27T19:23:51Z</time>
					</trkpt>
					<trkpt lat="48.037610" lon="-4.625960">
						<ele>36</ele>
						<time>2026-06-27T19:23:52Z</time>
					</trkpt>
					<trkpt lat="48.037440" lon="-4.625870">
						<ele>40</ele>
						<time>2026-06-27T19:23:56Z</time>
					</trkpt>
					<trkpt lat="48.036400" lon="-4.625700">
						<ele>48</ele>
						<time>2026-06-27T19:24:14Z</time>
					</trkpt>
					<trkpt lat="48.036170" lon="-4.625630">
						<ele>48</ele>
						<time>2026-06-27T19:24:18Z</time>
					</trkpt>
					<trkpt lat="48.035260" lon="-4.625280">
						<ele>49</ele>
						<time>2026-06-27T19:24:35Z</time>
					</trkpt>
					<trkpt lat="48.035060" lon="-4.625750">
						<ele>50</ele>
						<time>2026-06-27T19:24:42Z</time>
					</trkpt>
					<trkpt lat="48.034950" lon="-4.626190">
						<ele>50</ele>
						<time>2026-06-27T19:24:47Z</time>
					</trkpt>
					<trkpt lat="48.034940" lon="-4.626390">
						<ele>50</ele>
						<time>2026-06-27T19:24:50Z</time>
					</trkpt>
					<trkpt lat="48.034870" lon="-4.626770">
						<ele>49</ele>
						<time>2026-06-27T19:24:54Z</time>
					</trkpt>
					<trkpt lat="48.034860" lon="-4.626930">
						<ele>49</ele>
						<time>2026-06-27T19:24:56Z</time>
					</trkpt>
					<trkpt lat="48.034890" lon="-4.627290">
						<ele>49</ele>
						<time>2026-06-27T19:25:01Z</time>
					</trkpt>
					<trkpt lat="48.034870" lon="-4.627660">
						<ele>48</ele>
						<time>2026-06-27T19:25:05Z</time>
					</trkpt>
					<trkpt lat="48.034850" lon="-4.627740">
						<ele>48</ele>
						<time>2026-06-27T19:25:06Z</time>
					</trkpt>
					<trkpt lat="48.034780" lon="-4.627810">
						<ele>47</ele>
						<time>2026-06-27T19:25:08Z</time>
					</trkpt>
					<trkpt lat="48.034610" lon="-4.627740">
						<ele>46</ele>
						<time>2026-06-27T19:25:11Z</time>
					</trkpt>
					<trkpt lat="48.033830" lon="-4.627230">
						<ele>42</ele>
						<time>2026-06-27T19:25:26Z</time>
					</trkpt>
					<trkpt lat="48.033690" lon="-4.627180">
						<ele>42</ele>
						<time>2026-06-27T19:25:28Z</time>
					</trkpt>
					<trkpt lat="48.033580" lon="-4.627160">
						<ele>41</ele>
						<time>2026-06-27T19:25:30Z</time>
					</trkpt>
					<trkpt lat="48.033270" lon="-4.627150">
						<ele>39</ele>
						<time>2026-06-27T19:25:36Z</time>
					</trkpt>
					<trkpt lat="48.032690" lon="-4.627160">
						<ele>32</ele>
						<time>2026-06-27T19:25:46Z</time>
					</trkpt>
					<trkpt lat="48.032410" lon="-4.627250">
						<ele>29</ele>
						<time>2026-06-27T19:25:51Z</time>
					</trkpt>
					<trkpt lat="48.032070" lon="-4.627280">
						<ele>26</ele>
						<time>2026-06-27T19:25:57Z</time>
					</trkpt>
					<trkpt lat="48.031960" lon="-4.627330">
						<ele>25</ele>
						<time>2026-06-27T19:25:59Z</time>
					</trkpt>
					<trkpt lat="48.031910" lon="-4.627410">
						<ele>24</ele>
						<time>2026-06-27T19:26:01Z</time>
					</trkpt>
					<trkpt lat="48.031710" lon="-4.627870">
						<ele>23</ele>
						<time>2026-06-27T19:26:07Z</time>
					</trkpt>
					<trkpt lat="48.031610" lon="-4.627930">
						<ele>22</ele>
						<time>2026-06-27T19:26:09Z</time>
					</trkpt>
					<trkpt lat="48.031500" lon="-4.627950">
						<ele>21</ele>
						<time>2026-06-27T19:26:11Z</time>
					</trkpt>
					<trkpt lat="48.031430" lon="-4.627980">
						<ele>20</ele>
						<time>2026-06-27T19:26:13Z</time>
					</trkpt>
					<trkpt lat="48.031350" lon="-4.628060">
						<ele>19</ele>
						<time>2026-06-27T19:26:14Z</time>
					</trkpt>
					<trkpt lat="48.031190" lon="-4.628380">
						<ele>18</ele>
						<time>2026-06-27T19:26:19Z</time>
					</trkpt>
					<trkpt lat="48.031070" lon="-4.628530">
						<ele>16</ele>
						<time>2026-06-27T19:26:22Z</time>
					</trkpt>
					<trkpt lat="48.030430" lon="-4.629000">
						<ele>11</ele>
						<time>2026-06-27T19:26:34Z</time>
					</trkpt>
					<trkpt lat="48.029390" lon="-4.629060">
						<ele>9</ele>
						<time>2026-06-27T19:26:53Z</time>
					</trkpt>
					<trkpt lat="48.029320" lon="-4.629110">
						<ele>9</ele>
						<time>2026-06-27T19:26:54Z</time>
					</trkpt>
					<trkpt lat="48.029260" lon="-4.629210">
						<ele>9</ele>
						<time>2026-06-27T19:26:56Z</time>
					</trkpt>
					<trkpt lat="48.029170" lon="-4.629310">
						<ele>9</ele>
						<time>2026-06-27T19:26:58Z</time>
					</trkpt>
					<trkpt lat="48.029180" lon="-4.629430">
						<ele>8</ele>
						<time>2026-06-27T19:26:59Z</time>
					</trkpt>
					<trkpt lat="48.028980" lon="-4.629560">
						<ele>8</ele>
						<time>2026-06-27T19:27:03Z</time>
					</trkpt>
					<trkpt lat="48.028860" lon="-4.629470">
						<ele>9</ele>
						<time>2026-06-27T19:27:06Z</time>
					</trkpt>
					<trkpt lat="48.028320" lon="-4.629160">
						<ele>10</ele>
						<time>2026-06-27T19:27:16Z</time>
					</trkpt>
					<trkpt lat="48.028200" lon="-4.629630">
						<ele>9</ele>
						<time>2026-06-27T19:27:22Z</time>
					</trkpt>
					<trkpt lat="48.027880" lon="-4.629460">
						<ele>8</ele>
						<time>2026-06-27T19:27:28Z</time>
					</trkpt>
					<trkpt lat="48.027820" lon="-4.629370">
						<ele>8</ele>
						<time>2026-06-27T19:27:29Z</time>
					</trkpt>
					<trkpt lat="48.027650" lon="-4.629250">
						<ele>8</ele>
						<time>2026-06-27T19:27:33Z</time>
					</trkpt>
					<trkpt lat="48.027400" lon="-4.629130">
						<ele>8</ele>
						<time>2026-06-27T19:27:37Z</time>
					</trkpt>
					<trkpt lat="48.026830" lon="-4.628760">
						<ele>8</ele>
						<time>2026-06-27T19:27:49Z</time>
					</trkpt>
					<trkpt lat="48.026700" lon="-4.628630">
						<ele>9</ele>
						<time>2026-06-27T19:27:51Z</time>
					</trkpt>
					<trkpt lat="48.026560" lon="-4.628440">
						<ele>9</ele>
						<time>2026-06-27T19:27:55Z</time>
					</trkpt>
					<trkpt lat="48.026470" lon="-4.628250">
						<ele>10</ele>
						<time>2026-06-27T19:27:57Z</time>
					</trkpt>
					<trkpt lat="48.026180" lon="-4.627260">
						<ele>11</ele>
						<time>2026-06-27T19:28:10Z</time>
					</trkpt>
					<trkpt lat="48.025860" lon="-4.625660">
						<ele>15</ele>
						<time>2026-06-27T19:28:30Z</time>
					</trkpt>
					<trkpt lat="48.025830" lon="-4.624750">
						<ele>16</ele>
						<time>2026-06-27T19:28:41Z</time>
					</trkpt>
					<trkpt lat="48.025850" lon="-4.621560">
						<ele>21</ele>
						<time>2026-06-27T19:29:19Z</time>
					</trkpt>
					<trkpt lat="48.025860" lon="-4.621320">
						<ele>21</ele>
						<time>2026-06-27T19:29:22Z</time>
					</trkpt>
					<trkpt lat="48.025990" lon="-4.620480">
						<ele>23</ele>
						<time>2026-06-27T19:29:32Z</time>
					</trkpt>
					<trkpt lat="48.026080" lon="-4.619770">
						<ele>24</ele>
						<time>2026-06-27T19:29:41Z</time>
					</trkpt>
					<trkpt lat="48.026260" lon="-4.617810">
						<ele>32</ele>
						<time>2026-06-27T19:30:04Z</time>
					</trkpt>
					<trkpt lat="48.026310" lon="-4.617620">
						<ele>33</ele>
						<time>2026-06-27T19:30:07Z</time>
					</trkpt>
					<trkpt lat="48.026420" lon="-4.617350">
						<ele>34</ele>
						<time>2026-06-27T19:30:10Z</time>
					</trkpt>
					<trkpt lat="48.027000" lon="-4.616010">
						<ele>38</ele>
						<time>2026-06-27T19:30:29Z</time>
					</trkpt>
					<trkpt lat="48.027070" lon="-4.615650">
						<ele>39</ele>
						<time>2026-06-27T19:30:34Z</time>
					</trkpt>
					<trkpt lat="48.027090" lon="-4.615460">
						<ele>39</ele>
						<time>2026-06-27T19:30:36Z</time>
					</trkpt>
					<trkpt lat="48.027150" lon="-4.614100">
						<ele>42</ele>
						<time>2026-06-27T19:30:52Z</time>
					</trkpt>
					<trkpt lat="48.027110" lon="-4.612730">
						<ele>43</ele>
						<time>2026-06-27T19:31:09Z</time>
					</trkpt>
					<trkpt lat="48.027090" lon="-4.612590">
						<ele>43</ele>
						<time>2026-06-27T19:31:10Z</time>
					</trkpt>
					<trkpt lat="48.027000" lon="-4.612260">
						<ele>43</ele>
						<time>2026-06-27T19:31:15Z</time>
					</trkpt>
					<trkpt lat="48.026870" lon="-4.611990">
						<ele>44</ele>
						<time>2026-06-27T19:31:19Z</time>
					</trkpt>
					<trkpt lat="48.026710" lon="-4.611730">
						<ele>45</ele>
						<time>2026-06-27T19:31:23Z</time>
					</trkpt>
					<trkpt lat="48.026530" lon="-4.611560">
						<ele>45</ele>
						<time>2026-06-27T19:31:27Z</time>
					</trkpt>
					<trkpt lat="48.026460" lon="-4.611520">
						<ele>45</ele>
						<time>2026-06-27T19:31:28Z</time>
					</trkpt>
					<trkpt lat="48.025900" lon="-4.611300">
						<ele>46</ele>
						<time>2026-06-27T19:31:38Z</time>
					</trkpt>
					<trkpt lat="48.025830" lon="-4.611230">
						<ele>47</ele>
						<time>2026-06-27T19:31:40Z</time>
					</trkpt>
					<trkpt lat="48.025800" lon="-4.611160">
						<ele>47</ele>
						<time>2026-06-27T19:31:41Z</time>
					</trkpt>
					<trkpt lat="48.025760" lon="-4.610640">
						<ele>47</ele>
						<time>2026-06-27T19:31:47Z</time>
					</trkpt>
					<trkpt lat="48.025710" lon="-4.610630">
						<ele>47</ele>
						<time>2026-06-27T19:31:48Z</time>
					</trkpt>
					<trkpt lat="48.025460" lon="-4.610660">
						<ele>47</ele>
						<time>2026-06-27T19:31:52Z</time>
					</trkpt>
					<trkpt lat="48.025340" lon="-4.610540">
						<ele>46</ele>
						<time>2026-06-27T19:31:55Z</time>
					</trkpt>
					<trkpt lat="48.025150" lon="-4.609840">
						<ele>46</ele>
						<time>2026-06-27T19:32:04Z</time>
					</trkpt>
					<trkpt lat="48.025090" lon="-4.609700">
						<ele>46</ele>
						<time>2026-06-27T19:32:06Z</time>
					</trkpt>
					<trkpt lat="48.025040" lon="-4.609600">
						<ele>46</ele>
						<time>2026-06-27T19:32:07Z</time>
					</trkpt>
					<trkpt lat="48.024820" lon="-4.609340">
						<ele>44</ele>
						<time>2026-06-27T19:32:12Z</time>
					</trkpt>
					<trkpt lat="48.024640" lon="-4.609090">
						<ele>43</ele>
						<time>2026-06-27T19:32:17Z</time>
					</trkpt>
					<trkpt lat="48.024580" lon="-4.608910">
						<ele>42</ele>
						<time>2026-06-27T19:32:19Z</time>
					</trkpt>
					<trkpt lat="48.024730" lon="-4.608640">
						<ele>42</ele>
						<time>2026-06-27T19:32:23Z</time>
					</trkpt>
					<trkpt lat="48.024800" lon="-4.608450">
						<ele>41</ele>
						<time>2026-06-27T19:32:26Z</time>
					</trkpt>
					<trkpt lat="48.024960" lon="-4.607570">
						<ele>38</ele>
						<time>2026-06-27T19:32:37Z</time>
					</trkpt>
					<trkpt lat="48.025000" lon="-4.607210">
						<ele>37</ele>
						<time>2026-06-27T19:32:41Z</time>
					</trkpt>
					<trkpt lat="48.025010" lon="-4.606920">
						<ele>37</ele>
						<time>2026-06-27T19:32:45Z</time>
					</trkpt>
					<trkpt lat="48.024980" lon="-4.606250">
						<ele>36</ele>
						<time>2026-06-27T19:32:53Z</time>
					</trkpt>
					<trkpt lat="48.024960" lon="-4.604420">
						<ele>37</ele>
						<time>2026-06-27T19:33:14Z</time>
					</trkpt>
					<trkpt lat="48.024970" lon="-4.604190">
						<ele>37</ele>
						<time>2026-06-27T19:33:17Z</time>
					</trkpt>
					<trkpt lat="48.025060" lon="-4.603350">
						<ele>38</ele>
						<time>2026-06-27T19:33:27Z</time>
					</trkpt>
					<trkpt lat="48.025000" lon="-4.602830">
						<ele>39</ele>
						<time>2026-06-27T19:33:33Z</time>
					</trkpt>
					<trkpt lat="48.024510" lon="-4.600590">
						<ele>32</ele>
						<time>2026-06-27T19:34:01Z</time>
					</trkpt>
					<trkpt lat="48.024350" lon="-4.599650">
						<ele>29</ele>
						<time>2026-06-27T19:34:13Z</time>
					</trkpt>
					<trkpt lat="48.024300" lon="-4.598870">
						<ele>29</ele>
						<time>2026-06-27T19:34:22Z</time>
					</trkpt>
					<trkpt lat="48.024210" lon="-4.596550">
						<ele>34</ele>
						<time>2026-06-27T19:34:50Z</time>
					</trkpt>
					<trkpt lat="48.024150" lon="-4.595810">
						<ele>36</ele>
						<time>2026-06-27T19:34:59Z</time>
					</trkpt>
					<trkpt lat="48.024130" lon="-4.595260">
						<ele>37</ele>
						<time>2026-06-27T19:35:05Z</time>
					</trkpt>
					<trkpt lat="48.024090" lon="-4.595100">
						<ele>37</ele>
						<time>2026-06-27T19:35:07Z</time>
					</trkpt>
					<trkpt lat="48.024100" lon="-4.595080">
						<ele>37</ele>
						<time>2026-06-27T19:35:08Z</time>
					</trkpt>
					<trkpt lat="48.024190" lon="-4.595030">
						<ele>37</ele>
						<time>2026-06-27T19:35:09Z</time>
					</trkpt>
					<trkpt lat="48.024420" lon="-4.595030">
						<ele>37</ele>
						<time>2026-06-27T19:35:14Z</time>
					</trkpt>
					<trkpt lat="48.024570" lon="-4.595050">
						<ele>37</ele>
						<time>2026-06-27T19:35:16Z</time>
					</trkpt>
					<trkpt lat="48.025340" lon="-4.595010">
						<ele>38</ele>
						<time>2026-06-27T19:35:30Z</time>
					</trkpt>
					<trkpt lat="48.025630" lon="-4.595010">
						<ele>39</ele>
						<time>2026-06-27T19:35:35Z</time>
					</trkpt>
					<trkpt lat="48.025870" lon="-4.595080">
						<ele>40</ele>
						<time>2026-06-27T19:35:39Z</time>
					</trkpt>
					<trkpt lat="48.026160" lon="-4.595230">
						<ele>41</ele>
						<time>2026-06-27T19:35:45Z</time>
					</trkpt>
					<trkpt lat="48.026710" lon="-4.595460">
						<ele>41</ele>
						<time>2026-06-27T19:35:55Z</time>
					</trkpt>
					<trkpt lat="48.027400" lon="-4.595630">
						<ele>43</ele>
						<time>2026-06-27T19:36:08Z</time>
					</trkpt>
					<trkpt lat="48.027880" lon="-4.595790">
						<ele>44</ele>
						<time>2026-06-27T19:36:16Z</time>
					</trkpt>
					<trkpt lat="48.028410" lon="-4.596060">
						<ele>45</ele>
						<time>2026-06-27T19:36:26Z</time>
					</trkpt>
					<trkpt lat="48.028690" lon="-4.596230">
						<ele>46</ele>
						<time>2026-06-27T19:36:32Z</time>
					</trkpt>
					<trkpt lat="48.028910" lon="-4.596390">
						<ele>47</ele>
						<time>2026-06-27T19:36:36Z</time>
					</trkpt>
					<trkpt lat="48.029060" lon="-4.596470">
						<ele>48</ele>
						<time>2026-06-27T19:36:39Z</time>
					</trkpt>
					<trkpt lat="48.029280" lon="-4.596550">
						<ele>48</ele>
						<time>2026-06-27T19:36:43Z</time>
					</trkpt>
					<trkpt lat="48.029700" lon="-4.596660">
						<ele>49</ele>
						<time>2026-06-27T19:36:50Z</time>
					</trkpt>
					<trkpt lat="48.030120" lon="-4.596740">
						<ele>49</ele>
						<time>2026-06-27T19:36:58Z</time>
					</trkpt>
					<trkpt lat="48.030200" lon="-4.596800">
						<ele>49</ele>
						<time>2026-06-27T19:37:00Z</time>
					</trkpt>
					<trkpt lat="48.030690" lon="-4.595580">
						<ele>47</ele>
						<time>2026-06-27T19:37:16Z</time>
					</trkpt>
					<trkpt lat="48.030790" lon="-4.595290">
						<ele>47</ele>
						<time>2026-06-27T19:37:20Z</time>
					</trkpt>
					<trkpt lat="48.030850" lon="-4.595020">
						<ele>47</ele>
						<time>2026-06-27T19:37:24Z</time>
					</trkpt>
					<trkpt lat="48.030870" lon="-4.594740">
						<ele>47</ele>
						<time>2026-06-27T19:37:27Z</time>
					</trkpt>
					<trkpt lat="48.030870" lon="-4.594420">
						<ele>46</ele>
						<time>2026-06-27T19:37:31Z</time>
					</trkpt>
					<trkpt lat="48.030800" lon="-4.593960">
						<ele>46</ele>
						<time>2026-06-27T19:37:37Z</time>
					</trkpt>
					<trkpt lat="48.030770" lon="-4.593850">
						<ele>46</ele>
						<time>2026-06-27T19:37:38Z</time>
					</trkpt>
					<trkpt lat="48.030610" lon="-4.593370">
						<ele>46</ele>
						<time>2026-06-27T19:37:44Z</time>
					</trkpt>
					<trkpt lat="48.030230" lon="-4.592360">
						<ele>47</ele>
						<time>2026-06-27T19:37:58Z</time>
					</trkpt>
					<trkpt lat="48.029610" lon="-4.590770">
						<ele>47</ele>
						<time>2026-06-27T19:38:20Z</time>
					</trkpt>
					<trkpt lat="48.029400" lon="-4.590020">
						<ele>47</ele>
						<time>2026-06-27T19:38:30Z</time>
					</trkpt>
					<trkpt lat="48.029330" lon="-4.589580">
						<ele>46</ele>
						<time>2026-06-27T19:38:35Z</time>
					</trkpt>
					<trkpt lat="48.029320" lon="-4.589250">
						<ele>46</ele>
						<time>2026-06-27T19:38:39Z</time>
					</trkpt>
					<trkpt lat="48.029360" lon="-4.586770">
						<ele>48</ele>
						<time>2026-06-27T19:39:09Z</time>
					</trkpt>
					<trkpt lat="48.029350" lon="-4.586620">
						<ele>49</ele>
						<time>2026-06-27T19:39:10Z</time>
					</trkpt>
					<trkpt lat="48.029400" lon="-4.586160">
						<ele>50</ele>
						<time>2026-06-27T19:39:16Z</time>
					</trkpt>
					<trkpt lat="48.030350" lon="-4.582010">
						<ele>54</ele>
						<time>2026-06-27T19:40:08Z</time>
					</trkpt>
					<trkpt lat="48.030410" lon="-4.581800">
						<ele>54</ele>
						<time>2026-06-27T19:40:11Z</time>
					</trkpt>
					<trkpt lat="48.030580" lon="-4.581350">
						<ele>53</ele>
						<time>2026-06-27T19:40:17Z</time>
					</trkpt>
					<trkpt lat="48.031070" lon="-4.580130">
						<ele>52</ele>
						<time>2026-06-27T19:40:34Z</time>
					</trkpt>
					<trkpt lat="48.031110" lon="-4.579960">
						<ele>52</ele>
						<time>2026-06-27T19:40:36Z</time>
					</trkpt>
					<trkpt lat="48.031200" lon="-4.579510">
						<ele>52</ele>
						<time>2026-06-27T19:40:42Z</time>
					</trkpt>
					<trkpt lat="48.031320" lon="-4.578710">
						<ele>53</ele>
						<time>2026-06-27T19:40:51Z</time>
					</trkpt>
					<trkpt lat="48.031820" lon="-4.575800">
						<ele>56</ele>
						<time>2026-06-27T19:41:27Z</time>
					</trkpt>
					<trkpt lat="48.032430" lon="-4.573590">
						<ele>62</ele>
						<time>2026-06-27T19:41:56Z</time>
					</trkpt>
					<trkpt lat="48.032560" lon="-4.573040">
						<ele>63</ele>
						<time>2026-06-27T19:42:02Z</time>
					</trkpt>
					<trkpt lat="48.032680" lon="-4.572440">
						<ele>63</ele>
						<time>2026-06-27T19:42:10Z</time>
					</trkpt>
					<trkpt lat="48.032730" lon="-4.572110">
						<ele>63</ele>
						<time>2026-06-27T19:42:14Z</time>
					</trkpt>
					<trkpt lat="48.032790" lon="-4.571340">
						<ele>64</ele>
						<time>2026-06-27T19:42:23Z</time>
					</trkpt>
					<trkpt lat="48.032890" lon="-4.568840">
						<ele>65</ele>
						<time>2026-06-27T19:42:53Z</time>
					</trkpt>
					<trkpt lat="48.032920" lon="-4.567530">
						<ele>68</ele>
						<time>2026-06-27T19:43:09Z</time>
					</trkpt>
					<trkpt lat="48.032760" lon="-4.565330">
						<ele>68</ele>
						<time>2026-06-27T19:43:35Z</time>
					</trkpt>
					<trkpt lat="48.032710" lon="-4.565020">
						<ele>68</ele>
						<time>2026-06-27T19:43:39Z</time>
					</trkpt>
					<trkpt lat="48.032540" lon="-4.564230">
						<ele>69</ele>
						<time>2026-06-27T19:43:49Z</time>
					</trkpt>
					<trkpt lat="48.032370" lon="-4.563610">
						<ele>68</ele>
						<time>2026-06-27T19:43:57Z</time>
					</trkpt>
					<trkpt lat="48.032280" lon="-4.563210">
						<ele>68</ele>
						<time>2026-06-27T19:44:02Z</time>
					</trkpt>
					<trkpt lat="48.032160" lon="-4.562850">
						<ele>67</ele>
						<time>2026-06-27T19:44:06Z</time>
					</trkpt>
					<trkpt lat="48.031860" lon="-4.562200">
						<ele>66</ele>
						<time>2026-06-27T19:44:16Z</time>
					</trkpt>
					<trkpt lat="48.031430" lon="-4.561610">
						<ele>66</ele>
						<time>2026-06-27T19:44:26Z</time>
					</trkpt>
					<trkpt lat="48.031180" lon="-4.561330">
						<ele>66</ele>
						<time>2026-06-27T19:44:32Z</time>
					</trkpt>
					<trkpt lat="48.031000" lon="-4.561180">
						<ele>66</ele>
						<time>2026-06-27T19:44:35Z</time>
					</trkpt>
					<trkpt lat="48.030770" lon="-4.561020">
						<ele>66</ele>
						<time>2026-06-27T19:44:40Z</time>
					</trkpt>
					<trkpt lat="48.030620" lon="-4.560880">
						<ele>66</ele>
						<time>2026-06-27T19:44:43Z</time>
					</trkpt>
					<trkpt lat="48.030550" lon="-4.560720">
						<ele>66</ele>
						<time>2026-06-27T19:44:45Z</time>
					</trkpt>
					<trkpt lat="48.030550" lon="-4.560610">
						<ele>66</ele>
						<time>2026-06-27T19:44:47Z</time>
					</trkpt>
					<trkpt lat="48.030580" lon="-4.560570">
						<ele>66</ele>
						<time>2026-06-27T19:44:47Z</time>
					</trkpt>
					<trkpt lat="48.030680" lon="-4.560510">
						<ele>67</ele>
						<time>2026-06-27T19:44:49Z</time>
					</trkpt>
					<trkpt lat="48.030980" lon="-4.560620">
						<ele>67</ele>
						<time>2026-06-27T19:44:55Z</time>
					</trkpt>
					<trkpt lat="48.031110" lon="-4.560630">
						<ele>67</ele>
						<time>2026-06-27T19:44:57Z</time>
					</trkpt>
					<trkpt lat="48.031310" lon="-4.560630">
						<ele>67</ele>
						<time>2026-06-27T19:45:01Z</time>
					</trkpt>
					<trkpt lat="48.031720" lon="-4.560580">
						<ele>67</ele>
						<time>2026-06-27T19:45:08Z</time>
					</trkpt>
					<trkpt lat="48.031890" lon="-4.560540">
						<ele>67</ele>
						<time>2026-06-27T19:45:11Z</time>
					</trkpt>
					<trkpt lat="48.032380" lon="-4.560320">
						<ele>66</ele>
						<time>2026-06-27T19:45:20Z</time>
					</trkpt>
					<trkpt lat="48.032650" lon="-4.560230">
						<ele>66</ele>
						<time>2026-06-27T19:45:25Z</time>
					</trkpt>
					<trkpt lat="48.033010" lon="-4.560140">
						<ele>66</ele>
						<time>2026-06-27T19:45:31Z</time>
					</trkpt>
					<trkpt lat="48.033340" lon="-4.560080">
						<ele>66</ele>
						<time>2026-06-27T19:45:37Z</time>
					</trkpt>
					<trkpt lat="48.033640" lon="-4.560090">
						<ele>65</ele>
						<time>2026-06-27T19:45:43Z</time>
					</trkpt>
					<trkpt lat="48.033830" lon="-4.560120">
						<ele>64</ele>
						<time>2026-06-27T19:45:46Z</time>
					</trkpt>
					<trkpt lat="48.034970" lon="-4.560520">
						<ele>58</ele>
						<time>2026-06-27T19:46:07Z</time>
					</trkpt>
					<trkpt lat="48.035160" lon="-4.560570">
						<ele>57</ele>
						<time>2026-06-27T19:46:10Z</time>
					</trkpt>
					<trkpt lat="48.035400" lon="-4.560590">
						<ele>56</ele>
						<time>2026-06-27T19:46:15Z</time>
					</trkpt>
					<trkpt lat="48.035660" lon="-4.560560">
						<ele>55</ele>
						<time>2026-06-27T19:46:19Z</time>
					</trkpt>
					<trkpt lat="48.036010" lon="-4.560460">
						<ele>55</ele>
						<time>2026-06-27T19:46:26Z</time>
					</trkpt>
					<trkpt lat="48.037610" lon="-4.559870">
						<ele>55</ele>
						<time>2026-06-27T19:46:55Z</time>
					</trkpt>
					<trkpt lat="48.037790" lon="-4.559820">
						<ele>56</ele>
						<time>2026-06-27T19:46:58Z</time>
					</trkpt>
					<trkpt lat="48.038880" lon="-4.559840">
						<ele>58</ele>
						<time>2026-06-27T19:47:18Z</time>
					</trkpt>
					<trkpt lat="48.039120" lon="-4.559790">
						<ele>58</ele>
						<time>2026-06-27T19:47:22Z</time>
					</trkpt>
					<trkpt lat="48.040390" lon="-4.559330">
						<ele>57</ele>
						<time>2026-06-27T19:47:45Z</time>
					</trkpt>
					<trkpt lat="48.040850" lon="-4.559230">
						<ele>56</ele>
						<time>2026-06-27T19:47:53Z</time>
					</trkpt>
					<trkpt lat="48.041190" lon="-4.559260">
						<ele>57</ele>
						<time>2026-06-27T19:48:00Z</time>
					</trkpt>
					<trkpt lat="48.041760" lon="-4.559370">
						<ele>57</ele>
						<time>2026-06-27T19:48:10Z</time>
					</trkpt>
					<trkpt lat="48.042170" lon="-4.559360">
						<ele>56</ele>
						<time>2026-06-27T19:48:17Z</time>
					</trkpt>
					<trkpt lat="48.042450" lon="-4.559290">
						<ele>56</ele>
						<time>2026-06-27T19:48:22Z</time>
					</trkpt>
					<trkpt lat="48.042860" lon="-4.559080">
						<ele>55</ele>
						<time>2026-06-27T19:48:30Z</time>
					</trkpt>
					<trkpt lat="48.043440" lon="-4.558810">
						<ele>55</ele>
						<time>2026-06-27T19:48:41Z</time>
					</trkpt>
					<trkpt lat="48.043920" lon="-4.558640">
						<ele>56</ele>
						<time>2026-06-27T19:48:49Z</time>
					</trkpt>
					<trkpt lat="48.043940" lon="-4.558520">
						<ele>56</ele>
						<time>2026-06-27T19:48:51Z</time>
					</trkpt>
					<trkpt lat="48.044210" lon="-4.554580">
						<ele>53</ele>
						<time>2026-06-27T19:49:38Z</time>
					</trkpt>
					<trkpt lat="48.044510" lon="-4.549850">
						<ele>59</ele>
						<time>2026-06-27T19:50:35Z</time>
					</trkpt>
					<trkpt lat="48.044620" lon="-4.548300">
						<ele>60</ele>
						<time>2026-06-27T19:50:53Z</time>
					</trkpt>
					<trkpt lat="48.044640" lon="-4.548180">
						<ele>60</ele>
						<time>2026-06-27T19:50:55Z</time>
					</trkpt>
					<trkpt lat="48.045370" lon="-4.548610">
						<ele>64</ele>
						<time>2026-06-27T19:51:08Z</time>
					</trkpt>
					<trkpt lat="48.047770" lon="-4.549440">
						<ele>67</ele>
						<time>2026-06-27T19:51:52Z</time>
					</trkpt>
					<trkpt lat="48.048130" lon="-4.549820">
						<ele>66</ele>
						<time>2026-06-27T19:52:00Z</time>
					</trkpt>
					<trkpt lat="48.048580" lon="-4.550120">
						<ele>67</ele>
						<time>2026-06-27T19:52:09Z</time>
					</trkpt>
					<trkpt lat="48.048820" lon="-4.550310">
						<ele>68</ele>
						<time>2026-06-27T19:52:14Z</time>
					</trkpt>
					<trkpt lat="48.048790" lon="-4.550340">
						<ele>68</ele>
						<time>2026-06-27T19:52:14Z</time>
					</trkpt>
					<trkpt lat="48.048640" lon="-4.550660">
						<ele>69</ele>
						<time>2026-06-27T19:52:19Z</time>
					</trkpt>
					<trkpt lat="48.048560" lon="-4.550930">
						<ele>69</ele>
						<time>2026-06-27T19:52:23Z</time>
					</trkpt>
					<trkpt lat="48.048450" lon="-4.551520">
						<ele>71</ele>
						<time>2026-06-27T19:52:30Z</time>
					</trkpt>
					<trkpt lat="48.048310" lon="-4.552420">
						<ele>68</ele>
						<time>2026-06-27T19:52:41Z</time>
					</trkpt>
					<trkpt lat="48.048180" lon="-4.552940">
						<ele>67</ele>
						<time>2026-06-27T19:52:47Z</time>
					</trkpt>
					<trkpt lat="48.048180" lon="-4.552980">
						<ele>67</ele>
						<time>2026-06-27T19:52:48Z</time>
					</trkpt>
					<trkpt lat="48.048230" lon="-4.553020">
						<ele>66</ele>
						<time>2026-06-27T19:52:49Z</time>
					</trkpt>
					<trkpt lat="48.048460" lon="-4.553170">
						<ele>66</ele>
						<time>2026-06-27T19:52:53Z</time>
					</trkpt>
					<trkpt lat="48.049050" lon="-4.553480">
						<ele>66</ele>
						<time>2026-06-27T19:53:05Z</time>
					</trkpt>
					<trkpt lat="48.049450" lon="-4.553720">
						<ele>67</ele>
						<time>2026-06-27T19:53:12Z</time>
					</trkpt>
					<trkpt lat="48.049600" lon="-4.553750">
						<ele>68</ele>
						<time>2026-06-27T19:53:15Z</time>
					</trkpt>
					<trkpt lat="48.049760" lon="-4.553750">
						<ele>68</ele>
						<time>2026-06-27T19:53:18Z</time>
					</trkpt>
					<trkpt lat="48.050780" lon="-4.553540">
						<ele>73</ele>
						<time>2026-06-27T19:53:36Z</time>
					</trkpt>
					<trkpt lat="48.050990" lon="-4.553520">
						<ele>73</ele>
						<time>2026-06-27T19:53:40Z</time>
					</trkpt>
					<trkpt lat="48.051280" lon="-4.553540">
						<ele>74</ele>
						<time>2026-06-27T19:53:45Z</time>
					</trkpt>
					<trkpt lat="48.051380" lon="-4.553580">
						<ele>74</ele>
						<time>2026-06-27T19:53:47Z</time>
					</trkpt>
					<trkpt lat="48.051650" lon="-4.553730">
						<ele>74</ele>
						<time>2026-06-27T19:53:52Z</time>
					</trkpt>
					<trkpt lat="48.051740" lon="-4.553690">
						<ele>74</ele>
						<time>2026-06-27T19:53:54Z</time>
					</trkpt>
					<trkpt lat="48.052120" lon="-4.554030">
						<ele>75</ele>
						<time>2026-06-27T19:54:01Z</time>
					</trkpt>
					<trkpt lat="48.052560" lon="-4.554750">
						<ele>76</ele>
						<time>2026-06-27T19:54:13Z</time>
					</trkpt>
					<trkpt lat="48.052640" lon="-4.554910">
						<ele>76</ele>
						<time>2026-06-27T19:54:15Z</time>
					</trkpt>
					<trkpt lat="48.052950" lon="-4.555830">
						<ele>76</ele>
						<time>2026-06-27T19:54:28Z</time>
					</trkpt>
					<trkpt lat="48.053250" lon="-4.555820">
						<ele>77</ele>
						<time>2026-06-27T19:54:33Z</time>
					</trkpt>
					<trkpt lat="48.053530" lon="-4.555840">
						<ele>77</ele>
						<time>2026-06-27T19:54:38Z</time>
					</trkpt>
					<trkpt lat="48.053970" lon="-4.555900">
						<ele>75</ele>
						<time>2026-06-27T19:54:46Z</time>
					</trkpt>
					<trkpt lat="48.054440" lon="-4.555940">
						<ele>74</ele>
						<time>2026-06-27T19:54:54Z</time>
					</trkpt>
					<trkpt lat="48.055120" lon="-4.555890">
						<ele>74</ele>
						<time>2026-06-27T19:55:06Z</time>
					</trkpt>
					<trkpt lat="48.055390" lon="-4.555840">
						<ele>74</ele>
						<time>2026-06-27T19:55:11Z</time>
					</trkpt>
					<trkpt lat="48.055770" lon="-4.555850">
						<ele>74</ele>
						<time>2026-06-27T19:55:18Z</time>
					</trkpt>
					<trkpt lat="48.055850" lon="-4.555870">
						<ele>74</ele>
						<time>2026-06-27T19:55:19Z</time>
					</trkpt>
					<trkpt lat="48.055870" lon="-4.555850">
						<ele>74</ele>
						<time>2026-06-27T19:55:20Z</time>
					</trkpt>
					<trkpt lat="48.055900" lon="-4.555680">
						<ele>74</ele>
						<time>2026-06-27T19:55:22Z</time>
					</trkpt>
					<trkpt lat="48.056260" lon="-4.554350">
						<ele>76</ele>
						<time>2026-06-27T19:55:39Z</time>
					</trkpt>
					<trkpt lat="48.056340" lon="-4.554170">
						<ele>76</ele>
						<time>2026-06-27T19:55:42Z</time>
					</trkpt>
					<trkpt lat="48.056300" lon="-4.554110">
						<ele>76</ele>
						<time>2026-06-27T19:55:43Z</time>
					</trkpt>
					<trkpt lat="48.056160" lon="-4.553990">
						<ele>76</ele>
						<time>2026-06-27T19:55:45Z</time>
					</trkpt>
					<trkpt lat="48.055760" lon="-4.553810">
						<ele>76</ele>
						<time>2026-06-27T19:55:53Z</time>
					</trkpt>
					<trkpt lat="48.055630" lon="-4.553710">
						<ele>76</ele>
						<time>2026-06-27T19:55:55Z</time>
					</trkpt>
					<trkpt lat="48.055580" lon="-4.553640">
						<ele>76</ele>
						<time>2026-06-27T19:55:57Z</time>
					</trkpt>
					<trkpt lat="48.055550" lon="-4.553560">
						<ele>76</ele>
						<time>2026-06-27T19:55:58Z</time>
					</trkpt>
					<trkpt lat="48.055520" lon="-4.553370">
						<ele>77</ele>
						<time>2026-06-27T19:56:00Z</time>
					</trkpt>
					<trkpt lat="48.055520" lon="-4.553130">
						<ele>77</ele>
						<time>2026-06-27T19:56:03Z</time>
					</trkpt>
					<trkpt lat="48.055750" lon="-4.552100">
						<ele>79</ele>
						<time>2026-06-27T19:56:16Z</time>
					</trkpt>
					<trkpt lat="48.056250" lon="-4.549700">
						<ele>76</ele>
						<time>2026-06-27T19:56:46Z</time>
					</trkpt>
					<trkpt lat="48.056270" lon="-4.549350">
						<ele>75</ele>
						<time>2026-06-27T19:56:50Z</time>
					</trkpt>
					<trkpt lat="48.056250" lon="-4.546920">
						<ele>70</ele>
						<time>2026-06-27T19:57:19Z</time>
					</trkpt>
					<trkpt lat="48.056200" lon="-4.545270">
						<ele>67</ele>
						<time>2026-06-27T19:57:39Z</time>
					</trkpt>
					<trkpt lat="48.055850" lon="-4.541240">
						<ele>63</ele>
						<time>2026-06-27T19:58:27Z</time>
					</trkpt>
					<trkpt lat="48.055870" lon="-4.541220">
						<ele>63</ele>
						<time>2026-06-27T19:58:27Z</time>
					</trkpt>
					<trkpt lat="48.056350" lon="-4.541060">
						<ele>61</ele>
						<time>2026-06-27T19:58:36Z</time>
					</trkpt>
					<trkpt lat="48.056590" lon="-4.540960">
						<ele>60</ele>
						<time>2026-06-27T19:58:40Z</time>
					</trkpt>
					<trkpt lat="48.056780" lon="-4.540820">
						<ele>60</ele>
						<time>2026-06-27T19:58:44Z</time>
					</trkpt>
					<trkpt lat="48.057000" lon="-4.540600">
						<ele>60</ele>
						<time>2026-06-27T19:58:49Z</time>
					</trkpt>
					<trkpt lat="48.057170" lon="-4.540340">
						<ele>60</ele>
						<time>2026-06-27T19:58:53Z</time>
					</trkpt>
					<trkpt lat="48.057410" lon="-4.539860">
						<ele>61</ele>
						<time>2026-06-27T19:59:00Z</time>
					</trkpt>
					<trkpt lat="48.057840" lon="-4.538370">
						<ele>59</ele>
						<time>2026-06-27T19:59:20Z</time>
					</trkpt>
					<trkpt lat="48.057980" lon="-4.538060">
						<ele>59</ele>
						<time>2026-06-27T19:59:24Z</time>
					</trkpt>
					<trkpt lat="48.058260" lon="-4.537680">
						<ele>57</ele>
						<time>2026-06-27T19:59:31Z</time>
					</trkpt>
					<trkpt lat="48.060790" lon="-4.534870">
						<ele>54</ele>
						<time>2026-06-27T20:00:27Z</time>
					</trkpt>
					<trkpt lat="48.061390" lon="-4.534180">
						<ele>52</ele>
						<time>2026-06-27T20:00:40Z</time>
					</trkpt>
					<trkpt lat="48.061770" lon="-4.533700">
						<ele>52</ele>
						<time>2026-06-27T20:00:49Z</time>
					</trkpt>
					<trkpt lat="48.061950" lon="-4.533360">
						<ele>54</ele>
						<time>2026-06-27T20:00:54Z</time>
					</trkpt>
					<trkpt lat="48.062030" lon="-4.533100">
						<ele>54</ele>
						<time>2026-06-27T20:00:58Z</time>
					</trkpt>
					<trkpt lat="48.062120" lon="-4.532660">
						<ele>55</ele>
						<time>2026-06-27T20:01:03Z</time>
					</trkpt>
					<trkpt lat="48.062170" lon="-4.532070">
						<ele>53</ele>
						<time>2026-06-27T20:01:10Z</time>
					</trkpt>
					<trkpt lat="48.062220" lon="-4.531680">
						<ele>52</ele>
						<time>2026-06-27T20:01:15Z</time>
					</trkpt>
					<trkpt lat="48.062260" lon="-4.531500">
						<ele>52</ele>
						<time>2026-06-27T20:01:17Z</time>
					</trkpt>
					<trkpt lat="48.062370" lon="-4.531170">
						<ele>52</ele>
						<time>2026-06-27T20:01:22Z</time>
					</trkpt>
					<trkpt lat="48.062550" lon="-4.530840">
						<ele>53</ele>
						<time>2026-06-27T20:01:27Z</time>
					</trkpt>
					<trkpt lat="48.063160" lon="-4.530090">
						<ele>56</ele>
						<time>2026-06-27T20:01:41Z</time>
					</trkpt>
					<trkpt lat="48.063300" lon="-4.529990">
						<ele>57</ele>
						<time>2026-06-27T20:01:44Z</time>
					</trkpt>
					<trkpt lat="48.063480" lon="-4.529980">
						<ele>57</ele>
						<time>2026-06-27T20:01:47Z</time>
					</trkpt>
					<trkpt lat="48.064390" lon="-4.530160">
						<ele>60</ele>
						<time>2026-06-27T20:02:03Z</time>
					</trkpt>
					<trkpt lat="48.064770" lon="-4.530200">
						<ele>62</ele>
						<time>2026-06-27T20:02:10Z</time>
					</trkpt>
					<trkpt lat="48.065310" lon="-4.530200">
						<ele>64</ele>
						<time>2026-06-27T20:02:20Z</time>
					</trkpt>
					<trkpt lat="48.065520" lon="-4.530180">
						<ele>65</ele>
						<time>2026-06-27T20:02:23Z</time>
					</trkpt>
					<trkpt lat="48.065660" lon="-4.530150">
						<ele>66</ele>
						<time>2026-06-27T20:02:26Z</time>
					</trkpt>
					<trkpt lat="48.065860" lon="-4.530080">
						<ele>66</ele>
						<time>2026-06-27T20:02:29Z</time>
					</trkpt>
					<trkpt lat="48.066050" lon="-4.529980">
						<ele>67</ele>
						<time>2026-06-27T20:02:33Z</time>
					</trkpt>
					<trkpt lat="48.066220" lon="-4.529870">
						<ele>68</ele>
						<time>2026-06-27T20:02:36Z</time>
					</trkpt>
					<trkpt lat="48.066840" lon="-4.529370">
						<ele>70</ele>
						<time>2026-06-27T20:02:49Z</time>
					</trkpt>
					<trkpt lat="48.066980" lon="-4.529290">
						<ele>70</ele>
						<time>2026-06-27T20:02:51Z</time>
					</trkpt>
					<trkpt lat="48.067190" lon="-4.529230">
						<ele>71</ele>
						<time>2026-06-27T20:02:55Z</time>
					</trkpt>
					<trkpt lat="48.067500" lon="-4.529250">
						<ele>72</ele>
						<time>2026-06-27T20:03:01Z</time>
					</trkpt>
					<trkpt lat="48.067830" lon="-4.529390">
						<ele>73</ele>
						<time>2026-06-27T20:03:07Z</time>
					</trkpt>
					<trkpt lat="48.068420" lon="-4.529520">
						<ele>75</ele>
						<time>2026-06-27T20:03:18Z</time>
					</trkpt>
					<trkpt lat="48.068570" lon="-4.529530">
						<ele>75</ele>
						<time>2026-06-27T20:03:20Z</time>
					</trkpt>
					<trkpt lat="48.069080" lon="-4.529460">
						<ele>75</ele>
						<time>2026-06-27T20:03:29Z</time>
					</trkpt>
					<trkpt lat="48.070250" lon="-4.529130">
						<ele>79</ele>
						<time>2026-06-27T20:03:51Z</time>
					</trkpt>
					<trkpt lat="48.071070" lon="-4.528980">
						<ele>81</ele>
						<time>2026-06-27T20:04:05Z</time>
					</trkpt>
					<trkpt lat="48.071280" lon="-4.528920">
						<ele>82</ele>
						<time>2026-06-27T20:04:09Z</time>
					</trkpt>
					<trkpt lat="48.071520" lon="-4.528880">
						<ele>82</ele>
						<time>2026-06-27T20:04:13Z</time>
					</trkpt>
					<trkpt lat="48.071790" lon="-4.528870">
						<ele>83</ele>
						<time>2026-06-27T20:04:18Z</time>
					</trkpt>
					<trkpt lat="48.072070" lon="-4.528920">
						<ele>83</ele>
						<time>2026-06-27T20:04:23Z</time>
					</trkpt>
					<trkpt lat="48.073800" lon="-4.529140">
						<ele>83</ele>
						<time>2026-06-27T20:04:54Z</time>
					</trkpt>
					<trkpt lat="48.074120" lon="-4.529120">
						<ele>84</ele>
						<time>2026-06-27T20:05:00Z</time>
					</trkpt>
					<trkpt lat="48.074280" lon="-4.529130">
						<ele>84</ele>
						<time>2026-06-27T20:05:03Z</time>
					</trkpt>
					<trkpt lat="48.074310" lon="-4.529110">
						<ele>84</ele>
						<time>2026-06-27T20:05:03Z</time>
					</trkpt>
					<trkpt lat="48.074350" lon="-4.528600">
						<ele>83</ele>
						<time>2026-06-27T20:05:09Z</time>
					</trkpt>
					<trkpt lat="48.074440" lon="-4.527790">
						<ele>82</ele>
						<time>2026-06-27T20:05:19Z</time>
					</trkpt>
					<trkpt lat="48.074940" lon="-4.524120">
						<ele>80</ele>
						<time>2026-06-27T20:06:04Z</time>
					</trkpt>
					<trkpt lat="48.075130" lon="-4.523160">
						<ele>80</ele>
						<time>2026-06-27T20:06:15Z</time>
					</trkpt>
					<trkpt lat="48.075440" lon="-4.521810">
						<ele>79</ele>
						<time>2026-06-27T20:06:32Z</time>
					</trkpt>
					<trkpt lat="48.075700" lon="-4.520330">
						<ele>78</ele>
						<time>2026-06-27T20:06:51Z</time>
					</trkpt>
					<trkpt lat="48.075940" lon="-4.518680">
						<ele>78</ele>
						<time>2026-06-27T20:07:11Z</time>
					</trkpt>
					<trkpt lat="48.075960" lon="-4.518110">
						<ele>78</ele>
						<time>2026-06-27T20:07:17Z</time>
					</trkpt>
					<trkpt lat="48.075920" lon="-4.517780">
						<ele>77</ele>
						<time>2026-06-27T20:07:21Z</time>
					</trkpt>
					<trkpt lat="48.075650" lon="-4.516490">
						<ele>80</ele>
						<time>2026-06-27T20:07:38Z</time>
					</trkpt>
					<trkpt lat="48.075490" lon="-4.515620">
						<ele>84</ele>
						<time>2026-06-27T20:07:48Z</time>
					</trkpt>
					<trkpt lat="48.075420" lon="-4.515070">
						<ele>85</ele>
						<time>2026-06-27T20:07:55Z</time>
					</trkpt>
					<trkpt lat="48.075390" lon="-4.515020">
						<ele>85</ele>
						<time>2026-06-27T20:07:56Z</time>
					</trkpt>
					<trkpt lat="48.075350" lon="-4.514860">
						<ele>85</ele>
						<time>2026-06-27T20:07:58Z</time>
					</trkpt>
					<trkpt lat="48.075250" lon="-4.514730">
						<ele>85</ele>
						<time>2026-06-27T20:08:00Z</time>
					</trkpt>
					<trkpt lat="48.075240" lon="-4.514670">
						<ele>85</ele>
						<time>2026-06-27T20:08:01Z</time>
					</trkpt>
					<trkpt lat="48.075260" lon="-4.514570">
						<ele>85</ele>
						<time>2026-06-27T20:08:02Z</time>
					</trkpt>
					<trkpt lat="48.075350" lon="-4.514410">
						<ele>86</ele>
						<time>2026-06-27T20:08:05Z</time>
					</trkpt>
					<trkpt lat="48.075400" lon="-4.514280">
						<ele>86</ele>
						<time>2026-06-27T20:08:06Z</time>
					</trkpt>
					<trkpt lat="48.075550" lon="-4.513650">
						<ele>87</ele>
						<time>2026-06-27T20:08:14Z</time>
					</trkpt>
					<trkpt lat="48.075570" lon="-4.513390">
						<ele>87</ele>
						<time>2026-06-27T20:08:17Z</time>
					</trkpt>
					<trkpt lat="48.075550" lon="-4.511420">
						<ele>91</ele>
						<time>2026-06-27T20:08:41Z</time>
					</trkpt>
					<trkpt lat="48.075580" lon="-4.509370">
						<ele>85</ele>
						<time>2026-06-27T20:09:05Z</time>
					</trkpt>
					<trkpt lat="48.075570" lon="-4.508950">
						<ele>84</ele>
						<time>2026-06-27T20:09:10Z</time>
					</trkpt>
					<trkpt lat="48.075060" lon="-4.506910">
						<ele>81</ele>
						<time>2026-06-27T20:09:36Z</time>
					</trkpt>
					<trkpt lat="48.074950" lon="-4.506170">
						<ele>79</ele>
						<time>2026-06-27T20:09:45Z</time>
					</trkpt>
					<trkpt lat="48.074890" lon="-4.506030">
						<ele>78</ele>
						<time>2026-06-27T20:09:47Z</time>
					</trkpt>
					<trkpt lat="48.074940" lon="-4.505900">
						<ele>78</ele>
						<time>2026-06-27T20:09:49Z</time>
					</trkpt>
					<trkpt lat="48.074870" lon="-4.504380">
						<ele>77</ele>
						<time>2026-06-27T20:10:07Z</time>
					</trkpt>
					<trkpt lat="48.074910" lon="-4.503960">
						<ele>77</ele>
						<time>2026-06-27T20:10:12Z</time>
					</trkpt>
					<trkpt lat="48.075120" lon="-4.502890">
						<ele>80</ele>
						<time>2026-06-27T20:10:25Z</time>
					</trkpt>
					<trkpt lat="48.075150" lon="-4.502550">
						<ele>81</ele>
						<time>2026-06-27T20:10:29Z</time>
					</trkpt>
					<trkpt lat="48.074920" lon="-4.497250">
						<ele>89</ele>
						<time>2026-06-27T20:11:33Z</time>
					</trkpt>
					<trkpt lat="48.074920" lon="-4.496990">
						<ele>89</ele>
						<time>2026-06-27T20:11:36Z</time>
					</trkpt>
					<trkpt lat="48.074930" lon="-4.496810">
						<ele>89</ele>
						<time>2026-06-27T20:11:38Z</time>
					</trkpt>
					<trkpt lat="48.075010" lon="-4.496320">
						<ele>88</ele>
						<time>2026-06-27T20:11:44Z</time>
					</trkpt>
					<trkpt lat="48.075080" lon="-4.496010">
						<ele>86</ele>
						<time>2026-06-27T20:11:48Z</time>
					</trkpt>
					<trkpt lat="48.075230" lon="-4.495540">
						<ele>84</ele>
						<time>2026-06-27T20:11:54Z</time>
					</trkpt>
					<trkpt lat="48.074930" lon="-4.494880">
						<ele>82</ele>
						<time>2026-06-27T20:12:03Z</time>
					</trkpt>
					<trkpt lat="48.074710" lon="-4.494460">
						<ele>82</ele>
						<time>2026-06-27T20:12:10Z</time>
					</trkpt>
					<trkpt lat="48.074270" lon="-4.493010">
						<ele>80</ele>
						<time>2026-06-27T20:12:29Z</time>
					</trkpt>
					<trkpt lat="48.073950" lon="-4.492350">
						<ele>78</ele>
						<time>2026-06-27T20:12:38Z</time>
					</trkpt>
					<trkpt lat="48.073800" lon="-4.492000">
						<ele>78</ele>
						<time>2026-06-27T20:12:43Z</time>
					</trkpt>
					<trkpt lat="48.073690" lon="-4.491730">
						<ele>77</ele>
						<time>2026-06-27T20:12:47Z</time>
					</trkpt>
					<trkpt lat="48.073650" lon="-4.491600">
						<ele>77</ele>
						<time>2026-06-27T20:12:49Z</time>
					</trkpt>
					<trkpt lat="48.073640" lon="-4.491510">
						<ele>77</ele>
						<time>2026-06-27T20:12:50Z</time>
					</trkpt>
					<trkpt lat="48.073650" lon="-4.491450">
						<ele>77</ele>
						<time>2026-06-27T20:12:51Z</time>
					</trkpt>
					<trkpt lat="48.073690" lon="-4.491400">
						<ele>76</ele>
						<time>2026-06-27T20:12:51Z</time>
					</trkpt>
					<trkpt lat="48.074440" lon="-4.490750">
						<ele>73</ele>
						<time>2026-06-27T20:13:07Z</time>
					</trkpt>
					<trkpt lat="48.074690" lon="-4.490640">
						<ele>72</ele>
						<time>2026-06-27T20:13:11Z</time>
					</trkpt>
					<trkpt lat="48.074880" lon="-4.490610">
						<ele>71</ele>
						<time>2026-06-27T20:13:15Z</time>
					</trkpt>
					<trkpt lat="48.075210" lon="-4.490640">
						<ele>71</ele>
						<time>2026-06-27T20:13:21Z</time>
					</trkpt>
					<trkpt lat="48.075870" lon="-4.490790">
						<ele>70</ele>
						<time>2026-06-27T20:13:33Z</time>
					</trkpt>
					<trkpt lat="48.075910" lon="-4.490520">
						<ele>69</ele>
						<time>2026-06-27T20:13:36Z</time>
					</trkpt>
					<trkpt lat="48.076010" lon="-4.490070">
						<ele>67</ele>
						<time>2026-06-27T20:13:42Z</time>
					</trkpt>
					<trkpt lat="48.076070" lon="-4.489400">
						<ele>67</ele>
						<time>2026-06-27T20:13:50Z</time>
					</trkpt>
					<trkpt lat="48.076160" lon="-4.488940">
						<ele>66</ele>
						<time>2026-06-27T20:13:55Z</time>
					</trkpt>
					<trkpt lat="48.076310" lon="-4.488540">
						<ele>65</ele>
						<time>2026-06-27T20:14:01Z</time>
					</trkpt>
					<trkpt lat="48.076490" lon="-4.488130">
						<ele>64</ele>
						<time>2026-06-27T20:14:07Z</time>
					</trkpt>
					<trkpt lat="48.076900" lon="-4.487290">
						<ele>59</ele>
						<time>2026-06-27T20:14:19Z</time>
					</trkpt>
					<trkpt lat="48.077110" lon="-4.486700">
						<ele>58</ele>
						<time>2026-06-27T20:14:27Z</time>
					</trkpt>
					<trkpt lat="48.077250" lon="-4.486180">
						<ele>58</ele>
						<time>2026-06-27T20:14:34Z</time>
					</trkpt>
					<trkpt lat="48.077370" lon="-4.485650">
						<ele>58</ele>
						<time>2026-06-27T20:14:40Z</time>
					</trkpt>
					<trkpt lat="48.077580" lon="-4.485000">
						<ele>59</ele>
						<time>2026-06-27T20:14:49Z</time>
					</trkpt>
					<trkpt lat="48.078140" lon="-4.483500">
						<ele>64</ele>
						<time>2026-06-27T20:15:09Z</time>
					</trkpt>
					<trkpt lat="48.078190" lon="-4.483260">
						<ele>65</ele>
						<time>2026-06-27T20:15:12Z</time>
					</trkpt>
					<trkpt lat="48.078200" lon="-4.482820">
						<ele>66</ele>
						<time>2026-06-27T20:15:17Z</time>
					</trkpt>
					<trkpt lat="48.078190" lon="-4.482410">
						<ele>66</ele>
						<time>2026-06-27T20:15:22Z</time>
					</trkpt>
					<trkpt lat="48.078310" lon="-4.480880">
						<ele>67</ele>
						<time>2026-06-27T20:15:41Z</time>
					</trkpt>
					<trkpt lat="48.078300" lon="-4.480240">
						<ele>68</ele>
						<time>2026-06-27T20:15:48Z</time>
					</trkpt>
					<trkpt lat="48.078240" lon="-4.478760">
						<ele>71</ele>
						<time>2026-06-27T20:16:06Z</time>
					</trkpt>
					<trkpt lat="48.078280" lon="-4.477040">
						<ele>72</ele>
						<time>2026-06-27T20:16:26Z</time>
					</trkpt>
					<trkpt lat="48.078270" lon="-4.476750">
						<ele>72</ele>
						<time>2026-06-27T20:16:30Z</time>
					</trkpt>
					<trkpt lat="48.078200" lon="-4.476530">
						<ele>72</ele>
						<time>2026-06-27T20:16:33Z</time>
					</trkpt>
					<trkpt lat="48.078170" lon="-4.476360">
						<ele>72</ele>
						<time>2026-06-27T20:16:35Z</time>
					</trkpt>
					<trkpt lat="48.078050" lon="-4.476230">
						<ele>72</ele>
						<time>2026-06-27T20:16:37Z</time>
					</trkpt>
					<trkpt lat="48.077910" lon="-4.476130">
						<ele>72</ele>
						<time>2026-06-27T20:16:40Z</time>
					</trkpt>
					<trkpt lat="48.077700" lon="-4.476060">
						<ele>73</ele>
						<time>2026-06-27T20:16:44Z</time>
					</trkpt>
					<trkpt lat="48.077510" lon="-4.476030">
						<ele>73</ele>
						<time>2026-06-27T20:16:47Z</time>
					</trkpt>
					<trkpt lat="48.076630" lon="-4.475980">
						<ele>73</ele>
						<time>2026-06-27T20:17:03Z</time>
					</trkpt>
					<trkpt lat="48.076380" lon="-4.475930">
						<ele>73</ele>
						<time>2026-06-27T20:17:08Z</time>
					</trkpt>
					<trkpt lat="48.075420" lon="-4.475670">
						<ele>73</ele>
						<time>2026-06-27T20:17:25Z</time>
					</trkpt>
					<trkpt lat="48.073340" lon="-4.475200">
						<ele>78</ele>
						<time>2026-06-27T20:18:02Z</time>
					</trkpt>
					<trkpt lat="48.073300" lon="-4.475180">
						<ele>78</ele>
						<time>2026-06-27T20:18:03Z</time>
					</trkpt>
					<trkpt lat="48.073480" lon="-4.473450">
						<ele>78</ele>
						<time>2026-06-27T20:18:24Z</time>
					</trkpt>
					<trkpt lat="48.073600" lon="-4.471930">
						<ele>77</ele>
						<time>2026-06-27T20:18:42Z</time>
					</trkpt>
					<trkpt lat="48.073650" lon="-4.471470">
						<ele>77</ele>
						<time>2026-06-27T20:18:48Z</time>
					</trkpt>
					<trkpt lat="48.073670" lon="-4.470980">
						<ele>78</ele>
						<time>2026-06-27T20:18:53Z</time>
					</trkpt>
					<trkpt lat="48.073630" lon="-4.469840">
						<ele>78</ele>
						<time>2026-06-27T20:19:07Z</time>
					</trkpt>
					<trkpt lat="48.073470" lon="-4.468410">
						<ele>80</ele>
						<time>2026-06-27T20:19:24Z</time>
					</trkpt>
					<trkpt lat="48.073450" lon="-4.468060">
						<ele>80</ele>
						<time>2026-06-27T20:19:28Z</time>
					</trkpt>
					<trkpt lat="48.073450" lon="-4.467630">
						<ele>80</ele>
						<time>2026-06-27T20:19:34Z</time>
					</trkpt>
					<trkpt lat="48.073490" lon="-4.466400">
						<ele>80</ele>
						<time>2026-06-27T20:19:48Z</time>
					</trkpt>
					<trkpt lat="48.073530" lon="-4.466000">
						<ele>80</ele>
						<time>2026-06-27T20:19:53Z</time>
					</trkpt>
					<trkpt lat="48.074010" lon="-4.463240">
						<ele>79</ele>
						<time>2026-06-27T20:20:27Z</time>
					</trkpt>
					<trkpt lat="48.074540" lon="-4.458400">
						<ele>75</ele>
						<time>2026-06-27T20:21:25Z</time>
					</trkpt>
					<trkpt lat="48.074600" lon="-4.458040">
						<ele>74</ele>
						<time>2026-06-27T20:21:30Z</time>
					</trkpt>
					<trkpt lat="48.074850" lon="-4.456890">
						<ele>73</ele>
						<time>2026-06-27T20:21:44Z</time>
					</trkpt>
					<trkpt lat="48.075190" lon="-4.455670">
						<ele>70</ele>
						<time>2026-06-27T20:22:00Z</time>
					</trkpt>
					<trkpt lat="48.075320" lon="-4.455080">
						<ele>69</ele>
						<time>2026-06-27T20:22:07Z</time>
					</trkpt>
					<trkpt lat="48.075380" lon="-4.454710">
						<ele>69</ele>
						<time>2026-06-27T20:22:12Z</time>
					</trkpt>
					<trkpt lat="48.075510" lon="-4.453670">
						<ele>68</ele>
						<time>2026-06-27T20:22:24Z</time>
					</trkpt>
					<trkpt lat="48.075510" lon="-4.453150">
						<ele>67</ele>
						<time>2026-06-27T20:22:30Z</time>
					</trkpt>
					<trkpt lat="48.075310" lon="-4.453010">
						<ele>67</ele>
						<time>2026-06-27T20:22:34Z</time>
					</trkpt>
					<trkpt lat="48.072630" lon="-4.452470">
						<ele>68</ele>
						<time>2026-06-27T20:23:22Z</time>
					</trkpt>
					<trkpt lat="48.072340" lon="-4.452430">
						<ele>68</ele>
						<time>2026-06-27T20:23:28Z</time>
					</trkpt>
					<trkpt lat="48.072030" lon="-4.452440">
						<ele>69</ele>
						<time>2026-06-27T20:23:33Z</time>
					</trkpt>
					<trkpt lat="48.071820" lon="-4.452470">
						<ele>70</ele>
						<time>2026-06-27T20:23:37Z</time>
					</trkpt>
					<trkpt lat="48.071290" lon="-4.452610">
						<ele>69</ele>
						<time>2026-06-27T20:23:46Z</time>
					</trkpt>
					<trkpt lat="48.070840" lon="-4.452670">
						<ele>68</ele>
						<time>2026-06-27T20:23:55Z</time>
					</trkpt>
					<trkpt lat="48.070440" lon="-4.452640">
						<ele>67</ele>
						<time>2026-06-27T20:24:02Z</time>
					</trkpt>
					<trkpt lat="48.070210" lon="-4.452570">
						<ele>66</ele>
						<time>2026-06-27T20:24:06Z</time>
					</trkpt>
					<trkpt lat="48.069830" lon="-4.452380">
						<ele>64</ele>
						<time>2026-06-27T20:24:13Z</time>
					</trkpt>
					<trkpt lat="48.069350" lon="-4.452060">
						<ele>59</ele>
						<time>2026-06-27T20:24:22Z</time>
					</trkpt>
					<trkpt lat="48.068950" lon="-4.451620">
						<ele>56</ele>
						<time>2026-06-27T20:24:31Z</time>
					</trkpt>
					<trkpt lat="48.068520" lon="-4.450970">
						<ele>54</ele>
						<time>2026-06-27T20:24:42Z</time>
					</trkpt>
					<trkpt lat="48.065120" lon="-4.445340">
						<ele>51</ele>
						<time>2026-06-27T20:26:12Z</time>
					</trkpt>
					<trkpt lat="48.065020" lon="-4.445180">
						<ele>50</ele>
						<time>2026-06-27T20:26:15Z</time>
					</trkpt>
					<trkpt lat="48.064810" lon="-4.444900">
						<ele>48</ele>
						<time>2026-06-27T20:26:20Z</time>
					</trkpt>
					<trkpt lat="48.064700" lon="-4.444770">
						<ele>47</ele>
						<time>2026-06-27T20:26:22Z</time>
					</trkpt>
					<trkpt lat="48.064440" lon="-4.444520">
						<ele>45</ele>
						<time>2026-06-27T20:26:28Z</time>
					</trkpt>
					<trkpt lat="48.061270" lon="-4.441920">
						<ele>28</ele>
						<time>2026-06-27T20:27:32Z</time>
					</trkpt>
					<trkpt lat="48.060590" lon="-4.441390">
						<ele>29</ele>
						<time>2026-06-27T20:27:46Z</time>
					</trkpt>
					<trkpt lat="48.060200" lon="-4.441160">
						<ele>30</ele>
						<time>2026-06-27T20:27:53Z</time>
					</trkpt>
					<trkpt lat="48.059620" lon="-4.440890">
						<ele>33</ele>
						<time>2026-06-27T20:28:04Z</time>
					</trkpt>
					<trkpt lat="48.058970" lon="-4.440480">
						<ele>40</ele>
						<time>2026-06-27T20:28:17Z</time>
					</trkpt>
					<trkpt lat="48.058440" lon="-4.440100">
						<ele>47</ele>
						<time>2026-06-27T20:28:27Z</time>
					</trkpt>
					<trkpt lat="48.058160" lon="-4.439810">
						<ele>49</ele>
						<time>2026-06-27T20:28:33Z</time>
					</trkpt>
					<trkpt lat="48.057540" lon="-4.438530">
						<ele>52</ele>
						<time>2026-06-27T20:28:52Z</time>
					</trkpt>
					<trkpt lat="48.056510" lon="-4.436490">
						<ele>53</ele>
						<time>2026-06-27T20:29:22Z</time>
					</trkpt>
					<trkpt lat="48.056300" lon="-4.436170">
						<ele>53</ele>
						<time>2026-06-27T20:29:28Z</time>
					</trkpt>
					<trkpt lat="48.056030" lon="-4.435870">
						<ele>53</ele>
						<time>2026-06-27T20:29:34Z</time>
					</trkpt>
					<trkpt lat="48.055870" lon="-4.435740">
						<ele>53</ele>
						<time>2026-06-27T20:29:37Z</time>
					</trkpt>
					<trkpt lat="48.055760" lon="-4.435670">
						<ele>53</ele>
						<time>2026-06-27T20:29:39Z</time>
					</trkpt>
					<trkpt lat="48.055470" lon="-4.437250">
						<ele>48</ele>
						<time>2026-06-27T20:29:59Z</time>
					</trkpt>
					<trkpt lat="48.055300" lon="-4.438270">
						<ele>48</ele>
						<time>2026-06-27T20:30:11Z</time>
					</trkpt>
					<trkpt lat="48.055300" lon="-4.438390">
						<ele>48</ele>
						<time>2026-06-27T20:30:12Z</time>
					</trkpt>
					<trkpt lat="48.055340" lon="-4.438670">
						<ele>47</ele>
						<time>2026-06-27T20:30:16Z</time>
					</trkpt>
					<trkpt lat="48.055480" lon="-4.439080">
						<ele>47</ele>
						<time>2026-06-27T20:30:21Z</time>
					</trkpt>
					<trkpt lat="48.057070" lon="-4.442840">
						<ele>39</ele>
						<time>2026-06-27T20:31:14Z</time>
					</trkpt>
					<trkpt lat="48.057210" lon="-4.443370">
						<ele>37</ele>
						<time>2026-06-27T20:31:21Z</time>
					</trkpt>
					<trkpt lat="48.056760" lon="-4.443430">
						<ele>37</ele>
						<time>2026-06-27T20:31:29Z</time>
					</trkpt>
					<trkpt lat="48.052660" lon="-4.444490">
						<ele>52</ele>
						<time>2026-06-27T20:32:43Z</time>
					</trkpt>
					<trkpt lat="48.051640" lon="-4.444580">
						<ele>60</ele>
						<time>2026-06-27T20:33:01Z</time>
					</trkpt>
					<trkpt lat="48.050860" lon="-4.444630">
						<ele>63</ele>
						<time>2026-06-27T20:33:15Z</time>
					</trkpt>
					<trkpt lat="48.050730" lon="-4.449530">
						<ele>63</ele>
						<time>2026-06-27T20:34:13Z</time>
					</trkpt>
					<trkpt lat="48.050760" lon="-4.450060">
						<ele>64</ele>
						<time>2026-06-27T20:34:20Z</time>
					</trkpt>
					<trkpt lat="48.051200" lon="-4.453770">
						<ele>53</ele>
						<time>2026-06-27T20:35:05Z</time>
					</trkpt>
					<trkpt lat="48.049960" lon="-4.454010">
						<ele>54</ele>
						<time>2026-06-27T20:35:27Z</time>
					</trkpt>
					<trkpt lat="48.049530" lon="-4.454060">
						<ele>56</ele>
						<time>2026-06-27T20:35:35Z</time>
					</trkpt>
					<trkpt lat="48.049150" lon="-4.454040">
						<ele>58</ele>
						<time>2026-06-27T20:35:41Z</time>
					</trkpt>
					<trkpt lat="48.048960" lon="-4.454000">
						<ele>58</ele>
						<time>2026-06-27T20:35:45Z</time>
					</trkpt>
					<trkpt lat="48.048620" lon="-4.453980">
						<ele>57</ele>
						<time>2026-06-27T20:35:51Z</time>
					</trkpt>
					<trkpt lat="48.048130" lon="-4.453820">
						<ele>57</ele>
						<time>2026-06-27T20:36:00Z</time>
					</trkpt>
					<trkpt lat="48.047470" lon="-4.453570">
						<ele>57</ele>
						<time>2026-06-27T20:36:12Z</time>
					</trkpt>
					<trkpt lat="48.046550" lon="-4.453160">
						<ele>54</ele>
						<time>2026-06-27T20:36:29Z</time>
					</trkpt>
					<trkpt lat="48.046050" lon="-4.452910">
						<ele>52</ele>
						<time>2026-06-27T20:36:38Z</time>
					</trkpt>
					<trkpt lat="48.044070" lon="-4.451700">
						<ele>39</ele>
						<time>2026-06-27T20:37:16Z</time>
					</trkpt>
					<trkpt lat="48.044050" lon="-4.451700">
						<ele>39</ele>
						<time>2026-06-27T20:37:17Z</time>
					</trkpt>
					<trkpt lat="48.043840" lon="-4.452060">
						<ele>38</ele>
						<time>2026-06-27T20:37:22Z</time>
					</trkpt>
					<trkpt lat="48.043530" lon="-4.452440">
						<ele>37</ele>
						<time>2026-06-27T20:37:30Z</time>
					</trkpt>
					<trkpt lat="48.042810" lon="-4.453250">
						<ele>30</ele>
						<time>2026-06-27T20:37:46Z</time>
					</trkpt>
					<trkpt lat="48.042730" lon="-4.453380">
						<ele>29</ele>
						<time>2026-06-27T20:37:48Z</time>
					</trkpt>
					<trkpt lat="48.042720" lon="-4.453360">
						<ele>29</ele>
						<time>2026-06-27T20:37:48Z</time>
					</trkpt>
					<trkpt lat="48.042680" lon="-4.452960">
						<ele>28</ele>
						<time>2026-06-27T20:37:53Z</time>
					</trkpt>
					<trkpt lat="48.042650" lon="-4.452280">
						<ele>27</ele>
						<time>2026-06-27T20:38:01Z</time>
					</trkpt>
					<trkpt lat="48.042660" lon="-4.451810">
						<ele>25</ele>
						<time>2026-06-27T20:38:06Z</time>
					</trkpt>
					<trkpt lat="48.042680" lon="-4.451610">
						<ele>24</ele>
						<time>2026-06-27T20:38:09Z</time>
					</trkpt>
					<trkpt lat="48.042720" lon="-4.451450">
						<ele>24</ele>
						<time>2026-06-27T20:38:11Z</time>
					</trkpt>
					<trkpt lat="48.042870" lon="-4.451310">
						<ele>26</ele>
						<time>2026-06-27T20:38:14Z</time>
					</trkpt>
					<trkpt lat="48.042930" lon="-4.451180">
						<ele>26</ele>
						<time>2026-06-27T20:38:16Z</time>
					</trkpt>
					<trkpt lat="48.042950" lon="-4.451010">
						<ele>26</ele>
						<time>2026-06-27T20:38:18Z</time>
					</trkpt>
					<trkpt lat="48.042910" lon="-4.450600">
						<ele>24</ele>
						<time>2026-06-27T20:38:23Z</time>
					</trkpt>
					<trkpt lat="48.042870" lon="-4.448670">
						<ele>19</ele>
						<time>2026-06-27T20:38:46Z</time>
					</trkpt>
					<trkpt lat="48.042840" lon="-4.448320">
						<ele>18</ele>
						<time>2026-06-27T20:38:50Z</time>
					</trkpt>
					<trkpt lat="48.042580" lon="-4.447660">
						<ele>15</ele>
						<time>2026-06-27T20:38:59Z</time>
					</trkpt>
					<trkpt lat="48.042500" lon="-4.447390">
						<ele>14</ele>
						<time>2026-06-27T20:39:03Z</time>
					</trkpt>
					<trkpt lat="48.042440" lon="-4.446630">
						<ele>14</ele>
						<time>2026-06-27T20:39:12Z</time>
					</trkpt>
					<trkpt lat="48.042350" lon="-4.446050">
						<ele>14</ele>
						<time>2026-06-27T20:39:19Z</time>
					</trkpt>
					<trkpt lat="48.042230" lon="-4.445510">
						<ele>15</ele>
						<time>2026-06-27T20:39:26Z</time>
					</trkpt>
					<trkpt lat="48.042160" lon="-4.445110">
						<ele>15</ele>
						<time>2026-06-27T20:39:31Z</time>
					</trkpt>
					<trkpt lat="48.042090" lon="-4.444400">
						<ele>16</ele>
						<time>2026-06-27T20:39:39Z</time>
					</trkpt>
					<trkpt lat="48.042030" lon="-4.443240">
						<ele>15</ele>
						<time>2026-06-27T20:39:53Z</time>
					</trkpt>
					<trkpt lat="48.042040" lon="-4.442700">
						<ele>15</ele>
						<time>2026-06-27T20:39:59Z</time>
					</trkpt>
					<trkpt lat="48.042010" lon="-4.442380">
						<ele>15</ele>
						<time>2026-06-27T20:40:03Z</time>
					</trkpt>
					<trkpt lat="48.041970" lon="-4.441320">
						<ele>14</ele>
						<time>2026-06-27T20:40:16Z</time>
					</trkpt>
					<trkpt lat="48.041980" lon="-4.441290">
						<ele>14</ele>
						<time>2026-06-27T20:40:16Z</time>
					</trkpt>
					<trkpt lat="48.042500" lon="-4.441470">
						<ele>18</ele>
						<time>2026-06-27T20:40:26Z</time>
					</trkpt>
					<trkpt lat="48.042760" lon="-4.441620">
						<ele>24</ele>
						<time>2026-06-27T20:40:31Z</time>
					</trkpt>
					<trkpt lat="48.042900" lon="-4.441820">
						<ele>27</ele>
						<time>2026-06-27T20:40:34Z</time>
					</trkpt>
					<trkpt lat="48.043100" lon="-4.442170">
						<ele>30</ele>
						<time>2026-06-27T20:40:40Z</time>
					</trkpt>
					<trkpt lat="48.043770" lon="-4.443640">
						<ele>36</ele>
						<time>2026-06-27T20:41:01Z</time>
					</trkpt>
					<trkpt lat="48.044000" lon="-4.444070">
						<ele>37</ele>
						<time>2026-06-27T20:41:07Z</time>
					</trkpt>
					<trkpt lat="48.044370" lon="-4.444310">
						<ele>38</ele>
						<time>2026-06-27T20:41:15Z</time>
					</trkpt>
					<trkpt lat="48.044540" lon="-4.444400">
						<ele>37</ele>
						<time>2026-06-27T20:41:18Z</time>
					</trkpt>
					<trkpt lat="48.044700" lon="-4.444440">
						<ele>37</ele>
						<time>2026-06-27T20:41:21Z</time>
					</trkpt>
					<trkpt lat="48.044800" lon="-4.444400">
						<ele>37</ele>
						<time>2026-06-27T20:41:22Z</time>
					</trkpt>
					<trkpt lat="48.044900" lon="-4.444300">
						<ele>38</ele>
						<time>2026-06-27T20:41:25Z</time>
					</trkpt>
					<trkpt lat="48.044950" lon="-4.444220">
						<ele>39</ele>
						<time>2026-06-27T20:41:26Z</time>
					</trkpt>
					<trkpt lat="48.044970" lon="-4.444080">
						<ele>39</ele>
						<time>2026-06-27T20:41:28Z</time>
					</trkpt>
					<trkpt lat="48.044970" lon="-4.443580">
						<ele>41</ele>
						<time>2026-06-27T20:41:34Z</time>
					</trkpt>
					<trkpt lat="48.044930" lon="-4.443110">
						<ele>43</ele>
						<time>2026-06-27T20:41:39Z</time>
					</trkpt>
					<trkpt lat="48.044930" lon="-4.442640">
						<ele>44</ele>
						<time>2026-06-27T20:41:45Z</time>
					</trkpt>
					<trkpt lat="48.044960" lon="-4.442220">
						<ele>46</ele>
						<time>2026-06-27T20:41:50Z</time>
					</trkpt>
					<trkpt lat="48.045010" lon="-4.441790">
						<ele>48</ele>
						<time>2026-06-27T20:41:55Z</time>
					</trkpt>
					<trkpt lat="48.045110" lon="-4.441330">
						<ele>48</ele>
						<time>2026-06-27T20:42:01Z</time>
					</trkpt>
					<trkpt lat="48.045310" lon="-4.439690">
						<ele>42</ele>
						<time>2026-06-27T20:42:21Z</time>
					</trkpt>
					<trkpt lat="48.045400" lon="-4.439140">
						<ele>40</ele>
						<time>2026-06-27T20:42:27Z</time>
					</trkpt>
					<trkpt lat="48.045580" lon="-4.438300">
						<ele>36</ele>
						<time>2026-06-27T20:42:38Z</time>
					</trkpt>
					<trkpt lat="48.045640" lon="-4.437770">
						<ele>37</ele>
						<time>2026-06-27T20:42:44Z</time>
					</trkpt>
					<trkpt lat="48.045660" lon="-4.437190">
						<ele>37</ele>
						<time>2026-06-27T20:42:51Z</time>
					</trkpt>
					<trkpt lat="48.045610" lon="-4.436720">
						<ele>36</ele>
						<time>2026-06-27T20:42:57Z</time>
					</trkpt>
					<trkpt lat="48.045430" lon="-4.435670">
						<ele>33</ele>
						<time>2026-06-27T20:43:10Z</time>
					</trkpt>
					<trkpt lat="48.045380" lon="-4.434200">
						<ele>36</ele>
						<time>2026-06-27T20:43:27Z</time>
					</trkpt>
					<trkpt lat="48.045300" lon="-4.433140">
						<ele>39</ele>
						<time>2026-06-27T20:43:40Z</time>
					</trkpt>
					<trkpt lat="48.045320" lon="-4.432840">
						<ele>40</ele>
						<time>2026-06-27T20:43:43Z</time>
					</trkpt>
					<trkpt lat="48.045400" lon="-4.432420">
						<ele>41</ele>
						<time>2026-06-27T20:43:49Z</time>
					</trkpt>
					<trkpt lat="48.045560" lon="-4.432000">
						<ele>43</ele>
						<time>2026-06-27T20:43:54Z</time>
					</trkpt>
					<trkpt lat="48.045650" lon="-4.431810">
						<ele>44</ele>
						<time>2026-06-27T20:43:57Z</time>
					</trkpt>
					<trkpt lat="48.045670" lon="-4.431730">
						<ele>44</ele>
						<time>2026-06-27T20:43:58Z</time>
					</trkpt>
					<trkpt lat="48.044560" lon="-4.430620">
						<ele>42</ele>
						<time>2026-06-27T20:44:22Z</time>
					</trkpt>
					<trkpt lat="48.044180" lon="-4.430260">
						<ele>43</ele>
						<time>2026-06-27T20:44:30Z</time>
					</trkpt>
					<trkpt lat="48.043510" lon="-4.429560">
						<ele>42</ele>
						<time>2026-06-27T20:44:44Z</time>
					</trkpt>
					<trkpt lat="48.043430" lon="-4.429490">
						<ele>42</ele>
						<time>2026-06-27T20:44:46Z</time>
					</trkpt>
					<trkpt lat="48.043370" lon="-4.429460">
						<ele>42</ele>
						<time>2026-06-27T20:44:47Z</time>
					</trkpt>
					<trkpt lat="48.043380" lon="-4.429340">
						<ele>43</ele>
						<time>2026-06-27T20:44:49Z</time>
					</trkpt>
					<trkpt lat="48.043420" lon="-4.429230">
						<ele>43</ele>
						<time>2026-06-27T20:44:50Z</time>
					</trkpt>
					<trkpt lat="48.043480" lon="-4.429140">
						<ele>43</ele>
						<time>2026-06-27T20:44:52Z</time>
					</trkpt>
					<trkpt lat="48.043850" lon="-4.428710">
						<ele>44</ele>
						<time>2026-06-27T20:45:00Z</time>
					</trkpt>
					<trkpt lat="48.043970" lon="-4.428540">
						<ele>44</ele>
						<time>2026-06-27T20:45:03Z</time>
					</trkpt>
					<trkpt lat="48.044170" lon="-4.428200">
						<ele>44</ele>
						<time>2026-06-27T20:45:08Z</time>
					</trkpt>
					<trkpt lat="48.044250" lon="-4.428140">
						<ele>43</ele>
						<time>2026-06-27T20:45:10Z</time>
					</trkpt>
					<trkpt lat="48.044370" lon="-4.428140">
						<ele>43</ele>
						<time>2026-06-27T20:45:12Z</time>
					</trkpt>
					<trkpt lat="48.045470" lon="-4.428600">
						<ele>40</ele>
						<time>2026-06-27T20:45:32Z</time>
					</trkpt>
					<trkpt lat="48.045490" lon="-4.428590">
						<ele>40</ele>
						<time>2026-06-27T20:45:33Z</time>
					</trkpt>
					<trkpt lat="48.045950" lon="-4.426620">
						<ele>34</ele>
						<time>2026-06-27T20:45:58Z</time>
					</trkpt>
					<trkpt lat="48.046360" lon="-4.424960">
						<ele>37</ele>
						<time>2026-06-27T20:46:19Z</time>
					</trkpt>
					<trkpt lat="48.046390" lon="-4.424630">
						<ele>39</ele>
						<time>2026-06-27T20:46:23Z</time>
					</trkpt>
					<trkpt lat="48.046720" lon="-4.423010">
						<ele>48</ele>
						<time>2026-06-27T20:46:43Z</time>
					</trkpt>
					<trkpt lat="48.046780" lon="-4.422950">
						<ele>48</ele>
						<time>2026-06-27T20:46:44Z</time>
					</trkpt>
					<trkpt lat="48.046960" lon="-4.422940">
						<ele>50</ele>
						<time>2026-06-27T20:46:47Z</time>
					</trkpt>
					<trkpt lat="48.047180" lon="-4.422850">
						<ele>51</ele>
						<time>2026-06-27T20:46:51Z</time>
					</trkpt>
					<trkpt lat="48.047280" lon="-4.422830">
						<ele>52</ele>
						<time>2026-06-27T20:46:53Z</time>
					</trkpt>
					<trkpt lat="48.047580" lon="-4.422820">
						<ele>53</ele>
						<time>2026-06-27T20:46:58Z</time>
					</trkpt>
					<trkpt lat="48.047760" lon="-4.422760">
						<ele>53</ele>
						<time>2026-06-27T20:47:02Z</time>
					</trkpt>
					<trkpt lat="48.047980" lon="-4.422560">
						<ele>52</ele>
						<time>2026-06-27T20:47:06Z</time>
					</trkpt>
					<trkpt lat="48.048050" lon="-4.422420">
						<ele>51</ele>
						<time>2026-06-27T20:47:08Z</time>
					</trkpt>
					<trkpt lat="48.047500" lon="-4.421510">
						<ele>47</ele>
						<time>2026-06-27T20:47:23Z</time>
					</trkpt>
					<trkpt lat="48.047160" lon="-4.420910">
						<ele>43</ele>
						<time>2026-06-27T20:47:32Z</time>
					</trkpt>
					<trkpt lat="48.047030" lon="-4.420640">
						<ele>41</ele>
						<time>2026-06-27T20:47:36Z</time>
					</trkpt>
					<trkpt lat="48.046790" lon="-4.420060">
						<ele>38</ele>
						<time>2026-06-27T20:47:44Z</time>
					</trkpt>
					<trkpt lat="48.046680" lon="-4.419870">
						<ele>37</ele>
						<time>2026-06-27T20:47:47Z</time>
					</trkpt>
					<trkpt lat="48.046120" lon="-4.419150">
						<ele>32</ele>
						<time>2026-06-27T20:48:01Z</time>
					</trkpt>
					<trkpt lat="48.045990" lon="-4.419020">
						<ele>31</ele>
						<time>2026-06-27T20:48:03Z</time>
					</trkpt>
					<trkpt lat="48.045370" lon="-4.418510">
						<ele>27</ele>
						<time>2026-06-27T20:48:16Z</time>
					</trkpt>
					<trkpt lat="48.045100" lon="-4.418250">
						<ele>26</ele>
						<time>2026-06-27T20:48:22Z</time>
					</trkpt>
					<trkpt lat="48.044860" lon="-4.418000">
						<ele>26</ele>
						<time>2026-06-27T20:48:27Z</time>
					</trkpt>
					<trkpt lat="48.044740" lon="-4.417800">
						<ele>26</ele>
						<time>2026-06-27T20:48:30Z</time>
					</trkpt>
					<trkpt lat="48.044570" lon="-4.417370">
						<ele>25</ele>
						<time>2026-06-27T20:48:36Z</time>
					</trkpt>
					<trkpt lat="48.044510" lon="-4.417170">
						<ele>25</ele>
						<time>2026-06-27T20:48:39Z</time>
					</trkpt>
					<trkpt lat="48.044350" lon="-4.416830">
						<ele>24</ele>
						<time>2026-06-27T20:48:44Z</time>
					</trkpt>
					<trkpt lat="48.044060" lon="-4.416290">
						<ele>22</ele>
						<time>2026-06-27T20:48:52Z</time>
					</trkpt>
					<trkpt lat="48.044010" lon="-4.416120">
						<ele>23</ele>
						<time>2026-06-27T20:48:54Z</time>
					</trkpt>
					<trkpt lat="48.043980" lon="-4.415860">
						<ele>23</ele>
						<time>2026-06-27T20:48:57Z</time>
					</trkpt>
					<trkpt lat="48.043980" lon="-4.415710">
						<ele>23</ele>
						<time>2026-06-27T20:48:59Z</time>
					</trkpt>
					<trkpt lat="48.044010" lon="-4.415480">
						<ele>23</ele>
						<time>2026-06-27T20:49:02Z</time>
					</trkpt>
					<trkpt lat="48.043500" lon="-4.415150">
						<ele>22</ele>
						<time>2026-06-27T20:49:12Z</time>
					</trkpt>
					<trkpt lat="48.043420" lon="-4.415080">
						<ele>21</ele>
						<time>2026-06-27T20:49:13Z</time>
					</trkpt>
					<trkpt lat="48.042380" lon="-4.414680">
						<ele>30</ele>
						<time>2026-06-27T20:49:32Z</time>
					</trkpt>
					<trkpt lat="48.041990" lon="-4.414540">
						<ele>38</ele>
						<time>2026-06-27T20:49:39Z</time>
					</trkpt>
					<trkpt lat="48.041430" lon="-4.414440">
						<ele>45</ele>
						<time>2026-06-27T20:49:49Z</time>
					</trkpt>
					<trkpt lat="48.041120" lon="-4.414420">
						<ele>46</ele>
						<time>2026-06-27T20:49:55Z</time>
					</trkpt>
					<trkpt lat="48.040930" lon="-4.413880">
						<ele>47</ele>
						<time>2026-06-27T20:50:02Z</time>
					</trkpt>
					<trkpt lat="48.040640" lon="-4.412500">
						<ele>49</ele>
						<time>2026-06-27T20:50:19Z</time>
					</trkpt>
					<trkpt lat="48.040260" lon="-4.410560">
						<ele>50</ele>
						<time>2026-06-27T20:50:44Z</time>
					</trkpt>
					<trkpt lat="48.040110" lon="-4.408870">
						<ele>53</ele>
						<time>2026-06-27T20:51:04Z</time>
					</trkpt>
					<trkpt lat="48.039880" lon="-4.406190">
						<ele>54</ele>
						<time>2026-06-27T20:51:36Z</time>
					</trkpt>
					<trkpt lat="48.039820" lon="-4.404780">
						<ele>55</ele>
						<time>2026-06-27T20:51:53Z</time>
					</trkpt>
					<trkpt lat="48.039830" lon="-4.404010">
						<ele>55</ele>
						<time>2026-06-27T20:52:02Z</time>
					</trkpt>
					<trkpt lat="48.039820" lon="-4.403230">
						<ele>56</ele>
						<time>2026-06-27T20:52:11Z</time>
					</trkpt>
					<trkpt lat="48.039870" lon="-4.399790">
						<ele>62</ele>
						<time>2026-06-27T20:52:52Z</time>
					</trkpt>
					<trkpt lat="48.039700" lon="-4.398120">
						<ele>64</ele>
						<time>2026-06-27T20:53:12Z</time>
					</trkpt>
					<trkpt lat="48.039530" lon="-4.396180">
						<ele>63</ele>
						<time>2026-06-27T20:53:36Z</time>
					</trkpt>
					<trkpt lat="48.039370" lon="-4.395540">
						<ele>64</ele>
						<time>2026-06-27T20:53:44Z</time>
					</trkpt>
					<trkpt lat="48.039280" lon="-4.395090">
						<ele>64</ele>
						<time>2026-06-27T20:53:49Z</time>
					</trkpt>
					<trkpt lat="48.039060" lon="-4.393270">
						<ele>64</ele>
						<time>2026-06-27T20:54:11Z</time>
					</trkpt>
					<trkpt lat="48.038970" lon="-4.392140">
						<ele>62</ele>
						<time>2026-06-27T20:54:25Z</time>
					</trkpt>
					<trkpt lat="48.038930" lon="-4.391130">
						<ele>61</ele>
						<time>2026-06-27T20:54:37Z</time>
					</trkpt>
					<trkpt lat="48.038930" lon="-4.390850">
						<ele>60</ele>
						<time>2026-06-27T20:54:40Z</time>
					</trkpt>
					<trkpt lat="48.038980" lon="-4.390180">
						<ele>60</ele>
						<time>2026-06-27T20:54:48Z</time>
					</trkpt>
					<trkpt lat="48.038960" lon="-4.389780">
						<ele>60</ele>
						<time>2026-06-27T20:54:53Z</time>
					</trkpt>
					<trkpt lat="48.038930" lon="-4.389600">
						<ele>60</ele>
						<time>2026-06-27T20:54:55Z</time>
					</trkpt>
					<trkpt lat="48.038810" lon="-4.389190">
						<ele>60</ele>
						<time>2026-06-27T20:55:00Z</time>
					</trkpt>
					<trkpt lat="48.038720" lon="-4.388710">
						<ele>58</ele>
						<time>2026-06-27T20:55:06Z</time>
					</trkpt>
					<trkpt lat="48.038510" lon="-4.388860">
						<ele>58</ele>
						<time>2026-06-27T20:55:11Z</time>
					</trkpt>
					<trkpt lat="48.038050" lon="-4.389280">
						<ele>56</ele>
						<time>2026-06-27T20:55:20Z</time>
					</trkpt>
					<trkpt lat="48.037550" lon="-4.389790">
						<ele>52</ele>
						<time>2026-06-27T20:55:31Z</time>
					</trkpt>
					<trkpt lat="48.037260" lon="-4.390200">
						<ele>48</ele>
						<time>2026-06-27T20:55:38Z</time>
					</trkpt>
					<trkpt lat="48.037090" lon="-4.390570">
						<ele>44</ele>
						<time>2026-06-27T20:55:43Z</time>
					</trkpt>
					<trkpt lat="48.036970" lon="-4.391010">
						<ele>42</ele>
						<time>2026-06-27T20:55:49Z</time>
					</trkpt>
					<trkpt lat="48.036870" lon="-4.391600">
						<ele>40</ele>
						<time>2026-06-27T20:55:56Z</time>
					</trkpt>
					<trkpt lat="48.036800" lon="-4.392480">
						<ele>38</ele>
						<time>2026-06-27T20:56:07Z</time>
					</trkpt>
					<trkpt lat="48.036710" lon="-4.393170">
						<ele>35</ele>
						<time>2026-06-27T20:56:15Z</time>
					</trkpt>
					<trkpt lat="48.036500" lon="-4.394020">
						<ele>30</ele>
						<time>2026-06-27T20:56:26Z</time>
					</trkpt>
					<trkpt lat="48.036310" lon="-4.394360">
						<ele>27</ele>
						<time>2026-06-27T20:56:31Z</time>
					</trkpt>
					<trkpt lat="48.036080" lon="-4.394650">
						<ele>23</ele>
						<time>2026-06-27T20:56:37Z</time>
					</trkpt>
					<trkpt lat="48.034910" lon="-4.395930">
						<ele>25</ele>
						<time>2026-06-27T20:57:02Z</time>
					</trkpt>
					<trkpt lat="48.034720" lon="-4.396180">
						<ele>29</ele>
						<time>2026-06-27T20:57:07Z</time>
					</trkpt>
					<trkpt lat="48.034270" lon="-4.396880">
						<ele>37</ele>
						<time>2026-06-27T20:57:18Z</time>
					</trkpt>
					<trkpt lat="48.033420" lon="-4.397460">
						<ele>45</ele>
						<time>2026-06-27T20:57:35Z</time>
					</trkpt>
					<trkpt lat="48.032900" lon="-4.397910">
						<ele>47</ele>
						<time>2026-06-27T20:57:46Z</time>
					</trkpt>
					<trkpt lat="48.032290" lon="-4.398520">
						<ele>52</ele>
						<time>2026-06-27T20:57:59Z</time>
					</trkpt>
					<trkpt lat="48.031870" lon="-4.398900">
						<ele>54</ele>
						<time>2026-06-27T20:58:07Z</time>
					</trkpt>
					<trkpt lat="48.031540" lon="-4.399270">
						<ele>56</ele>
						<time>2026-06-27T20:58:15Z</time>
					</trkpt>
					<trkpt lat="48.031360" lon="-4.399580">
						<ele>57</ele>
						<time>2026-06-27T20:58:20Z</time>
					</trkpt>
					<trkpt lat="48.031260" lon="-4.399850">
						<ele>58</ele>
						<time>2026-06-27T20:58:23Z</time>
					</trkpt>
					<trkpt lat="48.031200" lon="-4.400290">
						<ele>59</ele>
						<time>2026-06-27T20:58:29Z</time>
					</trkpt>
					<trkpt lat="48.031170" lon="-4.401670">
						<ele>63</ele>
						<time>2026-06-27T20:58:45Z</time>
					</trkpt>
					<trkpt lat="48.031090" lon="-4.403400">
						<ele>68</ele>
						<time>2026-06-27T20:59:06Z</time>
					</trkpt>
					<trkpt lat="48.030940" lon="-4.405160">
						<ele>71</ele>
						<time>2026-06-27T20:59:27Z</time>
					</trkpt>
					<trkpt lat="48.030840" lon="-4.405760">
						<ele>71</ele>
						<time>2026-06-27T20:59:34Z</time>
					</trkpt>
					<trkpt lat="48.030760" lon="-4.406130">
						<ele>71</ele>
						<time>2026-06-27T20:59:39Z</time>
					</trkpt>
					<trkpt lat="48.030660" lon="-4.406490">
						<ele>72</ele>
						<time>2026-06-27T20:59:44Z</time>
					</trkpt>
					<trkpt lat="48.030490" lon="-4.406900">
						<ele>72</ele>
						<time>2026-06-27T20:59:49Z</time>
					</trkpt>
					<trkpt lat="48.030330" lon="-4.407180">
						<ele>73</ele>
						<time>2026-06-27T20:59:54Z</time>
					</trkpt>
					<trkpt lat="48.030140" lon="-4.407390">
						<ele>74</ele>
						<time>2026-06-27T20:59:58Z</time>
					</trkpt>
					<trkpt lat="48.030000" lon="-4.407490">
						<ele>75</ele>
						<time>2026-06-27T21:00:01Z</time>
					</trkpt>
					<trkpt lat="48.029790" lon="-4.407550">
						<ele>76</ele>
						<time>2026-06-27T21:00:04Z</time>
					</trkpt>
					<trkpt lat="48.029510" lon="-4.407660">
						<ele>77</ele>
						<time>2026-06-27T21:00:10Z</time>
					</trkpt>
					<trkpt lat="48.028970" lon="-4.407830">
						<ele>78</ele>
						<time>2026-06-27T21:00:19Z</time>
					</trkpt>
					<trkpt lat="48.028080" lon="-4.408070">
						<ele>83</ele>
						<time>2026-06-27T21:00:35Z</time>
					</trkpt>
					<trkpt lat="48.027600" lon="-4.408160">
						<ele>86</ele>
						<time>2026-06-27T21:00:44Z</time>
					</trkpt>
					<trkpt lat="48.027240" lon="-4.408250">
						<ele>88</ele>
						<time>2026-06-27T21:00:51Z</time>
					</trkpt>
					<trkpt lat="48.026270" lon="-4.408390">
						<ele>90</ele>
						<time>2026-06-27T21:01:08Z</time>
					</trkpt>
					<trkpt lat="48.026240" lon="-4.408400">
						<ele>90</ele>
						<time>2026-06-27T21:01:08Z</time>
					</trkpt>
					<trkpt lat="48.026220" lon="-4.408450">
						<ele>90</ele>
						<time>2026-06-27T21:01:09Z</time>
					</trkpt>
					<trkpt lat="48.026190" lon="-4.408460">
						<ele>90</ele>
						<time>2026-06-27T21:01:10Z</time>
					</trkpt>
					<trkpt lat="48.026170" lon="-4.408570">
						<ele>90</ele>
						<time>2026-06-27T21:01:11Z</time>
					</trkpt>
					<trkpt lat="48.026250" lon="-4.409410">
						<ele>89</ele>
						<time>2026-06-27T21:01:21Z</time>
					</trkpt>
					<trkpt lat="48.026320" lon="-4.409890">
						<ele>89</ele>
						<time>2026-06-27T21:01:27Z</time>
					</trkpt>
					<trkpt lat="48.026450" lon="-4.410450">
						<ele>89</ele>
						<time>2026-06-27T21:01:34Z</time>
					</trkpt>
					<trkpt lat="48.027030" lon="-4.411690">
						<ele>88</ele>
						<time>2026-06-27T21:01:52Z</time>
					</trkpt>
					<trkpt lat="48.027200" lon="-4.412160">
						<ele>91</ele>
						<time>2026-06-27T21:01:58Z</time>
					</trkpt>
					<trkpt lat="48.027310" lon="-4.412810">
						<ele>93</ele>
						<time>2026-06-27T21:02:06Z</time>
					</trkpt>
					<trkpt lat="48.027370" lon="-4.413340">
						<ele>94</ele>
						<time>2026-06-27T21:02:13Z</time>
					</trkpt>
					<trkpt lat="48.027380" lon="-4.413680">
						<ele>92</ele>
						<time>2026-06-27T21:02:17Z</time>
					</trkpt>
					<trkpt lat="48.027370" lon="-4.413980">
						<ele>91</ele>
						<time>2026-06-27T21:02:20Z</time>
					</trkpt>
					<trkpt lat="48.027140" lon="-4.416370">
						<ele>86</ele>
						<time>2026-06-27T21:02:49Z</time>
					</trkpt>
					<trkpt lat="48.027150" lon="-4.416990">
						<ele>86</ele>
						<time>2026-06-27T21:02:57Z</time>
					</trkpt>
					<trkpt lat="48.027350" lon="-4.418470">
						<ele>87</ele>
						<time>2026-06-27T21:03:15Z</time>
					</trkpt>
					<trkpt lat="48.027460" lon="-4.419020">
						<ele>88</ele>
						<time>2026-06-27T21:03:21Z</time>
					</trkpt>
					<trkpt lat="48.027680" lon="-4.419930">
						<ele>89</ele>
						<time>2026-06-27T21:03:33Z</time>
					</trkpt>
					<trkpt lat="48.027750" lon="-4.420350">
						<ele>89</ele>
						<time>2026-06-27T21:03:38Z</time>
					</trkpt>
					<trkpt lat="48.027890" lon="-4.422050">
						<ele>88</ele>
						<time>2026-06-27T21:03:58Z</time>
					</trkpt>
					<trkpt lat="48.027980" lon="-4.422480">
						<ele>87</ele>
						<time>2026-06-27T21:04:04Z</time>
					</trkpt>
					<trkpt lat="48.028060" lon="-4.422750">
						<ele>87</ele>
						<time>2026-06-27T21:04:07Z</time>
					</trkpt>
					<trkpt lat="48.028190" lon="-4.422670">
						<ele>86</ele>
						<time>2026-06-27T21:04:10Z</time>
					</trkpt>
					<trkpt lat="48.029960" lon="-4.422410">
						<ele>69</ele>
						<time>2026-06-27T21:04:41Z</time>
					</trkpt>
					<trkpt lat="48.030750" lon="-4.422340">
						<ele>66</ele>
						<time>2026-06-27T21:04:55Z</time>
					</trkpt>
					<trkpt lat="48.031160" lon="-4.422320">
						<ele>66</ele>
						<time>2026-06-27T21:05:03Z</time>
					</trkpt>
					<trkpt lat="48.031310" lon="-4.422350">
						<ele>66</ele>
						<time>2026-06-27T21:05:05Z</time>
					</trkpt>
					<trkpt lat="48.031410" lon="-4.422390">
						<ele>65</ele>
						<time>2026-06-27T21:05:07Z</time>
					</trkpt>
					<trkpt lat="48.031590" lon="-4.422640">
						<ele>65</ele>
						<time>2026-06-27T21:05:12Z</time>
					</trkpt>
					<trkpt lat="48.032620" lon="-4.423850">
						<ele>57</ele>
						<time>2026-06-27T21:05:35Z</time>
					</trkpt>
					<trkpt lat="48.032830" lon="-4.423980">
						<ele>56</ele>
						<time>2026-06-27T21:05:39Z</time>
					</trkpt>
					<trkpt lat="48.033920" lon="-4.424250">
						<ele>49</ele>
						<time>2026-06-27T21:05:59Z</time>
					</trkpt>
					<trkpt lat="48.033880" lon="-4.424430">
						<ele>49</ele>
						<time>2026-06-27T21:06:01Z</time>
					</trkpt>
					<trkpt lat="48.033800" lon="-4.426100">
						<ele>45</ele>
						<time>2026-06-27T21:06:21Z</time>
					</trkpt>
					<trkpt lat="48.033810" lon="-4.426360">
						<ele>44</ele>
						<time>2026-06-27T21:06:24Z</time>
					</trkpt>
					<trkpt lat="48.033880" lon="-4.426580">
						<ele>43</ele>
						<time>2026-06-27T21:06:27Z</time>
					</trkpt>
					<trkpt lat="48.034020" lon="-4.426890">
						<ele>42</ele>
						<time>2026-06-27T21:06:31Z</time>
					</trkpt>
					<trkpt lat="48.034780" lon="-4.428150">
						<ele>36</ele>
						<time>2026-06-27T21:06:52Z</time>
					</trkpt>
					<trkpt lat="48.035000" lon="-4.428640">
						<ele>33</ele>
						<time>2026-06-27T21:06:59Z</time>
					</trkpt>
					<trkpt lat="48.035190" lon="-4.429250">
						<ele>31</ele>
						<time>2026-06-27T21:07:07Z</time>
					</trkpt>
					<trkpt lat="48.035270" lon="-4.429800">
						<ele>30</ele>
						<time>2026-06-27T21:07:13Z</time>
					</trkpt>
					<trkpt lat="48.035270" lon="-4.430690">
						<ele>33</ele>
						<time>2026-06-27T21:07:24Z</time>
					</trkpt>
					<trkpt lat="48.035190" lon="-4.432620">
						<ele>42</ele>
						<time>2026-06-27T21:07:47Z</time>
					</trkpt>
					<trkpt lat="48.035150" lon="-4.433070">
						<ele>42</ele>
						<time>2026-06-27T21:07:52Z</time>
					</trkpt>
					<trkpt lat="48.035150" lon="-4.433210">
						<ele>42</ele>
						<time>2026-06-27T21:07:54Z</time>
					</trkpt>
					<trkpt lat="48.035220" lon="-4.433760">
						<ele>44</ele>
						<time>2026-06-27T21:08:01Z</time>
					</trkpt>
					<trkpt lat="48.035230" lon="-4.433970">
						<ele>45</ele>
						<time>2026-06-27T21:08:03Z</time>
					</trkpt>
					<trkpt lat="48.035220" lon="-4.434720">
						<ele>47</ele>
						<time>2026-06-27T21:08:12Z</time>
					</trkpt>
					<trkpt lat="48.035210" lon="-4.434870">
						<ele>47</ele>
						<time>2026-06-27T21:08:14Z</time>
					</trkpt>
					<trkpt lat="48.035140" lon="-4.435240">
						<ele>49</ele>
						<time>2026-06-27T21:08:18Z</time>
					</trkpt>
					<trkpt lat="48.034880" lon="-4.435950">
						<ele>51</ele>
						<time>2026-06-27T21:08:28Z</time>
					</trkpt>
					<trkpt lat="48.034870" lon="-4.436010">
						<ele>51</ele>
						<time>2026-06-27T21:08:29Z</time>
					</trkpt>
					<trkpt lat="48.034880" lon="-4.436040">
						<ele>51</ele>
						<time>2026-06-27T21:08:29Z</time>
					</trkpt>
					<trkpt lat="48.035110" lon="-4.436040">
						<ele>50</ele>
						<time>2026-06-27T21:08:33Z</time>
					</trkpt>
					<trkpt lat="48.035180" lon="-4.436660">
						<ele>48</ele>
						<time>2026-06-27T21:08:41Z</time>
					</trkpt>
					<trkpt lat="48.035180" lon="-4.436780">
						<ele>48</ele>
						<time>2026-06-27T21:08:42Z</time>
					</trkpt>
					<trkpt lat="48.035160" lon="-4.436920">
						<ele>48</ele>
						<time>2026-06-27T21:08:44Z</time>
					</trkpt>
					<trkpt lat="48.035050" lon="-4.437320">
						<ele>48</ele>
						<time>2026-06-27T21:08:49Z</time>
					</trkpt>
					<trkpt lat="48.034910" lon="-4.437930">
						<ele>48</ele>
						<time>2026-06-27T21:08:57Z</time>
					</trkpt>
					<trkpt lat="48.034890" lon="-4.438110">
						<ele>47</ele>
						<time>2026-06-27T21:08:59Z</time>
					</trkpt>
					<trkpt lat="48.034890" lon="-4.438320">
						<ele>47</ele>
						<time>2026-06-27T21:09:01Z</time>
					</trkpt>
					<trkpt lat="48.034920" lon="-4.438500">
						<ele>47</ele>
						<time>2026-06-27T21:09:04Z</time>
					</trkpt>
					<trkpt lat="48.034970" lon="-4.438640">
						<ele>47</ele>
						<time>2026-06-27T21:09:05Z</time>
					</trkpt>
					<trkpt lat="48.035050" lon="-4.438780">
						<ele>47</ele>
						<time>2026-06-27T21:09:08Z</time>
					</trkpt>
					<trkpt lat="48.035160" lon="-4.438890">
						<ele>46</ele>
						<time>2026-06-27T21:09:10Z</time>
					</trkpt>
					<trkpt lat="48.036470" lon="-4.439630">
						<ele>36</ele>
						<time>2026-06-27T21:09:35Z</time>
					</trkpt>
					<trkpt lat="48.036640" lon="-4.439790">
						<ele>35</ele>
						<time>2026-06-27T21:09:38Z</time>
					</trkpt>
					<trkpt lat="48.036750" lon="-4.439930">
						<ele>34</ele>
						<time>2026-06-27T21:09:41Z</time>
					</trkpt>
					<trkpt lat="48.036830" lon="-4.440340">
						<ele>33</ele>
						<time>2026-06-27T21:09:46Z</time>
					</trkpt>
					<trkpt lat="48.037000" lon="-4.442010">
						<ele>30</ele>
						<time>2026-06-27T21:10:06Z</time>
					</trkpt>
					<trkpt lat="48.037020" lon="-4.442340">
						<ele>29</ele>
						<time>2026-06-27T21:10:10Z</time>
					</trkpt>
					<trkpt lat="48.037010" lon="-4.442620">
						<ele>29</ele>
						<time>2026-06-27T21:10:13Z</time>
					</trkpt>
					<trkpt lat="48.036920" lon="-4.443140">
						<ele>30</ele>
						<time>2026-06-27T21:10:20Z</time>
					</trkpt>
					<trkpt lat="48.036730" lon="-4.444050">
						<ele>30</ele>
						<time>2026-06-27T21:10:31Z</time>
					</trkpt>
					<trkpt lat="48.036490" lon="-4.445030">
						<ele>31</ele>
						<time>2026-06-27T21:10:44Z</time>
					</trkpt>
					<trkpt lat="48.036350" lon="-4.445770">
						<ele>31</ele>
						<time>2026-06-27T21:10:53Z</time>
					</trkpt>
					<trkpt lat="48.036270" lon="-4.446410">
						<ele>32</ele>
						<time>2026-06-27T21:11:01Z</time>
					</trkpt>
					<trkpt lat="48.036170" lon="-4.447030">
						<ele>32</ele>
						<time>2026-06-27T21:11:08Z</time>
					</trkpt>
					<trkpt lat="48.035900" lon="-4.448190">
						<ele>31</ele>
						<time>2026-06-27T21:11:23Z</time>
					</trkpt>
					<trkpt lat="48.035800" lon="-4.448770">
						<ele>31</ele>
						<time>2026-06-27T21:11:30Z</time>
					</trkpt>
					<trkpt lat="48.035800" lon="-4.449320">
						<ele>30</ele>
						<time>2026-06-27T21:11:36Z</time>
					</trkpt>
					<trkpt lat="48.035900" lon="-4.453010">
						<ele>32</ele>
						<time>2026-06-27T21:12:20Z</time>
					</trkpt>
					<trkpt lat="48.035840" lon="-4.454180">
						<ele>34</ele>
						<time>2026-06-27T21:12:34Z</time>
					</trkpt>
					<trkpt lat="48.035730" lon="-4.455220">
						<ele>35</ele>
						<time>2026-06-27T21:12:47Z</time>
					</trkpt>
					<trkpt lat="48.035720" lon="-4.455520">
						<ele>35</ele>
						<time>2026-06-27T21:12:50Z</time>
					</trkpt>
					<trkpt lat="48.035600" lon="-4.456910">
						<ele>38</ele>
						<time>2026-06-27T21:13:07Z</time>
					</trkpt>
					<trkpt lat="48.035560" lon="-4.457570">
						<ele>39</ele>
						<time>2026-06-27T21:13:15Z</time>
					</trkpt>
					<trkpt lat="48.035590" lon="-4.457960">
						<ele>39</ele>
						<time>2026-06-27T21:13:20Z</time>
					</trkpt>
					<trkpt lat="48.035750" lon="-4.458920">
						<ele>39</ele>
						<time>2026-06-27T21:13:31Z</time>
					</trkpt>
					<trkpt lat="48.035810" lon="-4.459780">
						<ele>38</ele>
						<time>2026-06-27T21:13:42Z</time>
					</trkpt>
					<trkpt lat="48.035700" lon="-4.462700">
						<ele>41</ele>
						<time>2026-06-27T21:14:16Z</time>
					</trkpt>
					<trkpt lat="48.035660" lon="-4.463340">
						<ele>40</ele>
						<time>2026-06-27T21:14:24Z</time>
					</trkpt>
					<trkpt lat="48.035530" lon="-4.464350">
						<ele>40</ele>
						<time>2026-06-27T21:14:36Z</time>
					</trkpt>
					<trkpt lat="48.035430" lon="-4.465520">
						<ele>38</ele>
						<time>2026-06-27T21:14:50Z</time>
					</trkpt>
					<trkpt lat="48.035400" lon="-4.465540">
						<ele>38</ele>
						<time>2026-06-27T21:14:51Z</time>
					</trkpt>
					<trkpt lat="48.034540" lon="-4.465460">
						<ele>40</ele>
						<time>2026-06-27T21:15:06Z</time>
					</trkpt>
					<trkpt lat="48.034490" lon="-4.465360">
						<ele>40</ele>
						<time>2026-06-27T21:15:08Z</time>
					</trkpt>
					<trkpt lat="48.034310" lon="-4.464390">
						<ele>41</ele>
						<time>2026-06-27T21:15:20Z</time>
					</trkpt>
					<trkpt lat="48.034070" lon="-4.463490">
						<ele>40</ele>
						<time>2026-06-27T21:15:31Z</time>
					</trkpt>
					<trkpt lat="48.034000" lon="-4.462560">
						<ele>42</ele>
						<time>2026-06-27T21:15:42Z</time>
					</trkpt>
					<trkpt lat="48.033820" lon="-4.461850">
						<ele>42</ele>
						<time>2026-06-27T21:15:51Z</time>
					</trkpt>
					<trkpt lat="48.033710" lon="-4.461140">
						<ele>43</ele>
						<time>2026-06-27T21:16:00Z</time>
					</trkpt>
					<trkpt lat="48.033500" lon="-4.460200">
						<ele>45</ele>
						<time>2026-06-27T21:16:12Z</time>
					</trkpt>
					<trkpt lat="48.032840" lon="-4.458030">
						<ele>48</ele>
						<time>2026-06-27T21:16:40Z</time>
					</trkpt>
					<trkpt lat="48.032020" lon="-4.458030">
						<ele>54</ele>
						<time>2026-06-27T21:16:55Z</time>
					</trkpt>
					<trkpt lat="48.031800" lon="-4.458350">
						<ele>56</ele>
						<time>2026-06-27T21:17:00Z</time>
					</trkpt>
					<trkpt lat="48.031770" lon="-4.458810">
						<ele>54</ele>
						<time>2026-06-27T21:17:06Z</time>
					</trkpt>
					<trkpt lat="48.031710" lon="-4.458960">
						<ele>54</ele>
						<time>2026-06-27T21:17:08Z</time>
					</trkpt>
					<trkpt lat="48.031460" lon="-4.459290">
						<ele>56</ele>
						<time>2026-06-27T21:17:14Z</time>
					</trkpt>
					<trkpt lat="48.031270" lon="-4.459310">
						<ele>58</ele>
						<time>2026-06-27T21:17:17Z</time>
					</trkpt>
					<trkpt lat="48.030850" lon="-4.459310">
						<ele>63</ele>
						<time>2026-06-27T21:17:25Z</time>
					</trkpt>
					<trkpt lat="48.031030" lon="-4.460440">
						<ele>60</ele>
						<time>2026-06-27T21:17:39Z</time>
					</trkpt>
					<trkpt lat="48.031780" lon="-4.464730">
						<ele>55</ele>
						<time>2026-06-27T21:18:31Z</time>
					</trkpt>
					<trkpt lat="48.031940" lon="-4.465510">
						<ele>55</ele>
						<time>2026-06-27T21:18:41Z</time>
					</trkpt>
					<trkpt lat="48.032350" lon="-4.467780">
						<ele>51</ele>
						<time>2026-06-27T21:19:09Z</time>
					</trkpt>
					<trkpt lat="48.032390" lon="-4.468080">
						<ele>51</ele>
						<time>2026-06-27T21:19:13Z</time>
					</trkpt>
					<trkpt lat="48.032600" lon="-4.470560">
						<ele>49</ele>
						<time>2026-06-27T21:19:42Z</time>
					</trkpt>
					<trkpt lat="48.032670" lon="-4.471080">
						<ele>48</ele>
						<time>2026-06-27T21:19:49Z</time>
					</trkpt>
					<trkpt lat="48.033160" lon="-4.473190">
						<ele>37</ele>
						<time>2026-06-27T21:20:15Z</time>
					</trkpt>
					<trkpt lat="48.033480" lon="-4.474470">
						<ele>29</ele>
						<time>2026-06-27T21:20:32Z</time>
					</trkpt>
					<trkpt lat="48.033600" lon="-4.474800">
						<ele>27</ele>
						<time>2026-06-27T21:20:36Z</time>
					</trkpt>
					<trkpt lat="48.033720" lon="-4.474970">
						<ele>27</ele>
						<time>2026-06-27T21:20:39Z</time>
					</trkpt>
					<trkpt lat="48.033950" lon="-4.475230">
						<ele>25</ele>
						<time>2026-06-27T21:20:44Z</time>
					</trkpt>
					<trkpt lat="48.034380" lon="-4.475650">
						<ele>24</ele>
						<time>2026-06-27T21:20:53Z</time>
					</trkpt>
					<trkpt lat="48.034740" lon="-4.476040">
						<ele>23</ele>
						<time>2026-06-27T21:21:01Z</time>
					</trkpt>
					<trkpt lat="48.034980" lon="-4.476450">
						<ele>22</ele>
						<time>2026-06-27T21:21:08Z</time>
					</trkpt>
					<trkpt lat="48.035270" lon="-4.477060">
						<ele>20</ele>
						<time>2026-06-27T21:21:16Z</time>
					</trkpt>
					<trkpt lat="48.035490" lon="-4.477480">
						<ele>19</ele>
						<time>2026-06-27T21:21:23Z</time>
					</trkpt>
					<trkpt lat="48.035720" lon="-4.477770">
						<ele>18</ele>
						<time>2026-06-27T21:21:28Z</time>
					</trkpt>
					<trkpt lat="48.035710" lon="-4.477800">
						<ele>18</ele>
						<time>2026-06-27T21:21:29Z</time>
					</trkpt>
					<trkpt lat="48.035610" lon="-4.477840">
						<ele>19</ele>
						<time>2026-06-27T21:21:30Z</time>
					</trkpt>
					<trkpt lat="48.034770" lon="-4.477840">
						<ele>21</ele>
						<time>2026-06-27T21:21:45Z</time>
					</trkpt>
					<trkpt lat="48.033940" lon="-4.477790">
						<ele>23</ele>
						<time>2026-06-27T21:22:00Z</time>
					</trkpt>
					<trkpt lat="48.033090" lon="-4.477770">
						<ele>30</ele>
						<time>2026-06-27T21:22:15Z</time>
					</trkpt>
					<trkpt lat="48.033010" lon="-4.477730">
						<ele>30</ele>
						<time>2026-06-27T21:22:17Z</time>
					</trkpt>
					<trkpt lat="48.032920" lon="-4.477710">
						<ele>32</ele>
						<time>2026-06-27T21:22:18Z</time>
					</trkpt>
					<trkpt lat="48.032430" lon="-4.477400">
						<ele>35</ele>
						<time>2026-06-27T21:22:28Z</time>
					</trkpt>
					<trkpt lat="48.031900" lon="-4.476880">
						<ele>37</ele>
						<time>2026-06-27T21:22:39Z</time>
					</trkpt>
					<trkpt lat="48.031770" lon="-4.476950">
						<ele>40</ele>
						<time>2026-06-27T21:22:42Z</time>
					</trkpt>
					<trkpt lat="48.031400" lon="-4.476910">
						<ele>43</ele>
						<time>2026-06-27T21:22:48Z</time>
					</trkpt>
					<trkpt lat="48.031290" lon="-4.476930">
						<ele>44</ele>
						<time>2026-06-27T21:22:50Z</time>
					</trkpt>
					<trkpt lat="48.031210" lon="-4.476950">
						<ele>45</ele>
						<time>2026-06-27T21:22:52Z</time>
					</trkpt>
					<trkpt lat="48.031160" lon="-4.476990">
						<ele>45</ele>
						<time>2026-06-27T21:22:53Z</time>
					</trkpt>
					<trkpt lat="48.031100" lon="-4.477110">
						<ele>47</ele>
						<time>2026-06-27T21:22:54Z</time>
					</trkpt>
					<trkpt lat="48.030970" lon="-4.477940">
						<ele>52</ele>
						<time>2026-06-27T21:23:05Z</time>
					</trkpt>
					<trkpt lat="48.030880" lon="-4.478700">
						<ele>55</ele>
						<time>2026-06-27T21:23:14Z</time>
					</trkpt>
					<trkpt lat="48.031000" lon="-4.478680">
						<ele>55</ele>
						<time>2026-06-27T21:23:16Z</time>
					</trkpt>
					<trkpt lat="48.031410" lon="-4.478550">
						<ele>54</ele>
						<time>2026-06-27T21:23:23Z</time>
					</trkpt>
					<trkpt lat="48.031670" lon="-4.478490">
						<ele>54</ele>
						<time>2026-06-27T21:23:28Z</time>
					</trkpt>
					<trkpt lat="48.031820" lon="-4.478490">
						<ele>52</ele>
						<time>2026-06-27T21:23:31Z</time>
					</trkpt>
					<trkpt lat="48.031930" lon="-4.478510">
						<ele>52</ele>
						<time>2026-06-27T21:23:33Z</time>
					</trkpt>
					<trkpt lat="48.032080" lon="-4.478600">
						<ele>51</ele>
						<time>2026-06-27T21:23:36Z</time>
					</trkpt>
					<trkpt lat="48.032180" lon="-4.478690">
						<ele>51</ele>
						<time>2026-06-27T21:23:38Z</time>
					</trkpt>
					<trkpt lat="48.032280" lon="-4.478840">
						<ele>51</ele>
						<time>2026-06-27T21:23:40Z</time>
					</trkpt>
					<trkpt lat="48.032500" lon="-4.479250">
						<ele>53</ele>
						<time>2026-06-27T21:23:46Z</time>
					</trkpt>
					<trkpt lat="48.032790" lon="-4.479980">
						<ele>52</ele>
						<time>2026-06-27T21:23:56Z</time>
					</trkpt>
					<trkpt lat="48.033180" lon="-4.480710">
						<ele>48</ele>
						<time>2026-06-27T21:24:08Z</time>
					</trkpt>
					<trkpt lat="48.033380" lon="-4.480930">
						<ele>45</ele>
						<time>2026-06-27T21:24:12Z</time>
					</trkpt>
					<trkpt lat="48.034030" lon="-4.481400">
						<ele>38</ele>
						<time>2026-06-27T21:24:25Z</time>
					</trkpt>
					<trkpt lat="48.034480" lon="-4.481630">
						<ele>34</ele>
						<time>2026-06-27T21:24:33Z</time>
					</trkpt>
					<trkpt lat="48.035160" lon="-4.482010">
						<ele>30</ele>
						<time>2026-06-27T21:24:46Z</time>
					</trkpt>
					<trkpt lat="48.035150" lon="-4.482190">
						<ele>31</ele>
						<time>2026-06-27T21:24:48Z</time>
					</trkpt>
					<trkpt lat="48.035210" lon="-4.482620">
						<ele>32</ele>
						<time>2026-06-27T21:24:54Z</time>
					</trkpt>
					<trkpt lat="48.035440" lon="-4.484010">
						<ele>33</ele>
						<time>2026-06-27T21:25:11Z</time>
					</trkpt>
					<trkpt lat="48.035440" lon="-4.484410">
						<ele>33</ele>
						<time>2026-06-27T21:25:15Z</time>
					</trkpt>
					<trkpt lat="48.035420" lon="-4.484520">
						<ele>33</ele>
						<time>2026-06-27T21:25:17Z</time>
					</trkpt>
					<trkpt lat="48.035390" lon="-4.484580">
						<ele>33</ele>
						<time>2026-06-27T21:25:18Z</time>
					</trkpt>
					<trkpt lat="48.035420" lon="-4.484600">
						<ele>33</ele>
						<time>2026-06-27T21:25:18Z</time>
					</trkpt>
					<trkpt lat="48.035500" lon="-4.484590">
						<ele>32</ele>
						<time>2026-06-27T21:25:20Z</time>
					</trkpt>
					<trkpt lat="48.035790" lon="-4.484360">
						<ele>31</ele>
						<time>2026-06-27T21:25:26Z</time>
					</trkpt>
					<trkpt lat="48.036010" lon="-4.484240">
						<ele>30</ele>
						<time>2026-06-27T21:25:30Z</time>
					</trkpt>
					<trkpt lat="48.036030" lon="-4.484300">
						<ele>29</ele>
						<time>2026-06-27T21:25:30Z</time>
					</trkpt>
					<trkpt lat="48.036280" lon="-4.486400">
						<ele>26</ele>
						<time>2026-06-27T21:25:56Z</time>
					</trkpt>
					<trkpt lat="48.036310" lon="-4.486920">
						<ele>24</ele>
						<time>2026-06-27T21:26:02Z</time>
					</trkpt>
					<trkpt lat="48.036280" lon="-4.487230">
						<ele>23</ele>
						<time>2026-06-27T21:26:06Z</time>
					</trkpt>
					<trkpt lat="48.036190" lon="-4.487790">
						<ele>20</ele>
						<time>2026-06-27T21:26:13Z</time>
					</trkpt>
					<trkpt lat="48.035920" lon="-4.489760">
						<ele>16</ele>
						<time>2026-06-27T21:26:37Z</time>
					</trkpt>
					<trkpt lat="48.035870" lon="-4.490280">
						<ele>20</ele>
						<time>2026-06-27T21:26:43Z</time>
					</trkpt>
					<trkpt lat="48.035720" lon="-4.490850">
						<ele>27</ele>
						<time>2026-06-27T21:26:50Z</time>
					</trkpt>
					<trkpt lat="48.035570" lon="-4.491300">
						<ele>30</ele>
						<time>2026-06-27T21:26:56Z</time>
					</trkpt>
					<trkpt lat="48.035310" lon="-4.491940">
						<ele>33</ele>
						<time>2026-06-27T21:27:05Z</time>
					</trkpt>
					<trkpt lat="48.035180" lon="-4.492200">
						<ele>33</ele>
						<time>2026-06-27T21:27:09Z</time>
					</trkpt>
					<trkpt lat="48.035000" lon="-4.492510">
						<ele>33</ele>
						<time>2026-06-27T21:27:14Z</time>
					</trkpt>
					<trkpt lat="48.034700" lon="-4.492950">
						<ele>36</ele>
						<time>2026-06-27T21:27:21Z</time>
					</trkpt>
					<trkpt lat="48.034460" lon="-4.493260">
						<ele>39</ele>
						<time>2026-06-27T21:27:27Z</time>
					</trkpt>
					<trkpt lat="48.034400" lon="-4.493370">
						<ele>39</ele>
						<time>2026-06-27T21:27:29Z</time>
					</trkpt>
					<trkpt lat="48.034380" lon="-4.493510">
						<ele>39</ele>
						<time>2026-06-27T21:27:30Z</time>
					</trkpt>
					<trkpt lat="48.034360" lon="-4.493530">
						<ele>39</ele>
						<time>2026-06-27T21:27:31Z</time>
					</trkpt>
					<trkpt lat="48.034310" lon="-4.493510">
						<ele>39</ele>
						<time>2026-06-27T21:27:32Z</time>
					</trkpt>
					<trkpt lat="48.034180" lon="-4.493500">
						<ele>41</ele>
						<time>2026-06-27T21:27:34Z</time>
					</trkpt>
					<trkpt lat="48.034020" lon="-4.493590">
						<ele>42</ele>
						<time>2026-06-27T21:27:37Z</time>
					</trkpt>
					<trkpt lat="48.033660" lon="-4.494080">
						<ele>44</ele>
						<time>2026-06-27T21:27:46Z</time>
					</trkpt>
					<trkpt lat="48.033540" lon="-4.494300">
						<ele>45</ele>
						<time>2026-06-27T21:27:49Z</time>
					</trkpt>
					<trkpt lat="48.033220" lon="-4.494780">
						<ele>47</ele>
						<time>2026-06-27T21:27:57Z</time>
					</trkpt>
					<trkpt lat="48.031980" lon="-4.496000">
						<ele>63</ele>
						<time>2026-06-27T21:28:23Z</time>
					</trkpt>
					<trkpt lat="48.031920" lon="-4.496040">
						<ele>64</ele>
						<time>2026-06-27T21:28:25Z</time>
					</trkpt>
					<trkpt lat="48.031490" lon="-4.496480">
						<ele>68</ele>
						<time>2026-06-27T21:28:34Z</time>
					</trkpt>
					<trkpt lat="48.031120" lon="-4.496770">
						<ele>69</ele>
						<time>2026-06-27T21:28:41Z</time>
					</trkpt>
					<trkpt lat="48.030530" lon="-4.497270">
						<ele>70</ele>
						<time>2026-06-27T21:28:53Z</time>
					</trkpt>
					<trkpt lat="48.030130" lon="-4.497580">
						<ele>70</ele>
						<time>2026-06-27T21:29:01Z</time>
					</trkpt>
					<trkpt lat="48.029890" lon="-4.497790">
						<ele>70</ele>
						<time>2026-06-27T21:29:06Z</time>
					</trkpt>
					<trkpt lat="48.029160" lon="-4.498300">
						<ele>71</ele>
						<time>2026-06-27T21:29:21Z</time>
					</trkpt>
					<trkpt lat="48.028800" lon="-4.498680">
						<ele>72</ele>
						<time>2026-06-27T21:29:29Z</time>
					</trkpt>
					<trkpt lat="48.028710" lon="-4.498840">
						<ele>73</ele>
						<time>2026-06-27T21:29:31Z</time>
					</trkpt>
					<trkpt lat="48.028510" lon="-4.498790">
						<ele>74</ele>
						<time>2026-06-27T21:29:35Z</time>
					</trkpt>
					<trkpt lat="48.028160" lon="-4.498520">
						<ele>77</ele>
						<time>2026-06-27T21:29:42Z</time>
					</trkpt>
					<trkpt lat="48.027990" lon="-4.498440">
						<ele>79</ele>
						<time>2026-06-27T21:29:45Z</time>
					</trkpt>
					<trkpt lat="48.027840" lon="-4.498390">
						<ele>80</ele>
						<time>2026-06-27T21:29:48Z</time>
					</trkpt>
					<trkpt lat="48.027440" lon="-4.498330">
						<ele>84</ele>
						<time>2026-06-27T21:29:55Z</time>
					</trkpt>
					<trkpt lat="48.025860" lon="-4.498160">
						<ele>94</ele>
						<time>2026-06-27T21:30:23Z</time>
					</trkpt>
					<trkpt lat="48.025350" lon="-4.498090">
						<ele>96</ele>
						<time>2026-06-27T21:30:32Z</time>
					</trkpt>
					<trkpt lat="48.024750" lon="-4.498040">
						<ele>98</ele>
						<time>2026-06-27T21:30:43Z</time>
					</trkpt>
					<trkpt lat="48.024210" lon="-4.498060">
						<ele>99</ele>
						<time>2026-06-27T21:30:52Z</time>
					</trkpt>
					<trkpt lat="48.023020" lon="-4.498270">
						<ele>98</ele>
						<time>2026-06-27T21:31:14Z</time>
					</trkpt>
					<trkpt lat="48.020540" lon="-4.498580">
						<ele>91</ele>
						<time>2026-06-27T21:31:58Z</time>
					</trkpt>
					<trkpt lat="48.019480" lon="-4.498740">
						<ele>90</ele>
						<time>2026-06-27T21:32:17Z</time>
					</trkpt>
					<trkpt lat="48.019230" lon="-4.498800">
						<ele>90</ele>
						<time>2026-06-27T21:32:21Z</time>
					</trkpt>
					<trkpt lat="48.018900" lon="-4.498960">
						<ele>90</ele>
						<time>2026-06-27T21:32:28Z</time>
					</trkpt>
					<trkpt lat="48.018100" lon="-4.497650">
						<ele>89</ele>
						<time>2026-06-27T21:32:49Z</time>
					</trkpt>
					<trkpt lat="48.017880" lon="-4.497210">
						<ele>89</ele>
						<time>2026-06-27T21:32:55Z</time>
					</trkpt>
					<trkpt lat="48.017810" lon="-4.497150">
						<ele>89</ele>
						<time>2026-06-27T21:32:57Z</time>
					</trkpt>
					<trkpt lat="48.017310" lon="-4.496310">
						<ele>88</ele>
						<time>2026-06-27T21:33:10Z</time>
					</trkpt>
					<trkpt lat="48.017250" lon="-4.496160">
						<ele>88</ele>
						<time>2026-06-27T21:33:12Z</time>
					</trkpt>
					<trkpt lat="48.016340" lon="-4.496320">
						<ele>87</ele>
						<time>2026-06-27T21:33:28Z</time>
					</trkpt>
					<trkpt lat="48.015640" lon="-4.496370">
						<ele>86</ele>
						<time>2026-06-27T21:33:41Z</time>
					</trkpt>
					<trkpt lat="48.015520" lon="-4.496360">
						<ele>86</ele>
						<time>2026-06-27T21:33:43Z</time>
					</trkpt>
					<trkpt lat="48.015070" lon="-4.491630">
						<ele>95</ele>
						<time>2026-06-27T21:34:40Z</time>
					</trkpt>
					<trkpt lat="48.014860" lon="-4.490090">
						<ele>97</ele>
						<time>2026-06-27T21:34:59Z</time>
					</trkpt>
					<trkpt lat="48.014810" lon="-4.489820">
						<ele>97</ele>
						<time>2026-06-27T21:35:02Z</time>
					</trkpt>
					<trkpt lat="48.014430" lon="-4.486990">
						<ele>98</ele>
						<time>2026-06-27T21:35:36Z</time>
					</trkpt>
					<trkpt lat="48.014270" lon="-4.486000">
						<ele>100</ele>
						<time>2026-06-27T21:35:48Z</time>
					</trkpt>
					<trkpt lat="48.014030" lon="-4.485950">
						<ele>100</ele>
						<time>2026-06-27T21:35:53Z</time>
					</trkpt>
					<trkpt lat="48.013950" lon="-4.485910">
						<ele>100</ele>
						<time>2026-06-27T21:35:54Z</time>
					</trkpt>
					<trkpt lat="48.013890" lon="-4.485820">
						<ele>100</ele>
						<time>2026-06-27T21:35:56Z</time>
					</trkpt>
					<trkpt lat="48.013840" lon="-4.485680">
						<ele>100</ele>
						<time>2026-06-27T21:35:58Z</time>
					</trkpt>
					<trkpt lat="48.013860" lon="-4.485600">
						<ele>100</ele>
						<time>2026-06-27T21:35:59Z</time>
					</trkpt>
					<trkpt lat="48.013850" lon="-4.485490">
						<ele>100</ele>
						<time>2026-06-27T21:36:00Z</time>
					</trkpt>
					<trkpt lat="48.013650" lon="-4.484350">
						<ele>100</ele>
						<time>2026-06-27T21:36:14Z</time>
					</trkpt>
					<trkpt lat="48.013630" lon="-4.484330">
						<ele>100</ele>
						<time>2026-06-27T21:36:14Z</time>
					</trkpt>
					<trkpt lat="48.013490" lon="-4.484320">
						<ele>100</ele>
						<time>2026-06-27T21:36:17Z</time>
					</trkpt>
					<trkpt lat="48.013010" lon="-4.484310">
						<ele>99</ele>
						<time>2026-06-27T21:36:25Z</time>
					</trkpt>
					<trkpt lat="48.012840" lon="-4.484230">
						<ele>99</ele>
						<time>2026-06-27T21:36:29Z</time>
					</trkpt>
					<trkpt lat="48.012600" lon="-4.484040">
						<ele>98</ele>
						<time>2026-06-27T21:36:33Z</time>
					</trkpt>
					<trkpt lat="48.012320" lon="-4.483710">
						<ele>98</ele>
						<time>2026-06-27T21:36:40Z</time>
					</trkpt>
					<trkpt lat="48.011910" lon="-4.483110">
						<ele>99</ele>
						<time>2026-06-27T21:36:50Z</time>
					</trkpt>
					<trkpt lat="48.010340" lon="-4.481050">
						<ele>96</ele>
						<time>2026-06-27T21:37:27Z</time>
					</trkpt>
					<trkpt lat="48.009620" lon="-4.480040">
						<ele>94</ele>
						<time>2026-06-27T21:37:45Z</time>
					</trkpt>
					<trkpt lat="48.009210" lon="-4.479520">
						<ele>93</ele>
						<time>2026-06-27T21:37:54Z</time>
					</trkpt>
					<trkpt lat="48.008620" lon="-4.478720">
						<ele>93</ele>
						<time>2026-06-27T21:38:08Z</time>
					</trkpt>
					<trkpt lat="48.008080" lon="-4.478040">
						<ele>93</ele>
						<time>2026-06-27T21:38:21Z</time>
					</trkpt>
					<trkpt lat="48.007840" lon="-4.477780">
						<ele>93</ele>
						<time>2026-06-27T21:38:26Z</time>
					</trkpt>
					<trkpt lat="48.007230" lon="-4.477200">
						<ele>94</ele>
						<time>2026-06-27T21:38:39Z</time>
					</trkpt>
					<trkpt lat="48.006740" lon="-4.476800">
						<ele>93</ele>
						<time>2026-06-27T21:38:49Z</time>
					</trkpt>
					<trkpt lat="48.006080" lon="-4.476340">
						<ele>92</ele>
						<time>2026-06-27T21:39:02Z</time>
					</trkpt>
					<trkpt lat="48.005290" lon="-4.475760">
						<ele>90</ele>
						<time>2026-06-27T21:39:18Z</time>
					</trkpt>
					<trkpt lat="48.005090" lon="-4.475580">
						<ele>90</ele>
						<time>2026-06-27T21:39:22Z</time>
					</trkpt>
					<trkpt lat="48.004880" lon="-4.475360">
						<ele>90</ele>
						<time>2026-06-27T21:39:26Z</time>
					</trkpt>
					<trkpt lat="48.004690" lon="-4.475100">
						<ele>90</ele>
						<time>2026-06-27T21:39:31Z</time>
					</trkpt>
					<trkpt lat="48.003860" lon="-4.473560">
						<ele>91</ele>
						<time>2026-06-27T21:39:55Z</time>
					</trkpt>
					<trkpt lat="48.003690" lon="-4.473300">
						<ele>91</ele>
						<time>2026-06-27T21:39:59Z</time>
					</trkpt>
					<trkpt lat="48.002160" lon="-4.471370">
						<ele>88</ele>
						<time>2026-06-27T21:40:35Z</time>
					</trkpt>
					<trkpt lat="47.999950" lon="-4.468720">
						<ele>78</ele>
						<time>2026-06-27T21:41:25Z</time>
					</trkpt>
					<trkpt lat="47.999740" lon="-4.468520">
						<ele>77</ele>
						<time>2026-06-27T21:41:29Z</time>
					</trkpt>
					<trkpt lat="47.999560" lon="-4.468420">
						<ele>77</ele>
						<time>2026-06-27T21:41:33Z</time>
					</trkpt>
					<trkpt lat="47.999080" lon="-4.468220">
						<ele>75</ele>
						<time>2026-06-27T21:41:42Z</time>
					</trkpt>
					<trkpt lat="47.998510" lon="-4.468120">
						<ele>73</ele>
						<time>2026-06-27T21:41:52Z</time>
					</trkpt>
					<trkpt lat="47.998300" lon="-4.468100">
						<ele>73</ele>
						<time>2026-06-27T21:41:56Z</time>
					</trkpt>
					<trkpt lat="47.997960" lon="-4.468010">
						<ele>71</ele>
						<time>2026-06-27T21:42:02Z</time>
					</trkpt>
					<trkpt lat="47.996390" lon="-4.467700">
						<ele>65</ele>
						<time>2026-06-27T21:42:30Z</time>
					</trkpt>
					<trkpt lat="47.996000" lon="-4.467700">
						<ele>64</ele>
						<time>2026-06-27T21:42:37Z</time>
					</trkpt>
					<trkpt lat="47.995570" lon="-4.467740">
						<ele>62</ele>
						<time>2026-06-27T21:42:45Z</time>
					</trkpt>
					<trkpt lat="47.994930" lon="-4.467940">
						<ele>61</ele>
						<time>2026-06-27T21:42:56Z</time>
					</trkpt>
					<trkpt lat="47.994510" lon="-4.468030">
						<ele>61</ele>
						<time>2026-06-27T21:43:04Z</time>
					</trkpt>
					<trkpt lat="47.994200" lon="-4.468050">
						<ele>61</ele>
						<time>2026-06-27T21:43:09Z</time>
					</trkpt>
					<trkpt lat="47.993940" lon="-4.467960">
						<ele>61</ele>
						<time>2026-06-27T21:43:14Z</time>
					</trkpt>
					<trkpt lat="47.993580" lon="-4.467780">
						<ele>60</ele>
						<time>2026-06-27T21:43:21Z</time>
					</trkpt>
					<trkpt lat="47.993290" lon="-4.467510">
						<ele>60</ele>
						<time>2026-06-27T21:43:27Z</time>
					</trkpt>
					<trkpt lat="47.993130" lon="-4.467290">
						<ele>59</ele>
						<time>2026-06-27T21:43:31Z</time>
					</trkpt>
					<trkpt lat="47.993220" lon="-4.465900">
						<ele>58</ele>
						<time>2026-06-27T21:43:47Z</time>
					</trkpt>
					<trkpt lat="47.993250" lon="-4.465240">
						<ele>57</ele>
						<time>2026-06-27T21:43:55Z</time>
					</trkpt>
					<trkpt lat="47.993200" lon="-4.465100">
						<ele>57</ele>
						<time>2026-06-27T21:43:57Z</time>
					</trkpt>
					<trkpt lat="47.993020" lon="-4.464970">
						<ele>56</ele>
						<time>2026-06-27T21:44:01Z</time>
					</trkpt>
					<trkpt lat="47.992820" lon="-4.464960">
						<ele>56</ele>
						<time>2026-06-27T21:44:04Z</time>
					</trkpt>
					<trkpt lat="47.992710" lon="-4.464930">
						<ele>55</ele>
						<time>2026-06-27T21:44:06Z</time>
					</trkpt>
					<trkpt lat="47.992640" lon="-4.464930">
						<ele>55</ele>
						<time>2026-06-27T21:44:07Z</time>
					</trkpt>
					<trkpt lat="47.992550" lon="-4.464970">
						<ele>55</ele>
						<time>2026-06-27T21:44:09Z</time>
					</trkpt>
					<trkpt lat="47.992420" lon="-4.465110">
						<ele>54</ele>
						<time>2026-06-27T21:44:12Z</time>
					</trkpt>
					<trkpt lat="47.992310" lon="-4.465330">
						<ele>54</ele>
						<time>2026-06-27T21:44:15Z</time>
					</trkpt>
					<trkpt lat="47.992240" lon="-4.465710">
						<ele>53</ele>
						<time>2026-06-27T21:44:20Z</time>
					</trkpt>
					<trkpt lat="47.992200" lon="-4.465820">
						<ele>53</ele>
						<time>2026-06-27T21:44:21Z</time>
					</trkpt>
					<trkpt lat="47.992180" lon="-4.465820">
						<ele>53</ele>
						<time>2026-06-27T21:44:22Z</time>
					</trkpt>
					<trkpt lat="47.992110" lon="-4.465730">
						<ele>52</ele>
						<time>2026-06-27T21:44:23Z</time>
					</trkpt>
					<trkpt lat="47.991950" lon="-4.465610">
						<ele>51</ele>
						<time>2026-06-27T21:44:27Z</time>
					</trkpt>
					<trkpt lat="47.991760" lon="-4.465550">
						<ele>49</ele>
						<time>2026-06-27T21:44:30Z</time>
					</trkpt>
					<trkpt lat="47.990710" lon="-4.465450">
						<ele>40</ele>
						<time>2026-06-27T21:44:49Z</time>
					</trkpt>
					<trkpt lat="47.990170" lon="-4.465430">
						<ele>38</ele>
						<time>2026-06-27T21:44:58Z</time>
					</trkpt>
					<trkpt lat="47.989630" lon="-4.465450">
						<ele>37</ele>
						<time>2026-06-27T21:45:08Z</time>
					</trkpt>
					<trkpt lat="47.989080" lon="-4.465630">
						<ele>35</ele>
						<time>2026-06-27T21:45:18Z</time>
					</trkpt>
					<trkpt lat="47.988610" lon="-4.465820">
						<ele>32</ele>
						<time>2026-06-27T21:45:27Z</time>
					</trkpt>
					<trkpt lat="47.988500" lon="-4.465850">
						<ele>31</ele>
						<time>2026-06-27T21:45:29Z</time>
					</trkpt>
					<trkpt lat="47.988210" lon="-4.465860">
						<ele>29</ele>
						<time>2026-06-27T21:45:34Z</time>
					</trkpt>
					<trkpt lat="47.987940" lon="-4.465770">
						<ele>27</ele>
						<time>2026-06-27T21:45:39Z</time>
					</trkpt>
					<trkpt lat="47.987710" lon="-4.465620">
						<ele>25</ele>
						<time>2026-06-27T21:45:43Z</time>
					</trkpt>
					<trkpt lat="47.987460" lon="-4.465390">
						<ele>23</ele>
						<time>2026-06-27T21:45:48Z</time>
					</trkpt>
					<trkpt lat="47.987100" lon="-4.465130">
						<ele>21</ele>
						<time>2026-06-27T21:45:56Z</time>
					</trkpt>
					<trkpt lat="47.987020" lon="-4.465220">
						<ele>21</ele>
						<time>2026-06-27T21:45:57Z</time>
					</trkpt>
					<trkpt lat="47.986740" lon="-4.465310">
						<ele>21</ele>
						<time>2026-06-27T21:46:02Z</time>
					</trkpt>
					<trkpt lat="47.986680" lon="-4.465350">
						<ele>21</ele>
						<time>2026-06-27T21:46:04Z</time>
					</trkpt>
					<trkpt lat="47.986640" lon="-4.465460">
						<ele>21</ele>
						<time>2026-06-27T21:46:05Z</time>
					</trkpt>
					<trkpt lat="47.986630" lon="-4.465850">
						<ele>23</ele>
						<time>2026-06-27T21:46:10Z</time>
					</trkpt>
					<trkpt lat="47.986660" lon="-4.466380">
						<ele>24</ele>
						<time>2026-06-27T21:46:16Z</time>
					</trkpt>
					<trkpt lat="47.986910" lon="-4.467880">
						<ele>27</ele>
						<time>2026-06-27T21:46:34Z</time>
					</trkpt>
					<trkpt lat="47.987150" lon="-4.469030">
						<ele>29</ele>
						<time>2026-06-27T21:46:49Z</time>
					</trkpt>
					<trkpt lat="47.987350" lon="-4.470320">
						<ele>31</ele>
						<time>2026-06-27T21:47:05Z</time>
					</trkpt>
					<trkpt lat="47.987530" lon="-4.471300">
						<ele>29</ele>
						<time>2026-06-27T21:47:17Z</time>
					</trkpt>
					<trkpt lat="47.987880" lon="-4.473670">
						<ele>29</ele>
						<time>2026-06-27T21:47:46Z</time>
					</trkpt>
					<trkpt lat="47.987990" lon="-4.474080">
						<ele>30</ele>
						<time>2026-06-27T21:47:51Z</time>
					</trkpt>
					<trkpt lat="47.988170" lon="-4.474600">
						<ele>29</ele>
						<time>2026-06-27T21:47:58Z</time>
					</trkpt>
					<trkpt lat="47.988350" lon="-4.475190">
						<ele>28</ele>
						<time>2026-06-27T21:48:06Z</time>
					</trkpt>
					<trkpt lat="47.988800" lon="-4.476750">
						<ele>17</ele>
						<time>2026-06-27T21:48:26Z</time>
					</trkpt>
					<trkpt lat="47.988900" lon="-4.477050">
						<ele>15</ele>
						<time>2026-06-27T21:48:30Z</time>
					</trkpt>
					<trkpt lat="47.989050" lon="-4.477300">
						<ele>14</ele>
						<time>2026-06-27T21:48:34Z</time>
					</trkpt>
					<trkpt lat="47.989250" lon="-4.477440">
						<ele>14</ele>
						<time>2026-06-27T21:48:38Z</time>
					</trkpt>
					<trkpt lat="47.989380" lon="-4.477490">
						<ele>13</ele>
						<time>2026-06-27T21:48:40Z</time>
					</trkpt>
					<trkpt lat="47.990230" lon="-4.477520">
						<ele>10</ele>
						<time>2026-06-27T21:48:55Z</time>
					</trkpt>
					<trkpt lat="47.990670" lon="-4.477710">
						<ele>9</ele>
						<time>2026-06-27T21:49:03Z</time>
					</trkpt>
					<trkpt lat="47.990920" lon="-4.477940">
						<ele>9</ele>
						<time>2026-06-27T21:49:09Z</time>
					</trkpt>
					<trkpt lat="47.991160" lon="-4.478230">
						<ele>11</ele>
						<time>2026-06-27T21:49:14Z</time>
					</trkpt>
					<trkpt lat="47.992640" lon="-4.479870">
						<ele>17</ele>
						<time>2026-06-27T21:49:47Z</time>
					</trkpt>
					<trkpt lat="47.993630" lon="-4.480930">
						<ele>27</ele>
						<time>2026-06-27T21:50:09Z</time>
					</trkpt>
					<trkpt lat="47.993970" lon="-4.481260">
						<ele>31</ele>
						<time>2026-06-27T21:50:16Z</time>
					</trkpt>
					<trkpt lat="47.994590" lon="-4.481760">
						<ele>35</ele>
						<time>2026-06-27T21:50:28Z</time>
					</trkpt>
					<trkpt lat="47.994990" lon="-4.482150">
						<ele>37</ele>
						<time>2026-06-27T21:50:37Z</time>
					</trkpt>
					<trkpt lat="47.995000" lon="-4.482020">
						<ele>38</ele>
						<time>2026-06-27T21:50:38Z</time>
					</trkpt>
					<trkpt lat="47.994760" lon="-4.481350">
						<ele>42</ele>
						<time>2026-06-27T21:50:47Z</time>
					</trkpt>
					<trkpt lat="47.994300" lon="-4.480420">
						<ele>45</ele>
						<time>2026-06-27T21:51:01Z</time>
					</trkpt>
					<trkpt lat="47.993670" lon="-4.478660">
						<ele>46</ele>
						<time>2026-06-27T21:51:25Z</time>
					</trkpt>
					<trkpt lat="47.993550" lon="-4.478050">
						<ele>47</ele>
						<time>2026-06-27T21:51:33Z</time>
					</trkpt>
					<trkpt lat="47.993380" lon="-4.476660">
						<ele>48</ele>
						<time>2026-06-27T21:51:49Z</time>
					</trkpt>
					<trkpt lat="47.993270" lon="-4.475920">
						<ele>48</ele>
						<time>2026-06-27T21:51:58Z</time>
					</trkpt>
					<trkpt lat="47.993240" lon="-4.474550">
						<ele>45</ele>
						<time>2026-06-27T21:52:15Z</time>
					</trkpt>
					<trkpt lat="47.993260" lon="-4.474440">
						<ele>45</ele>
						<time>2026-06-27T21:52:16Z</time>
					</trkpt>
					<trkpt lat="47.993300" lon="-4.474390">
						<ele>45</ele>
						<time>2026-06-27T21:52:17Z</time>
					</trkpt>
					<trkpt lat="47.993340" lon="-4.474350">
						<ele>45</ele>
						<time>2026-06-27T21:52:18Z</time>
					</trkpt>
					<trkpt lat="47.994440" lon="-4.474180">
						<ele>47</ele>
						<time>2026-06-27T21:52:38Z</time>
					</trkpt>
					<trkpt lat="47.994510" lon="-4.474190">
						<ele>48</ele>
						<time>2026-06-27T21:52:39Z</time>
					</trkpt>
					<trkpt lat="47.994700" lon="-4.474280">
						<ele>49</ele>
						<time>2026-06-27T21:52:42Z</time>
					</trkpt>
					<trkpt lat="47.995020" lon="-4.474540">
						<ele>53</ele>
						<time>2026-06-27T21:52:49Z</time>
					</trkpt>
					<trkpt lat="47.995170" lon="-4.474690">
						<ele>54</ele>
						<time>2026-06-27T21:52:52Z</time>
					</trkpt>
					<trkpt lat="47.995340" lon="-4.474960">
						<ele>55</ele>
						<time>2026-06-27T21:52:56Z</time>
					</trkpt>
					<trkpt lat="47.995550" lon="-4.475400">
						<ele>56</ele>
						<time>2026-06-27T21:53:03Z</time>
					</trkpt>
					<trkpt lat="47.995620" lon="-4.475790">
						<ele>57</ele>
						<time>2026-06-27T21:53:08Z</time>
					</trkpt>
					<trkpt lat="47.995660" lon="-4.475930">
						<ele>57</ele>
						<time>2026-06-27T21:53:09Z</time>
					</trkpt>
					<trkpt lat="47.996110" lon="-4.476640">
						<ele>60</ele>
						<time>2026-06-27T21:53:21Z</time>
					</trkpt>
					<trkpt lat="47.996190" lon="-4.476690">
						<ele>60</ele>
						<time>2026-06-27T21:53:23Z</time>
					</trkpt>
					<trkpt lat="47.996330" lon="-4.476670">
						<ele>60</ele>
						<time>2026-06-27T21:53:25Z</time>
					</trkpt>
					<trkpt lat="47.996400" lon="-4.476680">
						<ele>60</ele>
						<time>2026-06-27T21:53:26Z</time>
					</trkpt>
					<trkpt lat="47.996690" lon="-4.476810">
						<ele>60</ele>
						<time>2026-06-27T21:53:32Z</time>
					</trkpt>
					<trkpt lat="47.996840" lon="-4.476940">
						<ele>60</ele>
						<time>2026-06-27T21:53:35Z</time>
					</trkpt>
					<trkpt lat="47.997580" lon="-4.477000">
						<ele>61</ele>
						<time>2026-06-27T21:53:48Z</time>
					</trkpt>
					<trkpt lat="47.997670" lon="-4.477020">
						<ele>61</ele>
						<time>2026-06-27T21:53:50Z</time>
					</trkpt>
					<trkpt lat="47.997750" lon="-4.477060">
						<ele>62</ele>
						<time>2026-06-27T21:53:51Z</time>
					</trkpt>
					<trkpt lat="47.998420" lon="-4.477620">
						<ele>67</ele>
						<time>2026-06-27T21:54:05Z</time>
					</trkpt>
					<trkpt lat="47.999000" lon="-4.478460">
						<ele>72</ele>
						<time>2026-06-27T21:54:19Z</time>
					</trkpt>
					<trkpt lat="47.999220" lon="-4.478950">
						<ele>74</ele>
						<time>2026-06-27T21:54:26Z</time>
					</trkpt>
					<trkpt lat="47.999620" lon="-4.480030">
						<ele>78</ele>
						<time>2026-06-27T21:54:41Z</time>
					</trkpt>
					<trkpt lat="47.999790" lon="-4.480290">
						<ele>78</ele>
						<time>2026-06-27T21:54:45Z</time>
					</trkpt>
					<trkpt lat="47.999930" lon="-4.480410">
						<ele>78</ele>
						<time>2026-06-27T21:54:48Z</time>
					</trkpt>
					<trkpt lat="48.000070" lon="-4.480440">
						<ele>79</ele>
						<time>2026-06-27T21:54:51Z</time>
					</trkpt>
					<trkpt lat="48.000390" lon="-4.480580">
						<ele>80</ele>
						<time>2026-06-27T21:54:57Z</time>
					</trkpt>
					<trkpt lat="48.000710" lon="-4.480840">
						<ele>81</ele>
						<time>2026-06-27T21:55:03Z</time>
					</trkpt>
					<trkpt lat="48.000830" lon="-4.480900">
						<ele>82</ele>
						<time>2026-06-27T21:55:05Z</time>
					</trkpt>
					<trkpt lat="48.001340" lon="-4.481050">
						<ele>82</ele>
						<time>2026-06-27T21:55:15Z</time>
					</trkpt>
					<trkpt lat="48.001550" lon="-4.481160">
						<ele>82</ele>
						<time>2026-06-27T21:55:19Z</time>
					</trkpt>
					<trkpt lat="48.002110" lon="-4.481590">
						<ele>82</ele>
						<time>2026-06-27T21:55:30Z</time>
					</trkpt>
					<trkpt lat="48.002510" lon="-4.481920">
						<ele>83</ele>
						<time>2026-06-27T21:55:38Z</time>
					</trkpt>
					<trkpt lat="48.004020" lon="-4.483230">
						<ele>87</ele>
						<time>2026-06-27T21:56:09Z</time>
					</trkpt>
					<trkpt lat="48.004050" lon="-4.483290">
						<ele>87</ele>
						<time>2026-06-27T21:56:10Z</time>
					</trkpt>
					<trkpt lat="48.004070" lon="-4.483470">
						<ele>87</ele>
						<time>2026-06-27T21:56:12Z</time>
					</trkpt>
					<trkpt lat="48.004150" lon="-4.484920">
						<ele>86</ele>
						<time>2026-06-27T21:56:29Z</time>
					</trkpt>
					<trkpt lat="48.004180" lon="-4.486250">
						<ele>84</ele>
						<time>2026-06-27T21:56:45Z</time>
					</trkpt>
					<trkpt lat="48.004170" lon="-4.486560">
						<ele>84</ele>
						<time>2026-06-27T21:56:49Z</time>
					</trkpt>
					<trkpt lat="48.004080" lon="-4.487500">
						<ele>84</ele>
						<time>2026-06-27T21:57:00Z</time>
					</trkpt>
					<trkpt lat="48.004020" lon="-4.488360">
						<ele>81</ele>
						<time>2026-06-27T21:57:10Z</time>
					</trkpt>
					<trkpt lat="48.004170" lon="-4.488350">
						<ele>81</ele>
						<time>2026-06-27T21:57:13Z</time>
					</trkpt>
					<trkpt lat="48.004510" lon="-4.488250">
						<ele>82</ele>
						<time>2026-06-27T21:57:19Z</time>
					</trkpt>
					<trkpt lat="48.005390" lon="-4.488060">
						<ele>84</ele>
						<time>2026-06-27T21:57:35Z</time>
					</trkpt>
					<trkpt lat="48.005760" lon="-4.487950">
						<ele>84</ele>
						<time>2026-06-27T21:57:42Z</time>
					</trkpt>
					<trkpt lat="48.005930" lon="-4.487950">
						<ele>84</ele>
						<time>2026-06-27T21:57:45Z</time>
					</trkpt>
					<trkpt lat="48.006930" lon="-4.488080">
						<ele>85</ele>
						<time>2026-06-27T21:58:03Z</time>
					</trkpt>
					<trkpt lat="48.007190" lon="-4.488010">
						<ele>85</ele>
						<time>2026-06-27T21:58:07Z</time>
					</trkpt>
					<trkpt lat="48.007360" lon="-4.487930">
						<ele>84</ele>
						<time>2026-06-27T21:58:11Z</time>
					</trkpt>
					<trkpt lat="48.006980" lon="-4.486030">
						<ele>87</ele>
						<time>2026-06-27T21:58:34Z</time>
					</trkpt>
					<trkpt lat="48.006830" lon="-4.485360">
						<ele>87</ele>
						<time>2026-06-27T21:58:43Z</time>
					</trkpt>
					<trkpt lat="48.006830" lon="-4.485330">
						<ele>87</ele>
						<time>2026-06-27T21:58:43Z</time>
					</trkpt>
					<trkpt lat="48.007020" lon="-4.485240">
						<ele>87</ele>
						<time>2026-06-27T21:58:46Z</time>
					</trkpt>
					<trkpt lat="48.007310" lon="-4.485140">
						<ele>88</ele>
						<time>2026-06-27T21:58:52Z</time>
					</trkpt>
					<trkpt lat="48.008180" lon="-4.485000">
						<ele>87</ele>
						<time>2026-06-27T21:59:07Z</time>
					</trkpt>
					<trkpt lat="48.008340" lon="-4.485000">
						<ele>87</ele>
						<time>2026-06-27T21:59:10Z</time>
					</trkpt>
					<trkpt lat="48.008660" lon="-4.485040">
						<ele>87</ele>
						<time>2026-06-27T21:59:16Z</time>
					</trkpt>
					<trkpt lat="48.008950" lon="-4.485110">
						<ele>88</ele>
						<time>2026-06-27T21:59:21Z</time>
					</trkpt>
					<trkpt lat="48.009370" lon="-4.485170">
						<ele>89</ele>
						<time>2026-06-27T21:59:29Z</time>
					</trkpt>
					<trkpt lat="48.010310" lon="-4.485250">
						<ele>92</ele>
						<time>2026-06-27T21:59:45Z</time>
					</trkpt>
					<trkpt lat="48.012120" lon="-4.485460">
						<ele>95</ele>
						<time>2026-06-27T22:00:18Z</time>
					</trkpt>
					<trkpt lat="48.013100" lon="-4.485560">
						<ele>98</ele>
						<time>2026-06-27T22:00:35Z</time>
					</trkpt>
					<trkpt lat="48.013680" lon="-4.485650">
						<ele>99</ele>
						<time>2026-06-27T22:00:46Z</time>
					</trkpt>
					<trkpt lat="48.013840" lon="-4.485650">
						<ele>100</ele>
						<time>2026-06-27T22:00:48Z</time>
					</trkpt>
					<trkpt lat="48.013860" lon="-4.485600">
						<ele>100</ele>
						<time>2026-06-27T22:00:49Z</time>
					</trkpt>
					<trkpt lat="48.013850" lon="-4.485500">
						<ele>100</ele>
						<time>2026-06-27T22:00:50Z</time>
					</trkpt>
					<trkpt lat="48.013650" lon="-4.484340">
						<ele>100</ele>
						<time>2026-06-27T22:01:05Z</time>
					</trkpt>
					<trkpt lat="48.013630" lon="-4.484330">
						<ele>100</ele>
						<time>2026-06-27T22:01:05Z</time>
					</trkpt>
					<trkpt lat="48.013010" lon="-4.484310">
						<ele>99</ele>
						<time>2026-06-27T22:01:16Z</time>
					</trkpt>
					<trkpt lat="48.012850" lon="-4.484230">
						<ele>99</ele>
						<time>2026-06-27T22:01:19Z</time>
					</trkpt>
					<trkpt lat="48.012610" lon="-4.484040">
						<ele>98</ele>
						<time>2026-06-27T22:01:24Z</time>
					</trkpt>
					<trkpt lat="48.012330" lon="-4.483710">
						<ele>98</ele>
						<time>2026-06-27T22:01:30Z</time>
					</trkpt>
					<trkpt lat="48.011910" lon="-4.483110">
						<ele>99</ele>
						<time>2026-06-27T22:01:40Z</time>
					</trkpt>
					<trkpt lat="48.010340" lon="-4.481050">
						<ele>96</ele>
						<time>2026-06-27T22:02:18Z</time>
					</trkpt>
					<trkpt lat="48.009620" lon="-4.480040">
						<ele>94</ele>
						<time>2026-06-27T22:02:35Z</time>
					</trkpt>
					<trkpt lat="48.009210" lon="-4.479530">
						<ele>93</ele>
						<time>2026-06-27T22:02:45Z</time>
					</trkpt>
					<trkpt lat="48.008600" lon="-4.478680">
						<ele>93</ele>
						<time>2026-06-27T22:03:00Z</time>
					</trkpt>
					<trkpt lat="48.008080" lon="-4.478040">
						<ele>93</ele>
						<time>2026-06-27T22:03:12Z</time>
					</trkpt>
					<trkpt lat="48.007840" lon="-4.477780">
						<ele>93</ele>
						<time>2026-06-27T22:03:17Z</time>
					</trkpt>
					<trkpt lat="48.007240" lon="-4.477200">
						<ele>94</ele>
						<time>2026-06-27T22:03:30Z</time>
					</trkpt>
					<trkpt lat="48.006750" lon="-4.476800">
						<ele>93</ele>
						<time>2026-06-27T22:03:39Z</time>
					</trkpt>
					<trkpt lat="48.005760" lon="-4.476110">
						<ele>91</ele>
						<time>2026-06-27T22:03:59Z</time>
					</trkpt>
					<trkpt lat="48.005290" lon="-4.475760">
						<ele>90</ele>
						<time>2026-06-27T22:04:08Z</time>
					</trkpt>
					<trkpt lat="48.005090" lon="-4.475580">
						<ele>90</ele>
						<time>2026-06-27T22:04:12Z</time>
					</trkpt>
					<trkpt lat="48.004880" lon="-4.475360">
						<ele>90</ele>
						<time>2026-06-27T22:04:17Z</time>
					</trkpt>
					<trkpt lat="48.004690" lon="-4.475100">
						<ele>90</ele>
						<time>2026-06-27T22:04:22Z</time>
					</trkpt>
					<trkpt lat="48.003860" lon="-4.473560">
						<ele>91</ele>
						<time>2026-06-27T22:04:45Z</time>
					</trkpt>
					<trkpt lat="48.003690" lon="-4.473300">
						<ele>91</ele>
						<time>2026-06-27T22:04:49Z</time>
					</trkpt>
					<trkpt lat="48.002020" lon="-4.471190">
						<ele>88</ele>
						<time>2026-06-27T22:05:28Z</time>
					</trkpt>
					<trkpt lat="48.000080" lon="-4.468870">
						<ele>79</ele>
						<time>2026-06-27T22:06:13Z</time>
					</trkpt>
					<trkpt lat="47.999950" lon="-4.468720">
						<ele>78</ele>
						<time>2026-06-27T22:06:15Z</time>
					</trkpt>
					<trkpt lat="47.999740" lon="-4.468520">
						<ele>77</ele>
						<time>2026-06-27T22:06:20Z</time>
					</trkpt>
					<trkpt lat="47.999560" lon="-4.468420">
						<ele>77</ele>
						<time>2026-06-27T22:06:23Z</time>
					</trkpt>
					<trkpt lat="47.999080" lon="-4.468220">
						<ele>75</ele>
						<time>2026-06-27T22:06:32Z</time>
					</trkpt>
					<trkpt lat="47.998510" lon="-4.468120">
						<ele>73</ele>
						<time>2026-06-27T22:06:42Z</time>
					</trkpt>
					<trkpt lat="47.998300" lon="-4.468100">
						<ele>73</ele>
						<time>2026-06-27T22:06:46Z</time>
					</trkpt>
					<trkpt lat="47.997960" lon="-4.468010">
						<ele>71</ele>
						<time>2026-06-27T22:06:52Z</time>
					</trkpt>
					<trkpt lat="47.996390" lon="-4.467700">
						<ele>65</ele>
						<time>2026-06-27T22:07:20Z</time>
					</trkpt>
					<trkpt lat="47.996000" lon="-4.467700">
						<ele>64</ele>
						<time>2026-06-27T22:07:27Z</time>
					</trkpt>
					<trkpt lat="47.995570" lon="-4.467740">
						<ele>62</ele>
						<time>2026-06-27T22:07:35Z</time>
					</trkpt>
					<trkpt lat="47.994930" lon="-4.467940">
						<ele>61</ele>
						<time>2026-06-27T22:07:47Z</time>
					</trkpt>
					<trkpt lat="47.994510" lon="-4.468030">
						<ele>61</ele>
						<time>2026-06-27T22:07:54Z</time>
					</trkpt>
					<trkpt lat="47.994200" lon="-4.468050">
						<ele>61</ele>
						<time>2026-06-27T22:08:00Z</time>
					</trkpt>
					<trkpt lat="47.993940" lon="-4.467960">
						<ele>61</ele>
						<time>2026-06-27T22:08:04Z</time>
					</trkpt>
					<trkpt lat="47.993580" lon="-4.467780">
						<ele>60</ele>
						<time>2026-06-27T22:08:11Z</time>
					</trkpt>
					<trkpt lat="47.993300" lon="-4.467520">
						<ele>60</ele>
						<time>2026-06-27T22:08:17Z</time>
					</trkpt>
					<trkpt lat="47.993130" lon="-4.467290">
						<ele>59</ele>
						<time>2026-06-27T22:08:21Z</time>
					</trkpt>
					<trkpt lat="47.993220" lon="-4.465900">
						<ele>58</ele>
						<time>2026-06-27T22:08:38Z</time>
					</trkpt>
					<trkpt lat="47.993250" lon="-4.465240">
						<ele>57</ele>
						<time>2026-06-27T22:08:46Z</time>
					</trkpt>
					<trkpt lat="47.993200" lon="-4.465100">
						<ele>57</ele>
						<time>2026-06-27T22:08:48Z</time>
					</trkpt>
					<trkpt lat="47.993020" lon="-4.464970">
						<ele>56</ele>
						<time>2026-06-27T22:08:51Z</time>
					</trkpt>
					<trkpt lat="47.992820" lon="-4.464960">
						<ele>56</ele>
						<time>2026-06-27T22:08:55Z</time>
					</trkpt>
					<trkpt lat="47.992710" lon="-4.464930">
						<ele>55</ele>
						<time>2026-06-27T22:08:57Z</time>
					</trkpt>
					<trkpt lat="47.992640" lon="-4.464930">
						<ele>55</ele>
						<time>2026-06-27T22:08:58Z</time>
					</trkpt>
					<trkpt lat="47.992540" lon="-4.464970">
						<ele>55</ele>
						<time>2026-06-27T22:09:00Z</time>
					</trkpt>
					<trkpt lat="47.992430" lon="-4.465110">
						<ele>55</ele>
						<time>2026-06-27T22:09:02Z</time>
					</trkpt>
					<trkpt lat="47.992310" lon="-4.465330">
						<ele>54</ele>
						<time>2026-06-27T22:09:06Z</time>
					</trkpt>
					<trkpt lat="47.992240" lon="-4.465710">
						<ele>53</ele>
						<time>2026-06-27T22:09:10Z</time>
					</trkpt>
					<trkpt lat="47.992200" lon="-4.465820">
						<ele>53</ele>
						<time>2026-06-27T22:09:12Z</time>
					</trkpt>
					<trkpt lat="47.992180" lon="-4.465820">
						<ele>53</ele>
						<time>2026-06-27T22:09:12Z</time>
					</trkpt>
					<trkpt lat="47.992110" lon="-4.465730">
						<ele>52</ele>
						<time>2026-06-27T22:09:14Z</time>
					</trkpt>
					<trkpt lat="47.991950" lon="-4.465610">
						<ele>51</ele>
						<time>2026-06-27T22:09:17Z</time>
					</trkpt>
					<trkpt lat="47.991760" lon="-4.465550">
						<ele>49</ele>
						<time>2026-06-27T22:09:21Z</time>
					</trkpt>
					<trkpt lat="47.991530" lon="-4.465520">
						<ele>47</ele>
						<time>2026-06-27T22:09:25Z</time>
					</trkpt>
					<trkpt lat="47.990400" lon="-4.465430">
						<ele>39</ele>
						<time>2026-06-27T22:09:45Z</time>
					</trkpt>
					<trkpt lat="47.989630" lon="-4.465450">
						<ele>37</ele>
						<time>2026-06-27T22:09:59Z</time>
					</trkpt>
					<trkpt lat="47.989280" lon="-4.465560">
						<ele>36</ele>
						<time>2026-06-27T22:10:05Z</time>
					</trkpt>
					<trkpt lat="47.988610" lon="-4.465820">
						<ele>32</ele>
						<time>2026-06-27T22:10:17Z</time>
					</trkpt>
					<trkpt lat="47.988500" lon="-4.465850">
						<ele>31</ele>
						<time>2026-06-27T22:10:19Z</time>
					</trkpt>
					<trkpt lat="47.988210" lon="-4.465860">
						<ele>29</ele>
						<time>2026-06-27T22:10:24Z</time>
					</trkpt>
					<trkpt lat="47.987940" lon="-4.465770">
						<ele>27</ele>
						<time>2026-06-27T22:10:29Z</time>
					</trkpt>
					<trkpt lat="47.987720" lon="-4.465630">
						<ele>25</ele>
						<time>2026-06-27T22:10:34Z</time>
					</trkpt>
					<trkpt lat="47.987460" lon="-4.465390">
						<ele>23</ele>
						<time>2026-06-27T22:10:39Z</time>
					</trkpt>
					<trkpt lat="47.987100" lon="-4.465130">
						<ele>21</ele>
						<time>2026-06-27T22:10:46Z</time>
					</trkpt>
					<trkpt lat="47.987030" lon="-4.465220">
						<ele>21</ele>
						<time>2026-06-27T22:10:48Z</time>
					</trkpt>
					<trkpt lat="47.986740" lon="-4.465310">
						<ele>21</ele>
						<time>2026-06-27T22:10:53Z</time>
					</trkpt>
					<trkpt lat="47.986680" lon="-4.465350">
						<ele>21</ele>
						<time>2026-06-27T22:10:54Z</time>
					</trkpt>
					<trkpt lat="47.986660" lon="-4.465410">
						<ele>21</ele>
						<time>2026-06-27T22:10:55Z</time>
					</trkpt>
					<trkpt lat="47.986640" lon="-4.465460">
						<ele>21</ele>
						<time>2026-06-27T22:10:56Z</time>
					</trkpt>
					<trkpt lat="47.986630" lon="-4.465840">
						<ele>23</ele>
						<time>2026-06-27T22:11:00Z</time>
					</trkpt>
					<trkpt lat="47.986660" lon="-4.466380">
						<ele>24</ele>
						<time>2026-06-27T22:11:07Z</time>
					</trkpt>
					<trkpt lat="47.986910" lon="-4.467890">
						<ele>27</ele>
						<time>2026-06-27T22:11:25Z</time>
					</trkpt>
					<trkpt lat="47.987150" lon="-4.469050">
						<ele>29</ele>
						<time>2026-06-27T22:11:40Z</time>
					</trkpt>
					<trkpt lat="47.987360" lon="-4.470340">
						<ele>31</ele>
						<time>2026-06-27T22:11:55Z</time>
					</trkpt>
					<trkpt lat="47.987530" lon="-4.471310">
						<ele>29</ele>
						<time>2026-06-27T22:12:07Z</time>
					</trkpt>
					<trkpt lat="47.987880" lon="-4.473670">
						<ele>29</ele>
						<time>2026-06-27T22:12:36Z</time>
					</trkpt>
					<trkpt lat="47.987930" lon="-4.473880">
						<ele>29</ele>
						<time>2026-06-27T22:12:39Z</time>
					</trkpt>
					<trkpt lat="47.988170" lon="-4.474600">
						<ele>29</ele>
						<time>2026-06-27T22:12:48Z</time>
					</trkpt>
					<trkpt lat="47.988900" lon="-4.477050">
						<ele>15</ele>
						<time>2026-06-27T22:13:20Z</time>
					</trkpt>
					<trkpt lat="47.989050" lon="-4.477300">
						<ele>14</ele>
						<time>2026-06-27T22:13:24Z</time>
					</trkpt>
					<trkpt lat="47.989250" lon="-4.477440">
						<ele>14</ele>
						<time>2026-06-27T22:13:28Z</time>
					</trkpt>
					<trkpt lat="47.989380" lon="-4.477490">
						<ele>13</ele>
						<time>2026-06-27T22:13:31Z</time>
					</trkpt>
					<trkpt lat="47.990230" lon="-4.477520">
						<ele>10</ele>
						<time>2026-06-27T22:13:46Z</time>
					</trkpt>
					<trkpt lat="47.990670" lon="-4.477710">
						<ele>9</ele>
						<time>2026-06-27T22:13:54Z</time>
					</trkpt>
					<trkpt lat="47.990790" lon="-4.477810">
						<ele>9</ele>
						<time>2026-06-27T22:13:56Z</time>
					</trkpt>
					<trkpt lat="47.992760" lon="-4.480010">
						<ele>19</ele>
						<time>2026-06-27T22:14:40Z</time>
					</trkpt>
					<trkpt lat="47.993610" lon="-4.480910">
						<ele>27</ele>
						<time>2026-06-27T22:14:59Z</time>
					</trkpt>
					<trkpt lat="47.994000" lon="-4.481280">
						<ele>31</ele>
						<time>2026-06-27T22:15:07Z</time>
					</trkpt>
					<trkpt lat="47.994590" lon="-4.481760">
						<ele>35</ele>
						<time>2026-06-27T22:15:19Z</time>
					</trkpt>
					<trkpt lat="47.994990" lon="-4.482150">
						<ele>37</ele>
						<time>2026-06-27T22:15:27Z</time>
					</trkpt>
					<trkpt lat="47.995000" lon="-4.482030">
						<ele>38</ele>
						<time>2026-06-27T22:15:29Z</time>
					</trkpt>
					<trkpt lat="47.994760" lon="-4.481350">
						<ele>42</ele>
						<time>2026-06-27T22:15:38Z</time>
					</trkpt>
					<trkpt lat="47.994300" lon="-4.480420">
						<ele>45</ele>
						<time>2026-06-27T22:15:52Z</time>
					</trkpt>
					<trkpt lat="47.993890" lon="-4.479310">
						<ele>47</ele>
						<time>2026-06-27T22:16:07Z</time>
					</trkpt>
					<trkpt lat="47.993680" lon="-4.478670">
						<ele>46</ele>
						<time>2026-06-27T22:16:15Z</time>
					</trkpt>
					<trkpt lat="47.993550" lon="-4.478060">
						<ele>47</ele>
						<time>2026-06-27T22:16:23Z</time>
					</trkpt>
					<trkpt lat="47.993280" lon="-4.475920">
						<ele>48</ele>
						<time>2026-06-27T22:16:49Z</time>
					</trkpt>
					<trkpt lat="47.993240" lon="-4.474550">
						<ele>45</ele>
						<time>2026-06-27T22:17:05Z</time>
					</trkpt>
					<trkpt lat="47.993260" lon="-4.474440">
						<ele>45</ele>
						<time>2026-06-27T22:17:06Z</time>
					</trkpt>
					<trkpt lat="47.993340" lon="-4.474350">
						<ele>45</ele>
						<time>2026-06-27T22:17:08Z</time>
					</trkpt>
					<trkpt lat="47.994440" lon="-4.474180">
						<ele>47</ele>
						<time>2026-06-27T22:17:28Z</time>
					</trkpt>
					<trkpt lat="47.994520" lon="-4.474190">
						<ele>48</ele>
						<time>2026-06-27T22:17:29Z</time>
					</trkpt>
					<trkpt lat="47.994700" lon="-4.474280">
						<ele>49</ele>
						<time>2026-06-27T22:17:33Z</time>
					</trkpt>
					<trkpt lat="47.995020" lon="-4.474540">
						<ele>53</ele>
						<time>2026-06-27T22:17:39Z</time>
					</trkpt>
					<trkpt lat="47.995170" lon="-4.474690">
						<ele>54</ele>
						<time>2026-06-27T22:17:42Z</time>
					</trkpt>
					<trkpt lat="47.995340" lon="-4.474960">
						<ele>55</ele>
						<time>2026-06-27T22:17:47Z</time>
					</trkpt>
					<trkpt lat="47.995520" lon="-4.475320">
						<ele>56</ele>
						<time>2026-06-27T22:17:52Z</time>
					</trkpt>
					<trkpt lat="47.995660" lon="-4.475930">
						<ele>57</ele>
						<time>2026-06-27T22:18:00Z</time>
					</trkpt>
					<trkpt lat="47.996110" lon="-4.476640">
						<ele>60</ele>
						<time>2026-06-27T22:18:12Z</time>
					</trkpt>
					<trkpt lat="47.996190" lon="-4.476690">
						<ele>60</ele>
						<time>2026-06-27T22:18:13Z</time>
					</trkpt>
					<trkpt lat="47.996330" lon="-4.476670">
						<ele>60</ele>
						<time>2026-06-27T22:18:16Z</time>
					</trkpt>
					<trkpt lat="47.996400" lon="-4.476680">
						<ele>60</ele>
						<time>2026-06-27T22:18:17Z</time>
					</trkpt>
					<trkpt lat="47.996690" lon="-4.476810">
						<ele>60</ele>
						<time>2026-06-27T22:18:22Z</time>
					</trkpt>
					<trkpt lat="47.996840" lon="-4.476940">
						<ele>60</ele>
						<time>2026-06-27T22:18:25Z</time>
					</trkpt>
					<trkpt lat="47.997580" lon="-4.477000">
						<ele>61</ele>
						<time>2026-06-27T22:18:38Z</time>
					</trkpt>
					<trkpt lat="47.997670" lon="-4.477020">
						<ele>61</ele>
						<time>2026-06-27T22:18:40Z</time>
					</trkpt>
					<trkpt lat="47.997750" lon="-4.477060">
						<ele>62</ele>
						<time>2026-06-27T22:18:42Z</time>
					</trkpt>
					<trkpt lat="47.997950" lon="-4.477220">
						<ele>63</ele>
						<time>2026-06-27T22:18:46Z</time>
					</trkpt>
					<trkpt lat="47.998420" lon="-4.477620">
						<ele>67</ele>
						<time>2026-06-27T22:18:55Z</time>
					</trkpt>
					<trkpt lat="47.999000" lon="-4.478470">
						<ele>72</ele>
						<time>2026-06-27T22:19:10Z</time>
					</trkpt>
					<trkpt lat="47.999220" lon="-4.478950">
						<ele>74</ele>
						<time>2026-06-27T22:19:17Z</time>
					</trkpt>
					<trkpt lat="47.999560" lon="-4.479890">
						<ele>77</ele>
						<time>2026-06-27T22:19:29Z</time>
					</trkpt>
					<trkpt lat="47.999630" lon="-4.480030">
						<ele>78</ele>
						<time>2026-06-27T22:19:31Z</time>
					</trkpt>
					<trkpt lat="47.999790" lon="-4.480300">
						<ele>78</ele>
						<time>2026-06-27T22:19:36Z</time>
					</trkpt>
					<trkpt lat="47.999930" lon="-4.480410">
						<ele>78</ele>
						<time>2026-06-27T22:19:39Z</time>
					</trkpt>
					<trkpt lat="48.000070" lon="-4.480440">
						<ele>79</ele>
						<time>2026-06-27T22:19:41Z</time>
					</trkpt>
					<trkpt lat="48.000390" lon="-4.480580">
						<ele>80</ele>
						<time>2026-06-27T22:19:47Z</time>
					</trkpt>
					<trkpt lat="48.000710" lon="-4.480840">
						<ele>81</ele>
						<time>2026-06-27T22:19:53Z</time>
					</trkpt>
					<trkpt lat="48.000830" lon="-4.480900">
						<ele>82</ele>
						<time>2026-06-27T22:19:56Z</time>
					</trkpt>
					<trkpt lat="48.001340" lon="-4.481050">
						<ele>82</ele>
						<time>2026-06-27T22:20:05Z</time>
					</trkpt>
					<trkpt lat="48.001560" lon="-4.481160">
						<ele>82</ele>
						<time>2026-06-27T22:20:09Z</time>
					</trkpt>
					<trkpt lat="48.002110" lon="-4.481590">
						<ele>82</ele>
						<time>2026-06-27T22:20:20Z</time>
					</trkpt>
					<trkpt lat="48.002510" lon="-4.481920">
						<ele>83</ele>
						<time>2026-06-27T22:20:28Z</time>
					</trkpt>
					<trkpt lat="48.004020" lon="-4.483230">
						<ele>87</ele>
						<time>2026-06-27T22:20:59Z</time>
					</trkpt>
					<trkpt lat="48.004050" lon="-4.483290">
						<ele>87</ele>
						<time>2026-06-27T22:21:00Z</time>
					</trkpt>
					<trkpt lat="48.004070" lon="-4.483470">
						<ele>87</ele>
						<time>2026-06-27T22:21:02Z</time>
					</trkpt>
					<trkpt lat="48.004150" lon="-4.484920">
						<ele>86</ele>
						<time>2026-06-27T22:21:20Z</time>
					</trkpt>
					<trkpt lat="48.004160" lon="-4.485780">
						<ele>84</ele>
						<time>2026-06-27T22:21:30Z</time>
					</trkpt>
					<trkpt lat="48.004180" lon="-4.486250">
						<ele>84</ele>
						<time>2026-06-27T22:21:36Z</time>
					</trkpt>
					<trkpt lat="48.004170" lon="-4.486560">
						<ele>84</ele>
						<time>2026-06-27T22:21:39Z</time>
					</trkpt>
					<trkpt lat="48.004060" lon="-4.487740">
						<ele>83</ele>
						<time>2026-06-27T22:21:53Z</time>
					</trkpt>
					<trkpt lat="48.004020" lon="-4.488360">
						<ele>81</ele>
						<time>2026-06-27T22:22:01Z</time>
					</trkpt>
					<trkpt lat="48.004170" lon="-4.488360">
						<ele>81</ele>
						<time>2026-06-27T22:22:04Z</time>
					</trkpt>
					<trkpt lat="48.004510" lon="-4.488250">
						<ele>82</ele>
						<time>2026-06-27T22:22:10Z</time>
					</trkpt>
					<trkpt lat="48.005390" lon="-4.488060">
						<ele>84</ele>
						<time>2026-06-27T22:22:26Z</time>
					</trkpt>
					<trkpt lat="48.005770" lon="-4.487950">
						<ele>83</ele>
						<time>2026-06-27T22:22:32Z</time>
					</trkpt>
					<trkpt lat="48.005930" lon="-4.487950">
						<ele>84</ele>
						<time>2026-06-27T22:22:35Z</time>
					</trkpt>
					<trkpt lat="48.006930" lon="-4.488080">
						<ele>85</ele>
						<time>2026-06-27T22:22:53Z</time>
					</trkpt>
					<trkpt lat="48.007190" lon="-4.488010">
						<ele>85</ele>
						<time>2026-06-27T22:22:58Z</time>
					</trkpt>
					<trkpt lat="48.007360" lon="-4.487930">
						<ele>84</ele>
						<time>2026-06-27T22:23:01Z</time>
					</trkpt>
					<trkpt lat="48.006980" lon="-4.486030">
						<ele>87</ele>
						<time>2026-06-27T22:23:25Z</time>
					</trkpt>
					<trkpt lat="48.006830" lon="-4.485360">
						<ele>87</ele>
						<time>2026-06-27T22:23:33Z</time>
					</trkpt>
					<trkpt lat="48.006830" lon="-4.485330">
						<ele>87</ele>
						<time>2026-06-27T22:23:33Z</time>
					</trkpt>
					<trkpt lat="48.007030" lon="-4.485240">
						<ele>87</ele>
						<time>2026-06-27T22:23:37Z</time>
					</trkpt>
					<trkpt lat="48.007310" lon="-4.485140">
						<ele>88</ele>
						<time>2026-06-27T22:23:42Z</time>
					</trkpt>
					<trkpt lat="48.008180" lon="-4.485000">
						<ele>87</ele>
						<time>2026-06-27T22:23:58Z</time>
					</trkpt>
					<trkpt lat="48.008350" lon="-4.485000">
						<ele>87</ele>
						<time>2026-06-27T22:24:01Z</time>
					</trkpt>
					<trkpt lat="48.009270" lon="-4.485160">
						<ele>89</ele>
						<time>2026-06-27T22:24:17Z</time>
					</trkpt>
					<trkpt lat="48.010460" lon="-4.485260">
						<ele>92</ele>
						<time>2026-06-27T22:24:39Z</time>
					</trkpt>
					<trkpt lat="48.013110" lon="-4.485560">
						<ele>98</ele>
						<time>2026-06-27T22:25:26Z</time>
					</trkpt>
					<trkpt lat="48.013690" lon="-4.485650">
						<ele>99</ele>
						<time>2026-06-27T22:25:36Z</time>
					</trkpt>
					<trkpt lat="48.013810" lon="-4.485640">
						<ele>100</ele>
						<time>2026-06-27T22:25:38Z</time>
					</trkpt>
					<trkpt lat="48.013840" lon="-4.485650">
						<ele>100</ele>
						<time>2026-06-27T22:25:39Z</time>
					</trkpt>
					<trkpt lat="48.013860" lon="-4.485600">
						<ele>100</ele>
						<time>2026-06-27T22:25:40Z</time>
					</trkpt>
					<trkpt lat="48.013840" lon="-4.485410">
						<ele>100</ele>
						<time>2026-06-27T22:25:42Z</time>
					</trkpt>
					<trkpt lat="48.013650" lon="-4.484350">
						<ele>100</ele>
						<time>2026-06-27T22:25:55Z</time>
					</trkpt>
					<trkpt lat="48.013630" lon="-4.484330">
						<ele>100</ele>
						<time>2026-06-27T22:25:55Z</time>
					</trkpt>
					<trkpt lat="48.013010" lon="-4.484310">
						<ele>99</ele>
						<time>2026-06-27T22:26:06Z</time>
					</trkpt>
					<trkpt lat="48.012850" lon="-4.484230">
						<ele>99</ele>
						<time>2026-06-27T22:26:09Z</time>
					</trkpt>
					<trkpt lat="48.012610" lon="-4.484040">
						<ele>98</ele>
						<time>2026-06-27T22:26:14Z</time>
					</trkpt>
					<trkpt lat="48.012330" lon="-4.483710">
						<ele>98</ele>
						<time>2026-06-27T22:26:21Z</time>
					</trkpt>
					<trkpt lat="48.011990" lon="-4.483220">
						<ele>99</ele>
						<time>2026-06-27T22:26:29Z</time>
					</trkpt>
					<trkpt lat="48.010250" lon="-4.480930">
						<ele>96</ele>
						<time>2026-06-27T22:27:10Z</time>
					</trkpt>
					<trkpt lat="48.009620" lon="-4.480040">
						<ele>94</ele>
						<time>2026-06-27T22:27:26Z</time>
					</trkpt>
					<trkpt lat="48.009210" lon="-4.479520">
						<ele>93</ele>
						<time>2026-06-27T22:27:35Z</time>
					</trkpt>
					<trkpt lat="48.008600" lon="-4.478680">
						<ele>93</ele>
						<time>2026-06-27T22:27:50Z</time>
					</trkpt>
					<trkpt lat="48.008090" lon="-4.478040">
						<ele>93</ele>
						<time>2026-06-27T22:28:02Z</time>
					</trkpt>
					<trkpt lat="48.007840" lon="-4.477780">
						<ele>93</ele>
						<time>2026-06-27T22:28:07Z</time>
					</trkpt>
					<trkpt lat="48.007240" lon="-4.477200">
						<ele>94</ele>
						<time>2026-06-27T22:28:20Z</time>
					</trkpt>
					<trkpt lat="48.006750" lon="-4.476800">
						<ele>93</ele>
						<time>2026-06-27T22:28:30Z</time>
					</trkpt>
					<trkpt lat="48.005290" lon="-4.475760">
						<ele>90</ele>
						<time>2026-06-27T22:28:59Z</time>
					</trkpt>
					<trkpt lat="48.005090" lon="-4.475580">
						<ele>90</ele>
						<time>2026-06-27T22:29:03Z</time>
					</trkpt>
					<trkpt lat="48.004880" lon="-4.475350">
						<ele>90</ele>
						<time>2026-06-27T22:29:07Z</time>
					</trkpt>
					<trkpt lat="48.004690" lon="-4.475100">
						<ele>90</ele>
						<time>2026-06-27T22:29:12Z</time>
					</trkpt>
					<trkpt lat="48.003860" lon="-4.473560">
						<ele>91</ele>
						<time>2026-06-27T22:29:35Z</time>
					</trkpt>
					<trkpt lat="48.003690" lon="-4.473300">
						<ele>91</ele>
						<time>2026-06-27T22:29:40Z</time>
					</trkpt>
					<trkpt lat="48.002020" lon="-4.471190">
						<ele>88</ele>
						<time>2026-06-27T22:30:19Z</time>
					</trkpt>
					<trkpt lat="48.000270" lon="-4.469090">
						<ele>80</ele>
						<time>2026-06-27T22:30:59Z</time>
					</trkpt>
					<trkpt lat="47.999950" lon="-4.468720">
						<ele>78</ele>
						<time>2026-06-27T22:31:06Z</time>
					</trkpt>
					<trkpt lat="47.999740" lon="-4.468520">
						<ele>77</ele>
						<time>2026-06-27T22:31:10Z</time>
					</trkpt>
					<trkpt lat="47.999560" lon="-4.468420">
						<ele>77</ele>
						<time>2026-06-27T22:31:14Z</time>
					</trkpt>
					<trkpt lat="47.999080" lon="-4.468220">
						<ele>75</ele>
						<time>2026-06-27T22:31:23Z</time>
					</trkpt>
					<trkpt lat="47.998510" lon="-4.468120">
						<ele>73</ele>
						<time>2026-06-27T22:31:33Z</time>
					</trkpt>
					<trkpt lat="47.998300" lon="-4.468100">
						<ele>73</ele>
						<time>2026-06-27T22:31:37Z</time>
					</trkpt>
					<trkpt lat="47.997960" lon="-4.468010">
						<ele>71</ele>
						<time>2026-06-27T22:31:43Z</time>
					</trkpt>
					<trkpt lat="47.996390" lon="-4.467700">
						<ele>65</ele>
						<time>2026-06-27T22:32:11Z</time>
					</trkpt>
					<trkpt lat="47.996000" lon="-4.467700">
						<ele>64</ele>
						<time>2026-06-27T22:32:18Z</time>
					</trkpt>
					<trkpt lat="47.995570" lon="-4.467740">
						<ele>62</ele>
						<time>2026-06-27T22:32:25Z</time>
					</trkpt>
					<trkpt lat="47.994930" lon="-4.467940">
						<ele>61</ele>
						<time>2026-06-27T22:32:37Z</time>
					</trkpt>
					<trkpt lat="47.994510" lon="-4.468030">
						<ele>61</ele>
						<time>2026-06-27T22:32:45Z</time>
					</trkpt>
					<trkpt lat="47.994200" lon="-4.468050">
						<ele>61</ele>
						<time>2026-06-27T22:32:50Z</time>
					</trkpt>
					<trkpt lat="47.993940" lon="-4.467960">
						<ele>61</ele>
						<time>2026-06-27T22:32:55Z</time>
					</trkpt>
					<trkpt lat="47.993580" lon="-4.467780">
						<ele>60</ele>
						<time>2026-06-27T22:33:02Z</time>
					</trkpt>
					<trkpt lat="47.993300" lon="-4.467520">
						<ele>60</ele>
						<time>2026-06-27T22:33:08Z</time>
					</trkpt>
					<trkpt lat="47.993130" lon="-4.467290">
						<ele>59</ele>
						<time>2026-06-27T22:33:12Z</time>
					</trkpt>
					<trkpt lat="47.993220" lon="-4.465900">
						<ele>58</ele>
						<time>2026-06-27T22:33:28Z</time>
					</trkpt>
					<trkpt lat="47.993250" lon="-4.465240">
						<ele>57</ele>
						<time>2026-06-27T22:33:36Z</time>
					</trkpt>
					<trkpt lat="47.993200" lon="-4.465100">
						<ele>57</ele>
						<time>2026-06-27T22:33:38Z</time>
					</trkpt>
					<trkpt lat="47.993020" lon="-4.464970">
						<ele>56</ele>
						<time>2026-06-27T22:33:42Z</time>
					</trkpt>
					<trkpt lat="47.992820" lon="-4.464960">
						<ele>56</ele>
						<time>2026-06-27T22:33:45Z</time>
					</trkpt>
					<trkpt lat="47.992710" lon="-4.464930">
						<ele>55</ele>
						<time>2026-06-27T22:33:47Z</time>
					</trkpt>
					<trkpt lat="47.992640" lon="-4.464930">
						<ele>55</ele>
						<time>2026-06-27T22:33:48Z</time>
					</trkpt>
					<trkpt lat="47.992550" lon="-4.464970">
						<ele>55</ele>
						<time>2026-06-27T22:33:50Z</time>
					</trkpt>
					<trkpt lat="47.992420" lon="-4.465110">
						<ele>54</ele>
						<time>2026-06-27T22:33:53Z</time>
					</trkpt>
					<trkpt lat="47.992310" lon="-4.465330">
						<ele>54</ele>
						<time>2026-06-27T22:33:56Z</time>
					</trkpt>
					<trkpt lat="47.992240" lon="-4.465710">
						<ele>53</ele>
						<time>2026-06-27T22:34:01Z</time>
					</trkpt>
					<trkpt lat="47.992200" lon="-4.465820">
						<ele>53</ele>
						<time>2026-06-27T22:34:02Z</time>
					</trkpt>
					<trkpt lat="47.992180" lon="-4.465820">
						<ele>53</ele>
						<time>2026-06-27T22:34:03Z</time>
					</trkpt>
					<trkpt lat="47.992110" lon="-4.465730">
						<ele>52</ele>
						<time>2026-06-27T22:34:04Z</time>
					</trkpt>
					<trkpt lat="47.991950" lon="-4.465610">
						<ele>51</ele>
						<time>2026-06-27T22:34:08Z</time>
					</trkpt>
					<trkpt lat="47.991760" lon="-4.465550">
						<ele>49</ele>
						<time>2026-06-27T22:34:11Z</time>
					</trkpt>
					<trkpt lat="47.991530" lon="-4.465520">
						<ele>47</ele>
						<time>2026-06-27T22:34:15Z</time>
					</trkpt>
					<trkpt lat="47.990400" lon="-4.465430">
						<ele>39</ele>
						<time>2026-06-27T22:34:35Z</time>
					</trkpt>
					<trkpt lat="47.989630" lon="-4.465450">
						<ele>37</ele>
						<time>2026-06-27T22:34:49Z</time>
					</trkpt>
					<trkpt lat="47.989080" lon="-4.465630">
						<ele>35</ele>
						<time>2026-06-27T22:34:59Z</time>
					</trkpt>
					<trkpt lat="47.988610" lon="-4.465820">
						<ele>32</ele>
						<time>2026-06-27T22:35:08Z</time>
					</trkpt>
					<trkpt lat="47.988500" lon="-4.465850">
						<ele>31</ele>
						<time>2026-06-27T22:35:10Z</time>
					</trkpt>
					<trkpt lat="47.988210" lon="-4.465860">
						<ele>29</ele>
						<time>2026-06-27T22:35:15Z</time>
					</trkpt>
					<trkpt lat="47.987940" lon="-4.465770">
						<ele>27</ele>
						<time>2026-06-27T22:35:20Z</time>
					</trkpt>
					<trkpt lat="47.987730" lon="-4.465630">
						<ele>25</ele>
						<time>2026-06-27T22:35:24Z</time>
					</trkpt>
					<trkpt lat="47.987460" lon="-4.465390">
						<ele>23</ele>
						<time>2026-06-27T22:35:29Z</time>
					</trkpt>
					<trkpt lat="47.987100" lon="-4.465130">
						<ele>21</ele>
						<time>2026-06-27T22:35:36Z</time>
					</trkpt>
					<trkpt lat="47.987030" lon="-4.465220">
						<ele>21</ele>
						<time>2026-06-27T22:35:38Z</time>
					</trkpt>
					<trkpt lat="47.986740" lon="-4.465310">
						<ele>21</ele>
						<time>2026-06-27T22:35:43Z</time>
					</trkpt>
					<trkpt lat="47.986680" lon="-4.465350">
						<ele>21</ele>
						<time>2026-06-27T22:35:45Z</time>
					</trkpt>
					<trkpt lat="47.986640" lon="-4.465450">
						<ele>21</ele>
						<time>2026-06-27T22:35:46Z</time>
					</trkpt>
					<trkpt lat="47.986630" lon="-4.465830">
						<ele>23</ele>
						<time>2026-06-27T22:35:50Z</time>
					</trkpt>
					<trkpt lat="47.986660" lon="-4.466380">
						<ele>24</ele>
						<time>2026-06-27T22:35:57Z</time>
					</trkpt>
					<trkpt lat="47.986910" lon="-4.467880">
						<ele>27</ele>
						<time>2026-06-27T22:36:15Z</time>
					</trkpt>
					<trkpt lat="47.987150" lon="-4.469040">
						<ele>29</ele>
						<time>2026-06-27T22:36:30Z</time>
					</trkpt>
					<trkpt lat="47.987350" lon="-4.470320">
						<ele>31</ele>
						<time>2026-06-27T22:36:46Z</time>
					</trkpt>
					<trkpt lat="47.987530" lon="-4.471310">
						<ele>29</ele>
						<time>2026-06-27T22:36:58Z</time>
					</trkpt>
					<trkpt lat="47.987880" lon="-4.473670">
						<ele>29</ele>
						<time>2026-06-27T22:37:27Z</time>
					</trkpt>
					<trkpt lat="47.987930" lon="-4.473880">
						<ele>29</ele>
						<time>2026-06-27T22:37:29Z</time>
					</trkpt>
					<trkpt lat="47.988350" lon="-4.475190">
						<ele>28</ele>
						<time>2026-06-27T22:37:47Z</time>
					</trkpt>
					<trkpt lat="47.988850" lon="-4.476910">
						<ele>16</ele>
						<time>2026-06-27T22:38:09Z</time>
					</trkpt>
					<trkpt lat="47.988900" lon="-4.477050">
						<ele>15</ele>
						<time>2026-06-27T22:38:11Z</time>
					</trkpt>
					<trkpt lat="47.989050" lon="-4.477300">
						<ele>14</ele>
						<time>2026-06-27T22:38:15Z</time>
					</trkpt>
					<trkpt lat="47.989250" lon="-4.477440">
						<ele>14</ele>
						<time>2026-06-27T22:38:19Z</time>
					</trkpt>
					<trkpt lat="47.989380" lon="-4.477490">
						<ele>13</ele>
						<time>2026-06-27T22:38:21Z</time>
					</trkpt>
					<trkpt lat="47.990230" lon="-4.477520">
						<ele>10</ele>
						<time>2026-06-27T22:38:36Z</time>
					</trkpt>
					<trkpt lat="47.990670" lon="-4.477710">
						<ele>9</ele>
						<time>2026-06-27T22:38:44Z</time>
					</trkpt>
					<trkpt lat="47.990930" lon="-4.477950">
						<ele>9</ele>
						<time>2026-06-27T22:38:50Z</time>
					</trkpt>
					<trkpt lat="47.991160" lon="-4.478230">
						<ele>11</ele>
						<time>2026-06-27T22:38:55Z</time>
					</trkpt>
					<trkpt lat="47.992640" lon="-4.479870">
						<ele>17</ele>
						<time>2026-06-27T22:39:28Z</time>
					</trkpt>
					<trkpt lat="47.993630" lon="-4.480930">
						<ele>27</ele>
						<time>2026-06-27T22:39:49Z</time>
					</trkpt>
					<trkpt lat="47.994000" lon="-4.481280">
						<ele>31</ele>
						<time>2026-06-27T22:39:57Z</time>
					</trkpt>
					<trkpt lat="47.994590" lon="-4.481760">
						<ele>35</ele>
						<time>2026-06-27T22:40:09Z</time>
					</trkpt>
					<trkpt lat="47.994990" lon="-4.482150">
						<ele>37</ele>
						<time>2026-06-27T22:40:18Z</time>
					</trkpt>
					<trkpt lat="47.995000" lon="-4.482030">
						<ele>38</ele>
						<time>2026-06-27T22:40:19Z</time>
					</trkpt>
					<trkpt lat="47.994760" lon="-4.481350">
						<ele>42</ele>
						<time>2026-06-27T22:40:28Z</time>
					</trkpt>
					<trkpt lat="47.994300" lon="-4.480420">
						<ele>45</ele>
						<time>2026-06-27T22:40:42Z</time>
					</trkpt>
					<trkpt lat="47.993680" lon="-4.478670">
						<ele>46</ele>
						<time>2026-06-27T22:41:06Z</time>
					</trkpt>
					<trkpt lat="47.993550" lon="-4.478060">
						<ele>47</ele>
						<time>2026-06-27T22:41:13Z</time>
					</trkpt>
					<trkpt lat="47.993380" lon="-4.476640">
						<ele>48</ele>
						<time>2026-06-27T22:41:30Z</time>
					</trkpt>
					<trkpt lat="47.993270" lon="-4.475920">
						<ele>48</ele>
						<time>2026-06-27T22:41:39Z</time>
					</trkpt>
					<trkpt lat="47.993240" lon="-4.474550">
						<ele>45</ele>
						<time>2026-06-27T22:41:56Z</time>
					</trkpt>
					<trkpt lat="47.993260" lon="-4.474440">
						<ele>45</ele>
						<time>2026-06-27T22:41:57Z</time>
					</trkpt>
					<trkpt lat="47.993300" lon="-4.474390">
						<ele>45</ele>
						<time>2026-06-27T22:41:58Z</time>
					</trkpt>
					<trkpt lat="47.993340" lon="-4.474350">
						<ele>45</ele>
						<time>2026-06-27T22:41:59Z</time>
					</trkpt>
					<trkpt lat="47.994440" lon="-4.474180">
						<ele>47</ele>
						<time>2026-06-27T22:42:18Z</time>
					</trkpt>
					<trkpt lat="47.994520" lon="-4.474190">
						<ele>48</ele>
						<time>2026-06-27T22:42:20Z</time>
					</trkpt>
					<trkpt lat="47.994700" lon="-4.474280">
						<ele>49</ele>
						<time>2026-06-27T22:42:23Z</time>
					</trkpt>
					<trkpt lat="47.995020" lon="-4.474540">
						<ele>53</ele>
						<time>2026-06-27T22:42:30Z</time>
					</trkpt>
					<trkpt lat="47.995170" lon="-4.474690">
						<ele>54</ele>
						<time>2026-06-27T22:42:33Z</time>
					</trkpt>
					<trkpt lat="47.995350" lon="-4.474960">
						<ele>55</ele>
						<time>2026-06-27T22:42:37Z</time>
					</trkpt>
					<trkpt lat="47.995550" lon="-4.475400">
						<ele>56</ele>
						<time>2026-06-27T22:42:44Z</time>
					</trkpt>
					<trkpt lat="47.995660" lon="-4.475930">
						<ele>57</ele>
						<time>2026-06-27T22:42:50Z</time>
					</trkpt>
					<trkpt lat="47.996110" lon="-4.476640">
						<ele>60</ele>
						<time>2026-06-27T22:43:02Z</time>
					</trkpt>
					<trkpt lat="47.996190" lon="-4.476690">
						<ele>60</ele>
						<time>2026-06-27T22:43:04Z</time>
					</trkpt>
					<trkpt lat="47.996330" lon="-4.476670">
						<ele>60</ele>
						<time>2026-06-27T22:43:06Z</time>
					</trkpt>
					<trkpt lat="47.996400" lon="-4.476680">
						<ele>60</ele>
						<time>2026-06-27T22:43:07Z</time>
					</trkpt>
					<trkpt lat="47.996690" lon="-4.476810">
						<ele>60</ele>
						<time>2026-06-27T22:43:13Z</time>
					</trkpt>
					<trkpt lat="47.996840" lon="-4.476940">
						<ele>60</ele>
						<time>2026-06-27T22:43:16Z</time>
					</trkpt>
					<trkpt lat="47.997580" lon="-4.477000">
						<ele>61</ele>
						<time>2026-06-27T22:43:29Z</time>
					</trkpt>
					<trkpt lat="47.997670" lon="-4.477020">
						<ele>61</ele>
						<time>2026-06-27T22:43:31Z</time>
					</trkpt>
					<trkpt lat="47.997750" lon="-4.477060">
						<ele>62</ele>
						<time>2026-06-27T22:43:32Z</time>
					</trkpt>
					<trkpt lat="47.997950" lon="-4.477220">
						<ele>63</ele>
						<time>2026-06-27T22:43:36Z</time>
					</trkpt>
					<trkpt lat="47.998420" lon="-4.477620">
						<ele>67</ele>
						<time>2026-06-27T22:43:46Z</time>
					</trkpt>
					<trkpt lat="47.999000" lon="-4.478470">
						<ele>72</ele>
						<time>2026-06-27T22:44:00Z</time>
					</trkpt>
					<trkpt lat="47.999210" lon="-4.478950">
						<ele>74</ele>
						<time>2026-06-27T22:44:07Z</time>
					</trkpt>
					<trkpt lat="47.999560" lon="-4.479890">
						<ele>77</ele>
						<time>2026-06-27T22:44:20Z</time>
					</trkpt>
					<trkpt lat="47.999630" lon="-4.480030">
						<ele>78</ele>
						<time>2026-06-27T22:44:22Z</time>
					</trkpt>
					<trkpt lat="47.999790" lon="-4.480300">
						<ele>78</ele>
						<time>2026-06-27T22:44:26Z</time>
					</trkpt>
					<trkpt lat="47.999930" lon="-4.480410">
						<ele>78</ele>
						<time>2026-06-27T22:44:29Z</time>
					</trkpt>
					<trkpt lat="48.000070" lon="-4.480440">
						<ele>79</ele>
						<time>2026-06-27T22:44:32Z</time>
					</trkpt>
					<trkpt lat="48.000390" lon="-4.480590">
						<ele>80</ele>
						<time>2026-06-27T22:44:38Z</time>
					</trkpt>
					<trkpt lat="48.000710" lon="-4.480840">
						<ele>81</ele>
						<time>2026-06-27T22:44:44Z</time>
					</trkpt>
					<trkpt lat="48.000990" lon="-4.480950">
						<ele>82</ele>
						<time>2026-06-27T22:44:49Z</time>
					</trkpt>
					<trkpt lat="48.001340" lon="-4.481050">
						<ele>82</ele>
						<time>2026-06-27T22:44:55Z</time>
					</trkpt>
					<trkpt lat="48.001550" lon="-4.481160">
						<ele>82</ele>
						<time>2026-06-27T22:44:59Z</time>
					</trkpt>
					<trkpt lat="48.002110" lon="-4.481590">
						<ele>82</ele>
						<time>2026-06-27T22:45:11Z</time>
					</trkpt>
					<trkpt lat="48.002710" lon="-4.482080">
						<ele>83</ele>
						<time>2026-06-27T22:45:23Z</time>
					</trkpt>
					<trkpt lat="48.004020" lon="-4.483230">
						<ele>87</ele>
						<time>2026-06-27T22:45:50Z</time>
					</trkpt>
					<trkpt lat="48.004050" lon="-4.483290">
						<ele>87</ele>
						<time>2026-06-27T22:45:51Z</time>
					</trkpt>
					<trkpt lat="48.004070" lon="-4.483470">
						<ele>87</ele>
						<time>2026-06-27T22:45:53Z</time>
					</trkpt>
					<trkpt lat="48.004150" lon="-4.484920">
						<ele>86</ele>
						<time>2026-06-27T22:46:10Z</time>
					</trkpt>
					<trkpt lat="48.004160" lon="-4.485780">
						<ele>84</ele>
						<time>2026-06-27T22:46:20Z</time>
					</trkpt>
					<trkpt lat="48.004180" lon="-4.486260">
						<ele>84</ele>
						<time>2026-06-27T22:46:26Z</time>
					</trkpt>
					<trkpt lat="48.004170" lon="-4.486560">
						<ele>84</ele>
						<time>2026-06-27T22:46:30Z</time>
					</trkpt>
					<trkpt lat="48.004060" lon="-4.487740">
						<ele>83</ele>
						<time>2026-06-27T22:46:44Z</time>
					</trkpt>
					<trkpt lat="48.004020" lon="-4.488360">
						<ele>81</ele>
						<time>2026-06-27T22:46:51Z</time>
					</trkpt>
					<trkpt lat="48.004170" lon="-4.488360">
						<ele>81</ele>
						<time>2026-06-27T22:46:54Z</time>
					</trkpt>
					<trkpt lat="48.004510" lon="-4.488250">
						<ele>82</ele>
						<time>2026-06-27T22:47:00Z</time>
					</trkpt>
					<trkpt lat="48.005390" lon="-4.488060">
						<ele>84</ele>
						<time>2026-06-27T22:47:16Z</time>
					</trkpt>
					<trkpt lat="48.005770" lon="-4.487950">
						<ele>83</ele>
						<time>2026-06-27T22:47:23Z</time>
					</trkpt>
					<trkpt lat="48.005930" lon="-4.487950">
						<ele>84</ele>
						<time>2026-06-27T22:47:26Z</time>
					</trkpt>
					<trkpt lat="48.006930" lon="-4.488080">
						<ele>85</ele>
						<time>2026-06-27T22:47:44Z</time>
					</trkpt>
					<trkpt lat="48.007190" lon="-4.488010">
						<ele>85</ele>
						<time>2026-06-27T22:47:48Z</time>
					</trkpt>
					<trkpt lat="48.007360" lon="-4.487930">
						<ele>84</ele>
						<time>2026-06-27T22:47:51Z</time>
					</trkpt>
					<trkpt lat="48.006980" lon="-4.486030">
						<ele>87</ele>
						<time>2026-06-27T22:48:15Z</time>
					</trkpt>
					<trkpt lat="48.006830" lon="-4.485360">
						<ele>87</ele>
						<time>2026-06-27T22:48:23Z</time>
					</trkpt>
					<trkpt lat="48.006830" lon="-4.485330">
						<ele>87</ele>
						<time>2026-06-27T22:48:24Z</time>
					</trkpt>
					<trkpt lat="48.007030" lon="-4.485240">
						<ele>87</ele>
						<time>2026-06-27T22:48:28Z</time>
					</trkpt>
					<trkpt lat="48.007310" lon="-4.485140">
						<ele>88</ele>
						<time>2026-06-27T22:48:33Z</time>
					</trkpt>
					<trkpt lat="48.008180" lon="-4.485000">
						<ele>87</ele>
						<time>2026-06-27T22:48:48Z</time>
					</trkpt>
					<trkpt lat="48.008350" lon="-4.485000">
						<ele>87</ele>
						<time>2026-06-27T22:48:51Z</time>
					</trkpt>
					<trkpt lat="48.008660" lon="-4.485040">
						<ele>87</ele>
						<time>2026-06-27T22:48:57Z</time>
					</trkpt>
					<trkpt lat="48.008950" lon="-4.485110">
						<ele>88</ele>
						<time>2026-06-27T22:49:02Z</time>
					</trkpt>
					<trkpt lat="48.009370" lon="-4.485170">
						<ele>89</ele>
						<time>2026-06-27T22:49:10Z</time>
					</trkpt>
					<trkpt lat="48.010460" lon="-4.485260">
						<ele>92</ele>
						<time>2026-06-27T22:49:29Z</time>
					</trkpt>
					<trkpt lat="48.013110" lon="-4.485560">
						<ele>98</ele>
						<time>2026-06-27T22:50:16Z</time>
					</trkpt>
					<trkpt lat="48.013580" lon="-4.485640">
						<ele>99</ele>
						<time>2026-06-27T22:50:25Z</time>
					</trkpt>
					<trkpt lat="48.013840" lon="-4.485650">
						<ele>100</ele>
						<time>2026-06-27T22:50:29Z</time>
					</trkpt>
					<trkpt lat="48.013860" lon="-4.485600">
						<ele>100</ele>
						<time>2026-06-27T22:50:30Z</time>
					</trkpt>
					<trkpt lat="48.013850" lon="-4.485490">
						<ele>100</ele>
						<time>2026-06-27T22:50:31Z</time>
					</trkpt>
					<trkpt lat="48.013650" lon="-4.484350">
						<ele>100</ele>
						<time>2026-06-27T22:50:45Z</time>
					</trkpt>
					<trkpt lat="48.013630" lon="-4.484330">
						<ele>100</ele>
						<time>2026-06-27T22:50:46Z</time>
					</trkpt>
					<trkpt lat="48.013010" lon="-4.484310">
						<ele>99</ele>
						<time>2026-06-27T22:50:57Z</time>
					</trkpt>
					<trkpt lat="48.012840" lon="-4.484230">
						<ele>99</ele>
						<time>2026-06-27T22:51:00Z</time>
					</trkpt>
					<trkpt lat="48.012600" lon="-4.484040">
						<ele>98</ele>
						<time>2026-06-27T22:51:05Z</time>
					</trkpt>
					<trkpt lat="48.012320" lon="-4.483710">
						<ele>98</ele>
						<time>2026-06-27T22:51:11Z</time>
					</trkpt>
					<trkpt lat="48.011910" lon="-4.483110">
						<ele>99</ele>
						<time>2026-06-27T22:51:21Z</time>
					</trkpt>
					<trkpt lat="48.010340" lon="-4.481050">
						<ele>96</ele>
						<time>2026-06-27T22:51:59Z</time>
					</trkpt>
					<trkpt lat="48.009620" lon="-4.480040">
						<ele>94</ele>
						<time>2026-06-27T22:52:16Z</time>
					</trkpt>
					<trkpt lat="48.009220" lon="-4.479530">
						<ele>93</ele>
						<time>2026-06-27T22:52:25Z</time>
					</trkpt>
					<trkpt lat="48.008540" lon="-4.478610">
						<ele>93</ele>
						<time>2026-06-27T22:52:42Z</time>
					</trkpt>
					<trkpt lat="48.008090" lon="-4.478040">
						<ele>93</ele>
						<time>2026-06-27T22:52:52Z</time>
					</trkpt>
					<trkpt lat="48.007840" lon="-4.477780">
						<ele>93</ele>
						<time>2026-06-27T22:52:58Z</time>
					</trkpt>
					<trkpt lat="48.007240" lon="-4.477200">
						<ele>94</ele>
						<time>2026-06-27T22:53:10Z</time>
					</trkpt>
					<trkpt lat="48.006750" lon="-4.476800">
						<ele>93</ele>
						<time>2026-06-27T22:53:20Z</time>
					</trkpt>
					<trkpt lat="48.005290" lon="-4.475760">
						<ele>90</ele>
						<time>2026-06-27T22:53:49Z</time>
					</trkpt>
					<trkpt lat="48.005090" lon="-4.475580">
						<ele>90</ele>
						<time>2026-06-27T22:53:53Z</time>
					</trkpt>
					<trkpt lat="48.004880" lon="-4.475360">
						<ele>90</ele>
						<time>2026-06-27T22:53:58Z</time>
					</trkpt>
					<trkpt lat="48.004690" lon="-4.475100">
						<ele>90</ele>
						<time>2026-06-27T22:54:02Z</time>
					</trkpt>
					<trkpt lat="48.004070" lon="-4.473940">
						<ele>91</ele>
						<time>2026-06-27T22:54:20Z</time>
					</trkpt>
					<trkpt lat="48.003860" lon="-4.473560">
						<ele>91</ele>
						<time>2026-06-27T22:54:26Z</time>
					</trkpt>
					<trkpt lat="48.003690" lon="-4.473300">
						<ele>91</ele>
						<time>2026-06-27T22:54:30Z</time>
					</trkpt>
					<trkpt lat="48.002020" lon="-4.471190">
						<ele>88</ele>
						<time>2026-06-27T22:55:09Z</time>
					</trkpt>
					<trkpt lat="48.000220" lon="-4.469030">
						<ele>79</ele>
						<time>2026-06-27T22:55:50Z</time>
					</trkpt>
					<trkpt lat="47.999950" lon="-4.468720">
						<ele>78</ele>
						<time>2026-06-27T22:55:56Z</time>
					</trkpt>
					<trkpt lat="47.999740" lon="-4.468520">
						<ele>77</ele>
						<time>2026-06-27T22:56:01Z</time>
					</trkpt>
					<trkpt lat="47.999420" lon="-4.468350">
						<ele>77</ele>
						<time>2026-06-27T22:56:07Z</time>
					</trkpt>
					<trkpt lat="47.999080" lon="-4.468220">
						<ele>75</ele>
						<time>2026-06-27T22:56:13Z</time>
					</trkpt>
					<trkpt lat="47.998510" lon="-4.468120">
						<ele>73</ele>
						<time>2026-06-27T22:56:23Z</time>
					</trkpt>
					<trkpt lat="47.998300" lon="-4.468100">
						<ele>73</ele>
						<time>2026-06-27T22:56:27Z</time>
					</trkpt>
					<trkpt lat="47.997960" lon="-4.468010">
						<ele>71</ele>
						<time>2026-06-27T22:56:33Z</time>
					</trkpt>
					<trkpt lat="47.996390" lon="-4.467700">
						<ele>65</ele>
						<time>2026-06-27T22:57:01Z</time>
					</trkpt>
					<trkpt lat="47.996000" lon="-4.467700">
						<ele>64</ele>
						<time>2026-06-27T22:57:08Z</time>
					</trkpt>
					<trkpt lat="47.995570" lon="-4.467740">
						<ele>62</ele>
						<time>2026-06-27T22:57:16Z</time>
					</trkpt>
					<trkpt lat="47.994930" lon="-4.467940">
						<ele>61</ele>
						<time>2026-06-27T22:57:28Z</time>
					</trkpt>
					<trkpt lat="47.994520" lon="-4.468030">
						<ele>61</ele>
						<time>2026-06-27T22:57:35Z</time>
					</trkpt>
					<trkpt lat="47.994210" lon="-4.468050">
						<ele>61</ele>
						<time>2026-06-27T22:57:40Z</time>
					</trkpt>
					<trkpt lat="47.993940" lon="-4.467960">
						<ele>61</ele>
						<time>2026-06-27T22:57:45Z</time>
					</trkpt>
					<trkpt lat="47.993580" lon="-4.467780">
						<ele>60</ele>
						<time>2026-06-27T22:57:52Z</time>
					</trkpt>
					<trkpt lat="47.993300" lon="-4.467520">
						<ele>60</ele>
						<time>2026-06-27T22:57:58Z</time>
					</trkpt>
					<trkpt lat="47.993130" lon="-4.467290">
						<ele>59</ele>
						<time>2026-06-27T22:58:02Z</time>
					</trkpt>
					<trkpt lat="47.993220" lon="-4.465900">
						<ele>58</ele>
						<time>2026-06-27T22:58:19Z</time>
					</trkpt>
					<trkpt lat="47.993250" lon="-4.465240">
						<ele>57</ele>
						<time>2026-06-27T22:58:27Z</time>
					</trkpt>
					<trkpt lat="47.993200" lon="-4.465100">
						<ele>57</ele>
						<time>2026-06-27T22:58:28Z</time>
					</trkpt>
					<trkpt lat="47.993020" lon="-4.464970">
						<ele>56</ele>
						<time>2026-06-27T22:58:32Z</time>
					</trkpt>
					<trkpt lat="47.992830" lon="-4.464960">
						<ele>56</ele>
						<time>2026-06-27T22:58:35Z</time>
					</trkpt>
					<trkpt lat="47.992710" lon="-4.464930">
						<ele>55</ele>
						<time>2026-06-27T22:58:38Z</time>
					</trkpt>
					<trkpt lat="47.992640" lon="-4.464930">
						<ele>55</ele>
						<time>2026-06-27T22:58:39Z</time>
					</trkpt>
					<trkpt lat="47.992550" lon="-4.464970">
						<ele>55</ele>
						<time>2026-06-27T22:58:40Z</time>
					</trkpt>
					<trkpt lat="47.992420" lon="-4.465110">
						<ele>54</ele>
						<time>2026-06-27T22:58:43Z</time>
					</trkpt>
					<trkpt lat="47.992310" lon="-4.465330">
						<ele>54</ele>
						<time>2026-06-27T22:58:47Z</time>
					</trkpt>
					<trkpt lat="47.992240" lon="-4.465710">
						<ele>53</ele>
						<time>2026-06-27T22:58:51Z</time>
					</trkpt>
					<trkpt lat="47.992200" lon="-4.465820">
						<ele>53</ele>
						<time>2026-06-27T22:58:53Z</time>
					</trkpt>
					<trkpt lat="47.992180" lon="-4.465820">
						<ele>53</ele>
						<time>2026-06-27T22:58:53Z</time>
					</trkpt>
					<trkpt lat="47.992110" lon="-4.465730">
						<ele>52</ele>
						<time>2026-06-27T22:58:55Z</time>
					</trkpt>
					<trkpt lat="47.991950" lon="-4.465610">
						<ele>51</ele>
						<time>2026-06-27T22:58:58Z</time>
					</trkpt>
					<trkpt lat="47.991760" lon="-4.465550">
						<ele>49</ele>
						<time>2026-06-27T22:59:01Z</time>
					</trkpt>
					<trkpt lat="47.991530" lon="-4.465520">
						<ele>47</ele>
						<time>2026-06-27T22:59:06Z</time>
					</trkpt>
					<trkpt lat="47.990640" lon="-4.465450">
						<ele>40</ele>
						<time>2026-06-27T22:59:21Z</time>
					</trkpt>
					<trkpt lat="47.990160" lon="-4.465430">
						<ele>38</ele>
						<time>2026-06-27T22:59:30Z</time>
					</trkpt>
					<trkpt lat="47.989630" lon="-4.465450">
						<ele>37</ele>
						<time>2026-06-27T22:59:39Z</time>
					</trkpt>
					<trkpt lat="47.989080" lon="-4.465630">
						<ele>35</ele>
						<time>2026-06-27T22:59:49Z</time>
					</trkpt>
					<trkpt lat="47.988610" lon="-4.465820">
						<ele>32</ele>
						<time>2026-06-27T22:59:58Z</time>
					</trkpt>
					<trkpt lat="47.988500" lon="-4.465850">
						<ele>31</ele>
						<time>2026-06-27T23:00:00Z</time>
					</trkpt>
					<trkpt lat="47.988210" lon="-4.465860">
						<ele>29</ele>
						<time>2026-06-27T23:00:05Z</time>
					</trkpt>
					<trkpt lat="47.987940" lon="-4.465770">
						<ele>27</ele>
						<time>2026-06-27T23:00:10Z</time>
					</trkpt>
					<trkpt lat="47.987720" lon="-4.465630">
						<ele>25</ele>
						<time>2026-06-27T23:00:14Z</time>
					</trkpt>
					<trkpt lat="47.987460" lon="-4.465390">
						<ele>23</ele>
						<time>2026-06-27T23:00:20Z</time>
					</trkpt>
					<trkpt lat="47.987100" lon="-4.465130">
						<ele>21</ele>
						<time>2026-06-27T23:00:27Z</time>
					</trkpt>
					<trkpt lat="47.987030" lon="-4.465220">
						<ele>21</ele>
						<time>2026-06-27T23:00:29Z</time>
					</trkpt>
					<trkpt lat="47.986740" lon="-4.465310">
						<ele>21</ele>
						<time>2026-06-27T23:00:34Z</time>
					</trkpt>
					<trkpt lat="47.986680" lon="-4.465350">
						<ele>21</ele>
						<time>2026-06-27T23:00:35Z</time>
					</trkpt>
					<trkpt lat="47.986660" lon="-4.465400">
						<ele>21</ele>
						<time>2026-06-27T23:00:36Z</time>
					</trkpt>
					<trkpt lat="47.986640" lon="-4.465460">
						<ele>21</ele>
						<time>2026-06-27T23:00:37Z</time>
					</trkpt>
					<trkpt lat="47.986630" lon="-4.465840">
						<ele>23</ele>
						<time>2026-06-27T23:00:41Z</time>
					</trkpt>
					<trkpt lat="47.986660" lon="-4.466380">
						<ele>24</ele>
						<time>2026-06-27T23:00:47Z</time>
					</trkpt>
					<trkpt lat="47.986910" lon="-4.467890">
						<ele>27</ele>
						<time>2026-06-27T23:01:06Z</time>
					</trkpt>
					<trkpt lat="47.987150" lon="-4.469040">
						<ele>29</ele>
						<time>2026-06-27T23:01:20Z</time>
					</trkpt>
					<trkpt lat="47.987340" lon="-4.470270">
						<ele>31</ele>
						<time>2026-06-27T23:01:35Z</time>
					</trkpt>
					<trkpt lat="47.987530" lon="-4.471310">
						<ele>29</ele>
						<time>2026-06-27T23:01:48Z</time>
					</trkpt>
					<trkpt lat="47.987880" lon="-4.473680">
						<ele>29</ele>
						<time>2026-06-27T23:02:17Z</time>
					</trkpt>
					<trkpt lat="47.987990" lon="-4.474080">
						<ele>30</ele>
						<time>2026-06-27T23:02:22Z</time>
					</trkpt>
					<trkpt lat="47.988170" lon="-4.474600">
						<ele>29</ele>
						<time>2026-06-27T23:02:29Z</time>
					</trkpt>
					<trkpt lat="47.988900" lon="-4.477050">
						<ele>15</ele>
						<time>2026-06-27T23:03:01Z</time>
					</trkpt>
					<trkpt lat="47.989050" lon="-4.477300">
						<ele>14</ele>
						<time>2026-06-27T23:03:05Z</time>
					</trkpt>
					<trkpt lat="47.989250" lon="-4.477440">
						<ele>14</ele>
						<time>2026-06-27T23:03:09Z</time>
					</trkpt>
					<trkpt lat="47.989380" lon="-4.477490">
						<ele>13</ele>
						<time>2026-06-27T23:03:12Z</time>
					</trkpt>
					<trkpt lat="47.990230" lon="-4.477520">
						<ele>10</ele>
						<time>2026-06-27T23:03:27Z</time>
					</trkpt>
					<trkpt lat="47.990670" lon="-4.477710">
						<ele>9</ele>
						<time>2026-06-27T23:03:35Z</time>
					</trkpt>
					<trkpt lat="47.990780" lon="-4.477800">
						<ele>9</ele>
						<time>2026-06-27T23:03:37Z</time>
					</trkpt>
					<trkpt lat="47.990930" lon="-4.477950">
						<ele>9</ele>
						<time>2026-06-27T23:03:40Z</time>
					</trkpt>
					<trkpt lat="47.991160" lon="-4.478230">
						<ele>11</ele>
						<time>2026-06-27T23:03:46Z</time>
					</trkpt>
					<trkpt lat="47.992720" lon="-4.479960">
						<ele>18</ele>
						<time>2026-06-27T23:04:20Z</time>
					</trkpt>
					<trkpt lat="47.993560" lon="-4.480850">
						<ele>27</ele>
						<time>2026-06-27T23:04:38Z</time>
					</trkpt>
					<trkpt lat="47.993970" lon="-4.481260">
						<ele>31</ele>
						<time>2026-06-27T23:04:47Z</time>
					</trkpt>
					<trkpt lat="47.994590" lon="-4.481760">
						<ele>35</ele>
						<time>2026-06-27T23:05:00Z</time>
					</trkpt>
					<trkpt lat="47.994990" lon="-4.482150">
						<ele>37</ele>
						<time>2026-06-27T23:05:08Z</time>
					</trkpt>
					<trkpt lat="47.995000" lon="-4.482020">
						<ele>38</ele>
						<time>2026-06-27T23:05:10Z</time>
					</trkpt>
					<trkpt lat="47.994760" lon="-4.481350">
						<ele>42</ele>
						<time>2026-06-27T23:05:19Z</time>
					</trkpt>
					<trkpt lat="47.994300" lon="-4.480420">
						<ele>45</ele>
						<time>2026-06-27T23:05:33Z</time>
					</trkpt>
					<trkpt lat="47.993670" lon="-4.478660">
						<ele>46</ele>
						<time>2026-06-27T23:05:56Z</time>
					</trkpt>
					<trkpt lat="47.993550" lon="-4.478050">
						<ele>47</ele>
						<time>2026-06-27T23:06:04Z</time>
					</trkpt>
					<trkpt lat="47.993270" lon="-4.475920">
						<ele>48</ele>
						<time>2026-06-27T23:06:30Z</time>
					</trkpt>
					<trkpt lat="47.993240" lon="-4.474550">
						<ele>45</ele>
						<time>2026-06-27T23:06:46Z</time>
					</trkpt>
					<trkpt lat="47.993260" lon="-4.474440">
						<ele>45</ele>
						<time>2026-06-27T23:06:47Z</time>
					</trkpt>
					<trkpt lat="47.993340" lon="-4.474350">
						<ele>45</ele>
						<time>2026-06-27T23:06:49Z</time>
					</trkpt>
					<trkpt lat="47.994440" lon="-4.474180">
						<ele>47</ele>
						<time>2026-06-27T23:07:09Z</time>
					</trkpt>
					<trkpt lat="47.994520" lon="-4.474190">
						<ele>48</ele>
						<time>2026-06-27T23:07:10Z</time>
					</trkpt>
					<trkpt lat="47.994700" lon="-4.474280">
						<ele>49</ele>
						<time>2026-06-27T23:07:14Z</time>
					</trkpt>
					<trkpt lat="47.995020" lon="-4.474540">
						<ele>53</ele>
						<time>2026-06-27T23:07:20Z</time>
					</trkpt>
					<trkpt lat="47.995170" lon="-4.474690">
						<ele>54</ele>
						<time>2026-06-27T23:07:23Z</time>
					</trkpt>
					<trkpt lat="47.995340" lon="-4.474960">
						<ele>55</ele>
						<time>2026-06-27T23:07:28Z</time>
					</trkpt>
					<trkpt lat="47.995520" lon="-4.475320">
						<ele>56</ele>
						<time>2026-06-27T23:07:33Z</time>
					</trkpt>
					<trkpt lat="47.995550" lon="-4.475400">
						<ele>56</ele>
						<time>2026-06-27T23:07:34Z</time>
					</trkpt>
					<trkpt lat="47.995660" lon="-4.475930">
						<ele>57</ele>
						<time>2026-06-27T23:07:41Z</time>
					</trkpt>
					<trkpt lat="47.996110" lon="-4.476640">
						<ele>60</ele>
						<time>2026-06-27T23:07:53Z</time>
					</trkpt>
					<trkpt lat="47.996190" lon="-4.476690">
						<ele>60</ele>
						<time>2026-06-27T23:07:54Z</time>
					</trkpt>
					<trkpt lat="47.996330" lon="-4.476670">
						<ele>60</ele>
						<time>2026-06-27T23:07:57Z</time>
					</trkpt>
					<trkpt lat="47.996400" lon="-4.476680">
						<ele>60</ele>
						<time>2026-06-27T23:07:58Z</time>
					</trkpt>
					<trkpt lat="47.996690" lon="-4.476810">
						<ele>60</ele>
						<time>2026-06-27T23:08:03Z</time>
					</trkpt>
					<trkpt lat="47.996840" lon="-4.476940">
						<ele>60</ele>
						<time>2026-06-27T23:08:06Z</time>
					</trkpt>
					<trkpt lat="47.997670" lon="-4.477020">
						<ele>61</ele>
						<time>2026-06-27T23:08:21Z</time>
					</trkpt>
					<trkpt lat="47.997750" lon="-4.477060">
						<ele>62</ele>
						<time>2026-06-27T23:08:23Z</time>
					</trkpt>
					<trkpt lat="47.997950" lon="-4.477220">
						<ele>63</ele>
						<time>2026-06-27T23:08:27Z</time>
					</trkpt>
					<trkpt lat="47.998420" lon="-4.477620">
						<ele>67</ele>
						<time>2026-06-27T23:08:36Z</time>
					</trkpt>
					<trkpt lat="47.999000" lon="-4.478470">
						<ele>72</ele>
						<time>2026-06-27T23:08:51Z</time>
					</trkpt>
					<trkpt lat="47.999210" lon="-4.478950">
						<ele>74</ele>
						<time>2026-06-27T23:08:58Z</time>
					</trkpt>
					<trkpt lat="47.999620" lon="-4.480030">
						<ele>78</ele>
						<time>2026-06-27T23:09:12Z</time>
					</trkpt>
					<trkpt lat="47.999790" lon="-4.480300">
						<ele>78</ele>
						<time>2026-06-27T23:09:17Z</time>
					</trkpt>
					<trkpt lat="47.999930" lon="-4.480410">
						<ele>78</ele>
						<time>2026-06-27T23:09:20Z</time>
					</trkpt>
					<trkpt lat="48.000070" lon="-4.480440">
						<ele>79</ele>
						<time>2026-06-27T23:09:22Z</time>
					</trkpt>
					<trkpt lat="48.000390" lon="-4.480590">
						<ele>80</ele>
						<time>2026-06-27T23:09:28Z</time>
					</trkpt>
					<trkpt lat="48.000710" lon="-4.480840">
						<ele>81</ele>
						<time>2026-06-27T23:09:34Z</time>
					</trkpt>
					<trkpt lat="48.000910" lon="-4.480930">
						<ele>82</ele>
						<time>2026-06-27T23:09:38Z</time>
					</trkpt>
					<trkpt lat="48.001340" lon="-4.481050">
						<ele>82</ele>
						<time>2026-06-27T23:09:46Z</time>
					</trkpt>
					<trkpt lat="48.001550" lon="-4.481160">
						<ele>82</ele>
						<time>2026-06-27T23:09:50Z</time>
					</trkpt>
					<trkpt lat="48.002110" lon="-4.481590">
						<ele>82</ele>
						<time>2026-06-27T23:10:01Z</time>
					</trkpt>
					<trkpt lat="48.002710" lon="-4.482080">
						<ele>83</ele>
						<time>2026-06-27T23:10:13Z</time>
					</trkpt>
					<trkpt lat="48.004020" lon="-4.483230">
						<ele>87</ele>
						<time>2026-06-27T23:10:40Z</time>
					</trkpt>
					<trkpt lat="48.004050" lon="-4.483290">
						<ele>87</ele>
						<time>2026-06-27T23:10:41Z</time>
					</trkpt>
					<trkpt lat="48.004070" lon="-4.483470">
						<ele>87</ele>
						<time>2026-06-27T23:10:43Z</time>
					</trkpt>
					<trkpt lat="48.004150" lon="-4.484920">
						<ele>86</ele>
						<time>2026-06-27T23:11:01Z</time>
					</trkpt>
					<trkpt lat="48.004160" lon="-4.485780">
						<ele>84</ele>
						<time>2026-06-27T23:11:11Z</time>
					</trkpt>
					<trkpt lat="48.004180" lon="-4.486260">
						<ele>84</ele>
						<time>2026-06-27T23:11:17Z</time>
					</trkpt>
					<trkpt lat="48.004170" lon="-4.486560">
						<ele>84</ele>
						<time>2026-06-27T23:11:20Z</time>
					</trkpt>
					<trkpt lat="48.004070" lon="-4.487610">
						<ele>83</ele>
						<time>2026-06-27T23:11:33Z</time>
					</trkpt>
					<trkpt lat="48.004020" lon="-4.488360">
						<ele>81</ele>
						<time>2026-06-27T23:11:42Z</time>
					</trkpt>
					<trkpt lat="48.004170" lon="-4.488360">
						<ele>81</ele>
						<time>2026-06-27T23:11:44Z</time>
					</trkpt>
					<trkpt lat="48.004510" lon="-4.488250">
						<ele>82</ele>
						<time>2026-06-27T23:11:51Z</time>
					</trkpt>
					<trkpt lat="48.005390" lon="-4.488060">
						<ele>84</ele>
						<time>2026-06-27T23:12:07Z</time>
					</trkpt>
					<trkpt lat="48.005760" lon="-4.487950">
						<ele>84</ele>
						<time>2026-06-27T23:12:13Z</time>
					</trkpt>
					<trkpt lat="48.005930" lon="-4.487950">
						<ele>84</ele>
						<time>2026-06-27T23:12:16Z</time>
					</trkpt>
					<trkpt lat="48.006930" lon="-4.488080">
						<ele>85</ele>
						<time>2026-06-27T23:12:34Z</time>
					</trkpt>
					<trkpt lat="48.007190" lon="-4.488010">
						<ele>85</ele>
						<time>2026-06-27T23:12:39Z</time>
					</trkpt>
					<trkpt lat="48.007360" lon="-4.487930">
						<ele>84</ele>
						<time>2026-06-27T23:12:42Z</time>
					</trkpt>
					<trkpt lat="48.006980" lon="-4.486030">
						<ele>87</ele>
						<time>2026-06-27T23:13:06Z</time>
					</trkpt>
					<trkpt lat="48.006840" lon="-4.485430">
						<ele>87</ele>
						<time>2026-06-27T23:13:13Z</time>
					</trkpt>
					<trkpt lat="48.006830" lon="-4.485330">
						<ele>87</ele>
						<time>2026-06-27T23:13:14Z</time>
					</trkpt>
					<trkpt lat="48.007030" lon="-4.485240">
						<ele>87</ele>
						<time>2026-06-27T23:13:18Z</time>
					</trkpt>
					<trkpt lat="48.007300" lon="-4.485140">
						<ele>88</ele>
						<time>2026-06-27T23:13:23Z</time>
					</trkpt>
					<trkpt lat="48.008180" lon="-4.485000">
						<ele>87</ele>
						<time>2026-06-27T23:13:39Z</time>
					</trkpt>
					<trkpt lat="48.008340" lon="-4.485000">
						<ele>87</ele>
						<time>2026-06-27T23:13:42Z</time>
					</trkpt>
					<trkpt lat="48.008620" lon="-4.485040">
						<ele>87</ele>
						<time>2026-06-27T23:13:47Z</time>
					</trkpt>
					<trkpt lat="48.008950" lon="-4.485110">
						<ele>88</ele>
						<time>2026-06-27T23:13:53Z</time>
					</trkpt>
					<trkpt lat="48.009270" lon="-4.485160">
						<ele>89</ele>
						<time>2026-06-27T23:13:58Z</time>
					</trkpt>
					<trkpt lat="48.010310" lon="-4.485240">
						<ele>92</ele>
						<time>2026-06-27T23:14:17Z</time>
					</trkpt>
					<trkpt lat="48.012120" lon="-4.485460">
						<ele>95</ele>
						<time>2026-06-27T23:14:49Z</time>
					</trkpt>
					<trkpt lat="48.013110" lon="-4.485560">
						<ele>98</ele>
						<time>2026-06-27T23:15:07Z</time>
					</trkpt>
					<trkpt lat="48.013670" lon="-4.485650">
						<ele>99</ele>
						<time>2026-06-27T23:15:17Z</time>
					</trkpt>
					<trkpt lat="48.013840" lon="-4.485650">
						<ele>100</ele>
						<time>2026-06-27T23:15:20Z</time>
					</trkpt>
					<trkpt lat="48.013860" lon="-4.485600">
						<ele>100</ele>
						<time>2026-06-27T23:15:21Z</time>
					</trkpt>
					<trkpt lat="48.013850" lon="-4.485490">
						<ele>100</ele>
						<time>2026-06-27T23:15:22Z</time>
					</trkpt>
					<trkpt lat="48.013650" lon="-4.484350">
						<ele>100</ele>
						<time>2026-06-27T23:15:36Z</time>
					</trkpt>
					<trkpt lat="48.013630" lon="-4.484330">
						<ele>100</ele>
						<time>2026-06-27T23:15:36Z</time>
					</trkpt>
					<trkpt lat="48.013010" lon="-4.484310">
						<ele>99</ele>
						<time>2026-06-27T23:15:47Z</time>
					</trkpt>
					<trkpt lat="48.012840" lon="-4.484230">
						<ele>99</ele>
						<time>2026-06-27T23:15:50Z</time>
					</trkpt>
					<trkpt lat="48.012600" lon="-4.484040">
						<ele>98</ele>
						<time>2026-06-27T23:15:55Z</time>
					</trkpt>
					<trkpt lat="48.012320" lon="-4.483710">
						<ele>98</ele>
						<time>2026-06-27T23:16:02Z</time>
					</trkpt>
					<trkpt lat="48.011910" lon="-4.483110">
						<ele>99</ele>
						<time>2026-06-27T23:16:12Z</time>
					</trkpt>
					<trkpt lat="48.010340" lon="-4.481050">
						<ele>96</ele>
						<time>2026-06-27T23:16:49Z</time>
					</trkpt>
					<trkpt lat="48.009620" lon="-4.480040">
						<ele>94</ele>
						<time>2026-06-27T23:17:07Z</time>
					</trkpt>
					<trkpt lat="48.009160" lon="-4.479450">
						<ele>93</ele>
						<time>2026-06-27T23:17:17Z</time>
					</trkpt>
					<trkpt lat="48.008600" lon="-4.478680">
						<ele>93</ele>
						<time>2026-06-27T23:17:31Z</time>
					</trkpt>
					<trkpt lat="48.008080" lon="-4.478040">
						<ele>93</ele>
						<time>2026-06-27T23:17:43Z</time>
					</trkpt>
					<trkpt lat="48.007840" lon="-4.477780">
						<ele>93</ele>
						<time>2026-06-27T23:17:48Z</time>
					</trkpt>
					<trkpt lat="48.007240" lon="-4.477200">
						<ele>94</ele>
						<time>2026-06-27T23:18:01Z</time>
					</trkpt>
					<trkpt lat="48.006740" lon="-4.476800">
						<ele>93</ele>
						<time>2026-06-27T23:18:11Z</time>
					</trkpt>
					<trkpt lat="48.005830" lon="-4.476160">
						<ele>91</ele>
						<time>2026-06-27T23:18:29Z</time>
					</trkpt>
					<trkpt lat="48.005290" lon="-4.475760">
						<ele>90</ele>
						<time>2026-06-27T23:18:40Z</time>
					</trkpt>
					<trkpt lat="48.005090" lon="-4.475580">
						<ele>90</ele>
						<time>2026-06-27T23:18:44Z</time>
					</trkpt>
					<trkpt lat="48.004880" lon="-4.475360">
						<ele>90</ele>
						<time>2026-06-27T23:18:48Z</time>
					</trkpt>
					<trkpt lat="48.004690" lon="-4.475100">
						<ele>90</ele>
						<time>2026-06-27T23:18:53Z</time>
					</trkpt>
					<trkpt lat="48.003930" lon="-4.473690">
						<ele>91</ele>
						<time>2026-06-27T23:19:14Z</time>
					</trkpt>
					<trkpt lat="48.003690" lon="-4.473300">
						<ele>91</ele>
						<time>2026-06-27T23:19:21Z</time>
					</trkpt>
					<trkpt lat="48.002020" lon="-4.471190">
						<ele>88</ele>
						<time>2026-06-27T23:20:00Z</time>
					</trkpt>
					<trkpt lat="48.000330" lon="-4.469160">
						<ele>80</ele>
						<time>2026-06-27T23:20:38Z</time>
					</trkpt>
					<trkpt lat="47.999950" lon="-4.468720">
						<ele>78</ele>
						<time>2026-06-27T23:20:47Z</time>
					</trkpt>
					<trkpt lat="47.999740" lon="-4.468520">
						<ele>77</ele>
						<time>2026-06-27T23:20:51Z</time>
					</trkpt>
					<trkpt lat="47.999420" lon="-4.468350">
						<ele>77</ele>
						<time>2026-06-27T23:20:57Z</time>
					</trkpt>
					<trkpt lat="47.999080" lon="-4.468220">
						<ele>75</ele>
						<time>2026-06-27T23:21:04Z</time>
					</trkpt>
					<trkpt lat="47.998510" lon="-4.468120">
						<ele>73</ele>
						<time>2026-06-27T23:21:14Z</time>
					</trkpt>
					<trkpt lat="47.998300" lon="-4.468100">
						<ele>73</ele>
						<time>2026-06-27T23:21:17Z</time>
					</trkpt>
					<trkpt lat="47.997960" lon="-4.468010">
						<ele>71</ele>
						<time>2026-06-27T23:21:24Z</time>
					</trkpt>
					<trkpt lat="47.996390" lon="-4.467700">
						<ele>65</ele>
						<time>2026-06-27T23:21:52Z</time>
					</trkpt>
					<trkpt lat="47.996000" lon="-4.467700">
						<ele>64</ele>
						<time>2026-06-27T23:21:59Z</time>
					</trkpt>
					<trkpt lat="47.995570" lon="-4.467740">
						<ele>62</ele>
						<time>2026-06-27T23:22:06Z</time>
					</trkpt>
					<trkpt lat="47.994930" lon="-4.467940">
						<ele>61</ele>
						<time>2026-06-27T23:22:18Z</time>
					</trkpt>
					<trkpt lat="47.994520" lon="-4.468030">
						<ele>61</ele>
						<time>2026-06-27T23:22:25Z</time>
					</trkpt>
					<trkpt lat="47.994200" lon="-4.468050">
						<ele>61</ele>
						<time>2026-06-27T23:22:31Z</time>
					</trkpt>
					<trkpt lat="47.993940" lon="-4.467960">
						<ele>61</ele>
						<time>2026-06-27T23:22:36Z</time>
					</trkpt>
					<trkpt lat="47.993580" lon="-4.467780">
						<ele>60</ele>
						<time>2026-06-27T23:22:43Z</time>
					</trkpt>
					<trkpt lat="47.993300" lon="-4.467520">
						<ele>60</ele>
						<time>2026-06-27T23:22:48Z</time>
					</trkpt>
					<trkpt lat="47.993130" lon="-4.467290">
						<ele>59</ele>
						<time>2026-06-27T23:22:53Z</time>
					</trkpt>
					<trkpt lat="47.993230" lon="-4.465870">
						<ele>58</ele>
						<time>2026-06-27T23:23:10Z</time>
					</trkpt>
					<trkpt lat="47.993250" lon="-4.465240">
						<ele>57</ele>
						<time>2026-06-27T23:23:17Z</time>
					</trkpt>
					<trkpt lat="47.993200" lon="-4.465100">
						<ele>57</ele>
						<time>2026-06-27T23:23:19Z</time>
					</trkpt>
					<trkpt lat="47.993020" lon="-4.464970">
						<ele>56</ele>
						<time>2026-06-27T23:23:23Z</time>
					</trkpt>
					<trkpt lat="47.992830" lon="-4.464960">
						<ele>56</ele>
						<time>2026-06-27T23:23:26Z</time>
					</trkpt>
					<trkpt lat="47.992710" lon="-4.464930">
						<ele>55</ele>
						<time>2026-06-27T23:23:28Z</time>
					</trkpt>
					<trkpt lat="47.992640" lon="-4.464930">
						<ele>55</ele>
						<time>2026-06-27T23:23:29Z</time>
					</trkpt>
					<trkpt lat="47.992550" lon="-4.464970">
						<ele>55</ele>
						<time>2026-06-27T23:23:31Z</time>
					</trkpt>
					<trkpt lat="47.992420" lon="-4.465110">
						<ele>54</ele>
						<time>2026-06-27T23:23:34Z</time>
					</trkpt>
					<trkpt lat="47.992310" lon="-4.465330">
						<ele>54</ele>
						<time>2026-06-27T23:23:37Z</time>
					</trkpt>
					<trkpt lat="47.992240" lon="-4.465710">
						<ele>53</ele>
						<time>2026-06-27T23:23:42Z</time>
					</trkpt>
					<trkpt lat="47.992200" lon="-4.465820">
						<ele>53</ele>
						<time>2026-06-27T23:23:43Z</time>
					</trkpt>
					<trkpt lat="47.992180" lon="-4.465820">
						<ele>53</ele>
						<time>2026-06-27T23:23:44Z</time>
					</trkpt>
					<trkpt lat="47.992110" lon="-4.465730">
						<ele>52</ele>
						<time>2026-06-27T23:23:45Z</time>
					</trkpt>
					<trkpt lat="47.991950" lon="-4.465610">
						<ele>51</ele>
						<time>2026-06-27T23:23:48Z</time>
					</trkpt>
					<trkpt lat="47.991760" lon="-4.465550">
						<ele>49</ele>
						<time>2026-06-27T23:23:52Z</time>
					</trkpt>
					<trkpt lat="47.991530" lon="-4.465520">
						<ele>47</ele>
						<time>2026-06-27T23:23:56Z</time>
					</trkpt>
					<trkpt lat="47.990590" lon="-4.465440">
						<ele>40</ele>
						<time>2026-06-27T23:24:13Z</time>
					</trkpt>
					<trkpt lat="47.990170" lon="-4.465430">
						<ele>38</ele>
						<time>2026-06-27T23:24:20Z</time>
					</trkpt>
					<trkpt lat="47.989630" lon="-4.465450">
						<ele>37</ele>
						<time>2026-06-27T23:24:30Z</time>
					</trkpt>
					<trkpt lat="47.989080" lon="-4.465630">
						<ele>35</ele>
						<time>2026-06-27T23:24:40Z</time>
					</trkpt>
					<trkpt lat="47.988610" lon="-4.465820">
						<ele>32</ele>
						<time>2026-06-27T23:24:49Z</time>
					</trkpt>
					<trkpt lat="47.988500" lon="-4.465850">
						<ele>31</ele>
						<time>2026-06-27T23:24:51Z</time>
					</trkpt>
					<trkpt lat="47.988210" lon="-4.465860">
						<ele>29</ele>
						<time>2026-06-27T23:24:56Z</time>
					</trkpt>
					<trkpt lat="47.987940" lon="-4.465770">
						<ele>27</ele>
						<time>2026-06-27T23:25:01Z</time>
					</trkpt>
					<trkpt lat="47.987730" lon="-4.465630">
						<ele>25</ele>
						<time>2026-06-27T23:25:05Z</time>
					</trkpt>
					<trkpt lat="47.987460" lon="-4.465390">
						<ele>23</ele>
						<time>2026-06-27T23:25:10Z</time>
					</trkpt>
					<trkpt lat="47.987100" lon="-4.465130">
						<ele>21</ele>
						<time>2026-06-27T23:25:17Z</time>
					</trkpt>
					<trkpt lat="47.987030" lon="-4.465220">
						<ele>21</ele>
						<time>2026-06-27T23:25:19Z</time>
					</trkpt>
					<trkpt lat="47.986740" lon="-4.465310">
						<ele>21</ele>
						<time>2026-06-27T23:25:24Z</time>
					</trkpt>
					<trkpt lat="47.986680" lon="-4.465350">
						<ele>21</ele>
						<time>2026-06-27T23:25:26Z</time>
					</trkpt>
					<trkpt lat="47.986640" lon="-4.465460">
						<ele>21</ele>
						<time>2026-06-27T23:25:27Z</time>
					</trkpt>
					<trkpt lat="47.986630" lon="-4.465840">
						<ele>23</ele>
						<time>2026-06-27T23:25:32Z</time>
					</trkpt>
					<trkpt lat="47.986660" lon="-4.466380">
						<ele>24</ele>
						<time>2026-06-27T23:25:38Z</time>
					</trkpt>
					<trkpt lat="47.986910" lon="-4.467890">
						<ele>27</ele>
						<time>2026-06-27T23:25:57Z</time>
					</trkpt>
					<trkpt lat="47.987150" lon="-4.469040">
						<ele>29</ele>
						<time>2026-06-27T23:26:11Z</time>
					</trkpt>
					<trkpt lat="47.987350" lon="-4.470320">
						<ele>31</ele>
						<time>2026-06-27T23:26:27Z</time>
					</trkpt>
					<trkpt lat="47.987530" lon="-4.471310">
						<ele>29</ele>
						<time>2026-06-27T23:26:39Z</time>
					</trkpt>
					<trkpt lat="47.987880" lon="-4.473670">
						<ele>29</ele>
						<time>2026-06-27T23:27:08Z</time>
					</trkpt>
					<trkpt lat="47.987990" lon="-4.474080">
						<ele>30</ele>
						<time>2026-06-27T23:27:13Z</time>
					</trkpt>
					<trkpt lat="47.988170" lon="-4.474600">
						<ele>29</ele>
						<time>2026-06-27T23:27:20Z</time>
					</trkpt>
					<trkpt lat="47.988350" lon="-4.475200">
						<ele>28</ele>
						<time>2026-06-27T23:27:28Z</time>
					</trkpt>
					<trkpt lat="47.988800" lon="-4.476750">
						<ele>17</ele>
						<time>2026-06-27T23:27:48Z</time>
					</trkpt>
					<trkpt lat="47.988900" lon="-4.477050">
						<ele>15</ele>
						<time>2026-06-27T23:27:52Z</time>
					</trkpt>
					<trkpt lat="47.989050" lon="-4.477300">
						<ele>14</ele>
						<time>2026-06-27T23:27:56Z</time>
					</trkpt>
					<trkpt lat="47.989250" lon="-4.477440">
						<ele>14</ele>
						<time>2026-06-27T23:28:00Z</time>
					</trkpt>
					<trkpt lat="47.989380" lon="-4.477490">
						<ele>13</ele>
						<time>2026-06-27T23:28:02Z</time>
					</trkpt>
					<trkpt lat="47.990230" lon="-4.477520">
						<ele>10</ele>
						<time>2026-06-27T23:28:17Z</time>
					</trkpt>
					<trkpt lat="47.990670" lon="-4.477710">
						<ele>9</ele>
						<time>2026-06-27T23:28:25Z</time>
					</trkpt>
					<trkpt lat="47.990780" lon="-4.477800">
						<ele>9</ele>
						<time>2026-06-27T23:28:28Z</time>
					</trkpt>
					<trkpt lat="47.990930" lon="-4.477950">
						<ele>9</ele>
						<time>2026-06-27T23:28:31Z</time>
					</trkpt>
					<trkpt lat="47.991160" lon="-4.478230">
						<ele>11</ele>
						<time>2026-06-27T23:28:36Z</time>
					</trkpt>
					<trkpt lat="47.992760" lon="-4.480010">
						<ele>19</ele>
						<time>2026-06-27T23:29:12Z</time>
					</trkpt>
					<trkpt lat="47.993560" lon="-4.480850">
						<ele>27</ele>
						<time>2026-06-27T23:29:29Z</time>
					</trkpt>
					<trkpt lat="47.994000" lon="-4.481280">
						<ele>31</ele>
						<time>2026-06-27T23:29:38Z</time>
					</trkpt>
					<trkpt lat="47.994590" lon="-4.481760">
						<ele>35</ele>
						<time>2026-06-27T23:29:50Z</time>
					</trkpt>
					<trkpt lat="47.994990" lon="-4.482150">
						<ele>37</ele>
						<time>2026-06-27T23:29:59Z</time>
					</trkpt>
					<trkpt lat="47.995000" lon="-4.482020">
						<ele>38</ele>
						<time>2026-06-27T23:30:00Z</time>
					</trkpt>
					<trkpt lat="47.994760" lon="-4.481350">
						<ele>42</ele>
						<time>2026-06-27T23:30:09Z</time>
					</trkpt>
					<trkpt lat="47.994300" lon="-4.480420">
						<ele>45</ele>
						<time>2026-06-27T23:30:23Z</time>
					</trkpt>
					<trkpt lat="47.993670" lon="-4.478660">
						<ele>46</ele>
						<time>2026-06-27T23:30:47Z</time>
					</trkpt>
					<trkpt lat="47.993550" lon="-4.478060">
						<ele>47</ele>
						<time>2026-06-27T23:30:54Z</time>
					</trkpt>
					<trkpt lat="47.993420" lon="-4.476930">
						<ele>48</ele>
						<time>2026-06-27T23:31:08Z</time>
					</trkpt>
					<trkpt lat="47.993280" lon="-4.475920">
						<ele>48</ele>
						<time>2026-06-27T23:31:20Z</time>
					</trkpt>
					<trkpt lat="47.993240" lon="-4.474550">
						<ele>45</ele>
						<time>2026-06-27T23:31:37Z</time>
					</trkpt>
					<trkpt lat="47.993260" lon="-4.474440">
						<ele>45</ele>
						<time>2026-06-27T23:31:38Z</time>
					</trkpt>
					<trkpt lat="47.993300" lon="-4.474390">
						<ele>45</ele>
						<time>2026-06-27T23:31:39Z</time>
					</trkpt>
					<trkpt lat="47.993340" lon="-4.474350">
						<ele>45</ele>
						<time>2026-06-27T23:31:40Z</time>
					</trkpt>
					<trkpt lat="47.994440" lon="-4.474180">
						<ele>47</ele>
						<time>2026-06-27T23:31:59Z</time>
					</trkpt>
					<trkpt lat="47.994520" lon="-4.474190">
						<ele>48</ele>
						<time>2026-06-27T23:32:01Z</time>
					</trkpt>
					<trkpt lat="47.994700" lon="-4.474280">
						<ele>49</ele>
						<time>2026-06-27T23:32:04Z</time>
					</trkpt>
					<trkpt lat="47.995020" lon="-4.474540">
						<ele>53</ele>
						<time>2026-06-27T23:32:11Z</time>
					</trkpt>
					<trkpt lat="47.995170" lon="-4.474690">
						<ele>54</ele>
						<time>2026-06-27T23:32:14Z</time>
					</trkpt>
					<trkpt lat="47.995340" lon="-4.474960">
						<ele>55</ele>
						<time>2026-06-27T23:32:18Z</time>
					</trkpt>
					<trkpt lat="47.995550" lon="-4.475400">
						<ele>56</ele>
						<time>2026-06-27T23:32:25Z</time>
					</trkpt>
					<trkpt lat="47.995620" lon="-4.475790">
						<ele>57</ele>
						<time>2026-06-27T23:32:30Z</time>
					</trkpt>
					<trkpt lat="47.995660" lon="-4.475930">
						<ele>57</ele>
						<time>2026-06-27T23:32:31Z</time>
					</trkpt>
					<trkpt lat="47.996110" lon="-4.476640">
						<ele>60</ele>
						<time>2026-06-27T23:32:43Z</time>
					</trkpt>
					<trkpt lat="47.996190" lon="-4.476690">
						<ele>60</ele>
						<time>2026-06-27T23:32:45Z</time>
					</trkpt>
					<trkpt lat="47.996330" lon="-4.476670">
						<ele>60</ele>
						<time>2026-06-27T23:32:47Z</time>
					</trkpt>
					<trkpt lat="47.996400" lon="-4.476680">
						<ele>60</ele>
						<time>2026-06-27T23:32:48Z</time>
					</trkpt>
					<trkpt lat="47.996690" lon="-4.476810">
						<ele>60</ele>
						<time>2026-06-27T23:32:54Z</time>
					</trkpt>
					<trkpt lat="47.996840" lon="-4.476940">
						<ele>60</ele>
						<time>2026-06-27T23:32:57Z</time>
					</trkpt>
					<trkpt lat="47.997670" lon="-4.477020">
						<ele>61</ele>
						<time>2026-06-27T23:33:12Z</time>
					</trkpt>
					<trkpt lat="47.997750" lon="-4.477060">
						<ele>62</ele>
						<time>2026-06-27T23:33:13Z</time>
					</trkpt>
					<trkpt lat="47.997950" lon="-4.477220">
						<ele>63</ele>
						<time>2026-06-27T23:33:17Z</time>
					</trkpt>
					<trkpt lat="47.998420" lon="-4.477620">
						<ele>67</ele>
						<time>2026-06-27T23:33:27Z</time>
					</trkpt>
					<trkpt lat="47.999000" lon="-4.478470">
						<ele>72</ele>
						<time>2026-06-27T23:33:41Z</time>
					</trkpt>
					<trkpt lat="47.999210" lon="-4.478950">
						<ele>74</ele>
						<time>2026-06-27T23:33:48Z</time>
					</trkpt>
					<trkpt lat="47.999620" lon="-4.480030">
						<ele>78</ele>
						<time>2026-06-27T23:34:03Z</time>
					</trkpt>
					<trkpt lat="47.999790" lon="-4.480300">
						<ele>78</ele>
						<time>2026-06-27T23:34:07Z</time>
					</trkpt>
					<trkpt lat="47.999930" lon="-4.480410">
						<ele>78</ele>
						<time>2026-06-27T23:34:10Z</time>
					</trkpt>
					<trkpt lat="48.000070" lon="-4.480440">
						<ele>79</ele>
						<time>2026-06-27T23:34:13Z</time>
					</trkpt>
					<trkpt lat="48.000390" lon="-4.480590">
						<ele>80</ele>
						<time>2026-06-27T23:34:19Z</time>
					</trkpt>
					<trkpt lat="48.000710" lon="-4.480840">
						<ele>81</ele>
						<time>2026-06-27T23:34:25Z</time>
					</trkpt>
					<trkpt lat="48.000990" lon="-4.480950">
						<ele>82</ele>
						<time>2026-06-27T23:34:30Z</time>
					</trkpt>
					<trkpt lat="48.001340" lon="-4.481050">
						<ele>82</ele>
						<time>2026-06-27T23:34:36Z</time>
					</trkpt>
					<trkpt lat="48.001550" lon="-4.481160">
						<ele>82</ele>
						<time>2026-06-27T23:34:40Z</time>
					</trkpt>
					<trkpt lat="48.002110" lon="-4.481590">
						<ele>82</ele>
						<time>2026-06-27T23:34:52Z</time>
					</trkpt>
					<trkpt lat="48.002710" lon="-4.482080">
						<ele>83</ele>
						<time>2026-06-27T23:35:04Z</time>
					</trkpt>
					<trkpt lat="48.004020" lon="-4.483230">
						<ele>87</ele>
						<time>2026-06-27T23:35:31Z</time>
					</trkpt>
					<trkpt lat="48.004050" lon="-4.483290">
						<ele>87</ele>
						<time>2026-06-27T23:35:32Z</time>
					</trkpt>
					<trkpt lat="48.004070" lon="-4.483470">
						<ele>87</ele>
						<time>2026-06-27T23:35:34Z</time>
					</trkpt>
					<trkpt lat="48.004150" lon="-4.484920">
						<ele>86</ele>
						<time>2026-06-27T23:35:51Z</time>
					</trkpt>
					<trkpt lat="48.004160" lon="-4.485780">
						<ele>84</ele>
						<time>2026-06-27T23:36:01Z</time>
					</trkpt>
					<trkpt lat="48.004180" lon="-4.486260">
						<ele>84</ele>
						<time>2026-06-27T23:36:07Z</time>
					</trkpt>
					<trkpt lat="48.004170" lon="-4.486560">
						<ele>84</ele>
						<time>2026-06-27T23:36:11Z</time>
					</trkpt>
					<trkpt lat="48.004070" lon="-4.487620">
						<ele>83</ele>
						<time>2026-06-27T23:36:23Z</time>
					</trkpt>
					<trkpt lat="48.004020" lon="-4.488360">
						<ele>81</ele>
						<time>2026-06-27T23:36:32Z</time>
					</trkpt>
					<trkpt lat="48.004170" lon="-4.488360">
						<ele>81</ele>
						<time>2026-06-27T23:36:35Z</time>
					</trkpt>
					<trkpt lat="48.004510" lon="-4.488250">
						<ele>82</ele>
						<time>2026-06-27T23:36:41Z</time>
					</trkpt>
					<trkpt lat="48.005390" lon="-4.488060">
						<ele>84</ele>
						<time>2026-06-27T23:36:57Z</time>
					</trkpt>
					<trkpt lat="48.005770" lon="-4.487950">
						<ele>83</ele>
						<time>2026-06-27T23:37:04Z</time>
					</trkpt>
					<trkpt lat="48.005930" lon="-4.487950">
						<ele>84</ele>
						<time>2026-06-27T23:37:07Z</time>
					</trkpt>
					<trkpt lat="48.006930" lon="-4.488080">
						<ele>85</ele>
						<time>2026-06-27T23:37:25Z</time>
					</trkpt>
					<trkpt lat="48.007190" lon="-4.488010">
						<ele>85</ele>
						<time>2026-06-27T23:37:29Z</time>
					</trkpt>
					<trkpt lat="48.007360" lon="-4.487930">
						<ele>84</ele>
						<time>2026-06-27T23:37:32Z</time>
					</trkpt>
					<trkpt lat="48.006980" lon="-4.486030">
						<ele>87</ele>
						<time>2026-06-27T23:37:56Z</time>
					</trkpt>
					<trkpt lat="48.006830" lon="-4.485360">
						<ele>87</ele>
						<time>2026-06-27T23:38:04Z</time>
					</trkpt>
					<trkpt lat="48.006830" lon="-4.485330">
						<ele>87</ele>
						<time>2026-06-27T23:38:05Z</time>
					</trkpt>
					<trkpt lat="48.007020" lon="-4.485240">
						<ele>87</ele>
						<time>2026-06-27T23:38:08Z</time>
					</trkpt>
					<trkpt lat="48.007310" lon="-4.485140">
						<ele>88</ele>
						<time>2026-06-27T23:38:14Z</time>
					</trkpt>
					<trkpt lat="48.008180" lon="-4.485000">
						<ele>87</ele>
						<time>2026-06-27T23:38:29Z</time>
					</trkpt>
					<trkpt lat="48.008340" lon="-4.485000">
						<ele>87</ele>
						<time>2026-06-27T23:38:32Z</time>
					</trkpt>
					<trkpt lat="48.009370" lon="-4.485170">
						<ele>89</ele>
						<time>2026-06-27T23:38:51Z</time>
					</trkpt>
					<trkpt lat="48.010310" lon="-4.485240">
						<ele>92</ele>
						<time>2026-06-27T23:39:07Z</time>
					</trkpt>
					<trkpt lat="48.012120" lon="-4.485460">
						<ele>95</ele>
						<time>2026-06-27T23:39:40Z</time>
					</trkpt>
					<trkpt lat="48.013110" lon="-4.485560">
						<ele>98</ele>
						<time>2026-06-27T23:39:57Z</time>
					</trkpt>
					<trkpt lat="48.013670" lon="-4.485650">
						<ele>99</ele>
						<time>2026-06-27T23:40:07Z</time>
					</trkpt>
					<trkpt lat="48.013810" lon="-4.485640">
						<ele>100</ele>
						<time>2026-06-27T23:40:10Z</time>
					</trkpt>
					<trkpt lat="48.013840" lon="-4.485650">
						<ele>100</ele>
						<time>2026-06-27T23:40:10Z</time>
					</trkpt>
					<trkpt lat="48.013860" lon="-4.485600">
						<ele>100</ele>
						<time>2026-06-27T23:40:11Z</time>
					</trkpt>
					<trkpt lat="48.013860" lon="-4.485490">
						<ele>100</ele>
						<time>2026-06-27T23:40:12Z</time>
					</trkpt>
					<trkpt lat="48.013650" lon="-4.484350">
						<ele>100</ele>
						<time>2026-06-27T23:40:26Z</time>
					</trkpt>
					<trkpt lat="48.013630" lon="-4.484330">
						<ele>100</ele>
						<time>2026-06-27T23:40:27Z</time>
					</trkpt>
					<trkpt lat="48.013010" lon="-4.484310">
						<ele>99</ele>
						<time>2026-06-27T23:40:38Z</time>
					</trkpt>
					<trkpt lat="48.012840" lon="-4.484230">
						<ele>99</ele>
						<time>2026-06-27T23:40:41Z</time>
					</trkpt>
					<trkpt lat="48.012600" lon="-4.484040">
						<ele>98</ele>
						<time>2026-06-27T23:40:46Z</time>
					</trkpt>
					<trkpt lat="48.012320" lon="-4.483710">
						<ele>98</ele>
						<time>2026-06-27T23:40:52Z</time>
					</trkpt>
					<trkpt lat="48.011910" lon="-4.483110">
						<ele>99</ele>
						<time>2026-06-27T23:41:02Z</time>
					</trkpt>
					<trkpt lat="48.010350" lon="-4.481050">
						<ele>96</ele>
						<time>2026-06-27T23:41:39Z</time>
					</trkpt>
					<trkpt lat="48.009620" lon="-4.480040">
						<ele>94</ele>
						<time>2026-06-27T23:41:57Z</time>
					</trkpt>
					<trkpt lat="48.009210" lon="-4.479530">
						<ele>93</ele>
						<time>2026-06-27T23:42:07Z</time>
					</trkpt>
					<trkpt lat="48.008600" lon="-4.478680">
						<ele>93</ele>
						<time>2026-06-27T23:42:21Z</time>
					</trkpt>
					<trkpt lat="48.008090" lon="-4.478040">
						<ele>93</ele>
						<time>2026-06-27T23:42:33Z</time>
					</trkpt>
					<trkpt lat="48.007840" lon="-4.477780">
						<ele>93</ele>
						<time>2026-06-27T23:42:39Z</time>
					</trkpt>
					<trkpt lat="48.007230" lon="-4.477200">
						<ele>94</ele>
						<time>2026-06-27T23:42:52Z</time>
					</trkpt>
					<trkpt lat="48.006740" lon="-4.476800">
						<ele>93</ele>
						<time>2026-06-27T23:43:02Z</time>
					</trkpt>
					<trkpt lat="48.005830" lon="-4.476160">
						<ele>91</ele>
						<time>2026-06-27T23:43:19Z</time>
					</trkpt>
					<trkpt lat="48.005290" lon="-4.475760">
						<ele>90</ele>
						<time>2026-06-27T23:43:30Z</time>
					</trkpt>
					<trkpt lat="48.005090" lon="-4.475580">
						<ele>90</ele>
						<time>2026-06-27T23:43:34Z</time>
					</trkpt>
					<trkpt lat="48.004880" lon="-4.475360">
						<ele>90</ele>
						<time>2026-06-27T23:43:39Z</time>
					</trkpt>
					<trkpt lat="48.004690" lon="-4.475100">
						<ele>90</ele>
						<time>2026-06-27T23:43:43Z</time>
					</trkpt>
					<trkpt lat="48.004060" lon="-4.473930">
						<ele>91</ele>
						<time>2026-06-27T23:44:01Z</time>
					</trkpt>
					<trkpt lat="48.003860" lon="-4.473560">
						<ele>91</ele>
						<time>2026-06-27T23:44:07Z</time>
					</trkpt>
					<trkpt lat="48.003690" lon="-4.473300">
						<ele>91</ele>
						<time>2026-06-27T23:44:11Z</time>
					</trkpt>
					<trkpt lat="48.002020" lon="-4.471190">
						<ele>88</ele>
						<time>2026-06-27T23:44:50Z</time>
					</trkpt>
					<trkpt lat="48.000330" lon="-4.469160">
						<ele>80</ele>
						<time>2026-06-27T23:45:29Z</time>
					</trkpt>
					<trkpt lat="47.999950" lon="-4.468720">
						<ele>78</ele>
						<time>2026-06-27T23:45:37Z</time>
					</trkpt>
					<trkpt lat="47.999740" lon="-4.468520">
						<ele>77</ele>
						<time>2026-06-27T23:45:42Z</time>
					</trkpt>
					<trkpt lat="47.999420" lon="-4.468350">
						<ele>77</ele>
						<time>2026-06-27T23:45:48Z</time>
					</trkpt>
					<trkpt lat="47.999080" lon="-4.468220">
						<ele>75</ele>
						<time>2026-06-27T23:45:54Z</time>
					</trkpt>
					<trkpt lat="47.998510" lon="-4.468120">
						<ele>73</ele>
						<time>2026-06-27T23:46:04Z</time>
					</trkpt>
					<trkpt lat="47.998300" lon="-4.468100">
						<ele>73</ele>
						<time>2026-06-27T23:46:08Z</time>
					</trkpt>
					<trkpt lat="47.997960" lon="-4.468010">
						<ele>71</ele>
						<time>2026-06-27T23:46:14Z</time>
					</trkpt>
					<trkpt lat="47.996390" lon="-4.467700">
						<ele>65</ele>
						<time>2026-06-27T23:46:42Z</time>
					</trkpt>
					<trkpt lat="47.996000" lon="-4.467700">
						<ele>64</ele>
						<time>2026-06-27T23:46:49Z</time>
					</trkpt>
					<trkpt lat="47.995570" lon="-4.467740">
						<ele>62</ele>
						<time>2026-06-27T23:46:57Z</time>
					</trkpt>
					<trkpt lat="47.994930" lon="-4.467940">
						<ele>61</ele>
						<time>2026-06-27T23:47:09Z</time>
					</trkpt>
					<trkpt lat="47.994510" lon="-4.468030">
						<ele>61</ele>
						<time>2026-06-27T23:47:16Z</time>
					</trkpt>
					<trkpt lat="47.994200" lon="-4.468050">
						<ele>61</ele>
						<time>2026-06-27T23:47:22Z</time>
					</trkpt>
					<trkpt lat="47.993940" lon="-4.467960">
						<ele>61</ele>
						<time>2026-06-27T23:47:26Z</time>
					</trkpt>
					<trkpt lat="47.993580" lon="-4.467780">
						<ele>60</ele>
						<time>2026-06-27T23:47:33Z</time>
					</trkpt>
					<trkpt lat="47.993300" lon="-4.467520">
						<ele>60</ele>
						<time>2026-06-27T23:47:39Z</time>
					</trkpt>
					<trkpt lat="47.993130" lon="-4.467290">
						<ele>59</ele>
						<time>2026-06-27T23:47:43Z</time>
					</trkpt>
					<trkpt lat="47.993220" lon="-4.465900">
						<ele>58</ele>
						<time>2026-06-27T23:48:00Z</time>
					</trkpt>
					<trkpt lat="47.993250" lon="-4.465240">
						<ele>57</ele>
						<time>2026-06-27T23:48:08Z</time>
					</trkpt>
					<trkpt lat="47.993200" lon="-4.465100">
						<ele>57</ele>
						<time>2026-06-27T23:48:09Z</time>
					</trkpt>
					<trkpt lat="47.993020" lon="-4.464970">
						<ele>56</ele>
						<time>2026-06-27T23:48:13Z</time>
					</trkpt>
					<trkpt lat="47.992820" lon="-4.464960">
						<ele>56</ele>
						<time>2026-06-27T23:48:17Z</time>
					</trkpt>
					<trkpt lat="47.992710" lon="-4.464930">
						<ele>55</ele>
						<time>2026-06-27T23:48:19Z</time>
					</trkpt>
					<trkpt lat="47.992640" lon="-4.464930">
						<ele>55</ele>
						<time>2026-06-27T23:48:20Z</time>
					</trkpt>
					<trkpt lat="47.992540" lon="-4.464970">
						<ele>55</ele>
						<time>2026-06-27T23:48:22Z</time>
					</trkpt>
					<trkpt lat="47.992420" lon="-4.465110">
						<ele>54</ele>
						<time>2026-06-27T23:48:24Z</time>
					</trkpt>
					<trkpt lat="47.992310" lon="-4.465330">
						<ele>54</ele>
						<time>2026-06-27T23:48:28Z</time>
					</trkpt>
					<trkpt lat="47.992240" lon="-4.465710">
						<ele>53</ele>
						<time>2026-06-27T23:48:32Z</time>
					</trkpt>
					<trkpt lat="47.992200" lon="-4.465820">
						<ele>53</ele>
						<time>2026-06-27T23:48:34Z</time>
					</trkpt>
					<trkpt lat="47.992180" lon="-4.465820">
						<ele>53</ele>
						<time>2026-06-27T23:48:34Z</time>
					</trkpt>
					<trkpt lat="47.992110" lon="-4.465730">
						<ele>52</ele>
						<time>2026-06-27T23:48:36Z</time>
					</trkpt>
					<trkpt lat="47.991950" lon="-4.465610">
						<ele>51</ele>
						<time>2026-06-27T23:48:39Z</time>
					</trkpt>
					<trkpt lat="47.991760" lon="-4.465550">
						<ele>49</ele>
						<time>2026-06-27T23:48:42Z</time>
					</trkpt>
					<trkpt lat="47.991530" lon="-4.465520">
						<ele>47</ele>
						<time>2026-06-27T23:48:47Z</time>
					</trkpt>
					<trkpt lat="47.990570" lon="-4.465440">
						<ele>40</ele>
						<time>2026-06-27T23:49:04Z</time>
					</trkpt>
					<trkpt lat="47.990170" lon="-4.465430">
						<ele>38</ele>
						<time>2026-06-27T23:49:11Z</time>
					</trkpt>
					<trkpt lat="47.989640" lon="-4.465450">
						<ele>37</ele>
						<time>2026-06-27T23:49:20Z</time>
					</trkpt>
					<trkpt lat="47.989080" lon="-4.465630">
						<ele>35</ele>
						<time>2026-06-27T23:49:30Z</time>
					</trkpt>
					<trkpt lat="47.988610" lon="-4.465820">
						<ele>32</ele>
						<time>2026-06-27T23:49:39Z</time>
					</trkpt>
					<trkpt lat="47.988500" lon="-4.465850">
						<ele>31</ele>
						<time>2026-06-27T23:49:41Z</time>
					</trkpt>
					<trkpt lat="47.988210" lon="-4.465860">
						<ele>29</ele>
						<time>2026-06-27T23:49:46Z</time>
					</trkpt>
					<trkpt lat="47.987940" lon="-4.465770">
						<ele>27</ele>
						<time>2026-06-27T23:49:51Z</time>
					</trkpt>
					<trkpt lat="47.987720" lon="-4.465630">
						<ele>25</ele>
						<time>2026-06-27T23:49:55Z</time>
					</trkpt>
					<trkpt lat="47.987460" lon="-4.465390">
						<ele>23</ele>
						<time>2026-06-27T23:50:01Z</time>
					</trkpt>
					<trkpt lat="47.987100" lon="-4.465130">
						<ele>21</ele>
						<time>2026-06-27T23:50:08Z</time>
					</trkpt>
					<trkpt lat="47.987030" lon="-4.465220">
						<ele>21</ele>
						<time>2026-06-27T23:50:10Z</time>
					</trkpt>
					<trkpt lat="47.986740" lon="-4.465310">
						<ele>21</ele>
						<time>2026-06-27T23:50:15Z</time>
					</trkpt>
					<trkpt lat="47.986680" lon="-4.465350">
						<ele>21</ele>
						<time>2026-06-27T23:50:16Z</time>
					</trkpt>
					<trkpt lat="47.986640" lon="-4.465460">
						<ele>21</ele>
						<time>2026-06-27T23:50:18Z</time>
					</trkpt>
					<trkpt lat="47.986630" lon="-4.465840">
						<ele>23</ele>
						<time>2026-06-27T23:50:22Z</time>
					</trkpt>
					<trkpt lat="47.986660" lon="-4.466380">
						<ele>24</ele>
						<time>2026-06-27T23:50:29Z</time>
					</trkpt>
					<trkpt lat="47.986910" lon="-4.467890">
						<ele>27</ele>
						<time>2026-06-27T23:50:47Z</time>
					</trkpt>
					<trkpt lat="47.987150" lon="-4.469040">
						<ele>29</ele>
						<time>2026-06-27T23:51:01Z</time>
					</trkpt>
					<trkpt lat="47.987350" lon="-4.470320">
						<ele>31</ele>
						<time>2026-06-27T23:51:17Z</time>
					</trkpt>
					<trkpt lat="47.987530" lon="-4.471310">
						<ele>29</ele>
						<time>2026-06-27T23:51:29Z</time>
					</trkpt>
					<trkpt lat="47.987880" lon="-4.473670">
						<ele>29</ele>
						<time>2026-06-27T23:51:58Z</time>
					</trkpt>
					<trkpt lat="47.987990" lon="-4.474080">
						<ele>30</ele>
						<time>2026-06-27T23:52:03Z</time>
					</trkpt>
					<trkpt lat="47.988170" lon="-4.474600">
						<ele>29</ele>
						<time>2026-06-27T23:52:10Z</time>
					</trkpt>
					<trkpt lat="47.988350" lon="-4.475200">
						<ele>28</ele>
						<time>2026-06-27T23:52:18Z</time>
					</trkpt>
					<trkpt lat="47.988860" lon="-4.476920">
						<ele>16</ele>
						<time>2026-06-27T23:52:41Z</time>
					</trkpt>
					<trkpt lat="47.988900" lon="-4.477050">
						<ele>15</ele>
						<time>2026-06-27T23:52:42Z</time>
					</trkpt>
					<trkpt lat="47.989050" lon="-4.477300">
						<ele>14</ele>
						<time>2026-06-27T23:52:46Z</time>
					</trkpt>
					<trkpt lat="47.989250" lon="-4.477440">
						<ele>14</ele>
						<time>2026-06-27T23:52:50Z</time>
					</trkpt>
					<trkpt lat="47.989380" lon="-4.477490">
						<ele>13</ele>
						<time>2026-06-27T23:52:53Z</time>
					</trkpt>
					<trkpt lat="47.990230" lon="-4.477520">
						<ele>10</ele>
						<time>2026-06-27T23:53:08Z</time>
					</trkpt>
					<trkpt lat="47.990670" lon="-4.477710">
						<ele>9</ele>
						<time>2026-06-27T23:53:16Z</time>
					</trkpt>
					<trkpt lat="47.990930" lon="-4.477950">
						<ele>9</ele>
						<time>2026-06-27T23:53:21Z</time>
					</trkpt>
					<trkpt lat="47.991160" lon="-4.478230">
						<ele>11</ele>
						<time>2026-06-27T23:53:27Z</time>
					</trkpt>
					<trkpt lat="47.992640" lon="-4.479870">
						<ele>17</ele>
						<time>2026-06-27T23:53:59Z</time>
					</trkpt>
					<trkpt lat="47.993630" lon="-4.480930">
						<ele>27</ele>
						<time>2026-06-27T23:54:21Z</time>
					</trkpt>
					<trkpt lat="47.994000" lon="-4.481280">
						<ele>31</ele>
						<time>2026-06-27T23:54:29Z</time>
					</trkpt>
					<trkpt lat="47.994590" lon="-4.481760">
						<ele>35</ele>
						<time>2026-06-27T23:54:41Z</time>
					</trkpt>
					<trkpt lat="47.994990" lon="-4.482150">
						<ele>37</ele>
						<time>2026-06-27T23:54:49Z</time>
					</trkpt>
					<trkpt lat="47.995000" lon="-4.482020">
						<ele>38</ele>
						<time>2026-06-27T23:54:51Z</time>
					</trkpt>
					<trkpt lat="47.994780" lon="-4.481390">
						<ele>42</ele>
						<time>2026-06-27T23:54:59Z</time>
					</trkpt>
					<trkpt lat="47.994300" lon="-4.480420">
						<ele>45</ele>
						<time>2026-06-27T23:55:14Z</time>
					</trkpt>
					<trkpt lat="47.993670" lon="-4.478660">
						<ele>46</ele>
						<time>2026-06-27T23:55:37Z</time>
					</trkpt>
					<trkpt lat="47.993550" lon="-4.478050">
						<ele>47</ele>
						<time>2026-06-27T23:55:45Z</time>
					</trkpt>
					<trkpt lat="47.993280" lon="-4.475920">
						<ele>48</ele>
						<time>2026-06-27T23:56:11Z</time>
					</trkpt>
					<trkpt lat="47.993240" lon="-4.474550">
						<ele>45</ele>
						<time>2026-06-27T23:56:27Z</time>
					</trkpt>
					<trkpt lat="47.993260" lon="-4.474440">
						<ele>45</ele>
						<time>2026-06-27T23:56:28Z</time>
					</trkpt>
					<trkpt lat="47.993300" lon="-4.474390">
						<ele>45</ele>
						<time>2026-06-27T23:56:29Z</time>
					</trkpt>
					<trkpt lat="47.993340" lon="-4.474350">
						<ele>45</ele>
						<time>2026-06-27T23:56:30Z</time>
					</trkpt>
					<trkpt lat="47.994440" lon="-4.474180">
						<ele>47</ele>
						<time>2026-06-27T23:56:50Z</time>
					</trkpt>
					<trkpt lat="47.994520" lon="-4.474190">
						<ele>48</ele>
						<time>2026-06-27T23:56:51Z</time>
					</trkpt>
					<trkpt lat="47.994700" lon="-4.474280">
						<ele>49</ele>
						<time>2026-06-27T23:56:55Z</time>
					</trkpt>
					<trkpt lat="47.995020" lon="-4.474540">
						<ele>53</ele>
						<time>2026-06-27T23:57:01Z</time>
					</trkpt>
					<trkpt lat="47.995170" lon="-4.474690">
						<ele>54</ele>
						<time>2026-06-27T23:57:04Z</time>
					</trkpt>
					<trkpt lat="47.995350" lon="-4.474960">
						<ele>55</ele>
						<time>2026-06-27T23:57:09Z</time>
					</trkpt>
					<trkpt lat="47.995550" lon="-4.475400">
						<ele>56</ele>
						<time>2026-06-27T23:57:15Z</time>
					</trkpt>
					<trkpt lat="47.995620" lon="-4.475790">
						<ele>57</ele>
						<time>2026-06-27T23:57:20Z</time>
					</trkpt>
					<trkpt lat="47.995660" lon="-4.475930">
						<ele>57</ele>
						<time>2026-06-27T23:57:22Z</time>
					</trkpt>
					<trkpt lat="47.996110" lon="-4.476640">
						<ele>60</ele>
						<time>2026-06-27T23:57:34Z</time>
					</trkpt>
					<trkpt lat="47.996190" lon="-4.476690">
						<ele>60</ele>
						<time>2026-06-27T23:57:35Z</time>
					</trkpt>
					<trkpt lat="47.996330" lon="-4.476670">
						<ele>60</ele>
						<time>2026-06-27T23:57:38Z</time>
					</trkpt>
					<trkpt lat="47.996400" lon="-4.476680">
						<ele>60</ele>
						<time>2026-06-27T23:57:39Z</time>
					</trkpt>
					<trkpt lat="47.996690" lon="-4.476810">
						<ele>60</ele>
						<time>2026-06-27T23:57:44Z</time>
					</trkpt>
					<trkpt lat="47.996840" lon="-4.476940">
						<ele>60</ele>
						<time>2026-06-27T23:57:47Z</time>
					</trkpt>
					<trkpt lat="47.997670" lon="-4.477020">
						<ele>61</ele>
						<time>2026-06-27T23:58:02Z</time>
					</trkpt>
					<trkpt lat="47.997750" lon="-4.477060">
						<ele>62</ele>
						<time>2026-06-27T23:58:04Z</time>
					</trkpt>
					<trkpt lat="47.998070" lon="-4.477320">
						<ele>64</ele>
						<time>2026-06-27T23:58:10Z</time>
					</trkpt>
					<trkpt lat="47.998420" lon="-4.477620">
						<ele>67</ele>
						<time>2026-06-27T23:58:17Z</time>
					</trkpt>
					<trkpt lat="47.999000" lon="-4.478470">
						<ele>72</ele>
						<time>2026-06-27T23:58:32Z</time>
					</trkpt>
					<trkpt lat="47.999220" lon="-4.478950">
						<ele>74</ele>
						<time>2026-06-27T23:58:39Z</time>
					</trkpt>
					<trkpt lat="47.999620" lon="-4.480030">
						<ele>78</ele>
						<time>2026-06-27T23:58:53Z</time>
					</trkpt>
					<trkpt lat="47.999790" lon="-4.480300">
						<ele>78</ele>
						<time>2026-06-27T23:58:58Z</time>
					</trkpt>
					<trkpt lat="47.999930" lon="-4.480410">
						<ele>78</ele>
						<time>2026-06-27T23:59:01Z</time>
					</trkpt>
					<trkpt lat="48.000070" lon="-4.480440">
						<ele>79</ele>
						<time>2026-06-27T23:59:03Z</time>
					</trkpt>
					<trkpt lat="48.000390" lon="-4.480580">
						<ele>80</ele>
						<time>2026-06-27T23:59:09Z</time>
					</trkpt>
					<trkpt lat="48.000710" lon="-4.480840">
						<ele>81</ele>
						<time>2026-06-27T23:59:16Z</time>
					</trkpt>
					<trkpt lat="48.000990" lon="-4.480950">
						<ele>82</ele>
						<time>2026-06-27T23:59:21Z</time>
					</trkpt>
					<trkpt lat="48.001340" lon="-4.481050">
						<ele>82</ele>
						<time>2026-06-27T23:59:27Z</time>
					</trkpt>
					<trkpt lat="48.001550" lon="-4.481160">
						<ele>82</ele>
						<time>2026-06-27T23:59:31Z</time>
					</trkpt>
					<trkpt lat="48.002410" lon="-4.481830">
						<ele>83</ele>
						<time>2026-06-27T23:59:48Z</time>
					</trkpt>
					<trkpt lat="48.004020" lon="-4.483230">
						<ele>87</ele>
						<time>2026-06-28T00:00:21Z</time>
					</trkpt>
					<trkpt lat="48.004050" lon="-4.483290">
						<ele>87</ele>
						<time>2026-06-28T00:00:22Z</time>
					</trkpt>
					<trkpt lat="48.004070" lon="-4.483470">
						<ele>87</ele>
						<time>2026-06-28T00:00:24Z</time>
					</trkpt>
					<trkpt lat="48.004150" lon="-4.484920">
						<ele>86</ele>
						<time>2026-06-28T00:00:42Z</time>
					</trkpt>
					<trkpt lat="48.004160" lon="-4.485780">
						<ele>84</ele>
						<time>2026-06-28T00:00:52Z</time>
					</trkpt>
					<trkpt lat="48.004180" lon="-4.486260">
						<ele>84</ele>
						<time>2026-06-28T00:00:58Z</time>
					</trkpt>
					<trkpt lat="48.004170" lon="-4.486560">
						<ele>84</ele>
						<time>2026-06-28T00:01:01Z</time>
					</trkpt>
					<trkpt lat="48.004070" lon="-4.487620">
						<ele>83</ele>
						<time>2026-06-28T00:01:14Z</time>
					</trkpt>
					<trkpt lat="48.004020" lon="-4.488360">
						<ele>81</ele>
						<time>2026-06-28T00:01:23Z</time>
					</trkpt>
					<trkpt lat="48.004170" lon="-4.488360">
						<ele>81</ele>
						<time>2026-06-28T00:01:26Z</time>
					</trkpt>
					<trkpt lat="48.004510" lon="-4.488250">
						<ele>82</ele>
						<time>2026-06-28T00:01:32Z</time>
					</trkpt>
					<trkpt lat="48.005400" lon="-4.488060">
						<ele>83</ele>
						<time>2026-06-28T00:01:48Z</time>
					</trkpt>
					<trkpt lat="48.005770" lon="-4.487950">
						<ele>83</ele>
						<time>2026-06-28T00:01:54Z</time>
					</trkpt>
					<trkpt lat="48.005930" lon="-4.487950">
						<ele>84</ele>
						<time>2026-06-28T00:01:57Z</time>
					</trkpt>
					<trkpt lat="48.006930" lon="-4.488080">
						<ele>85</ele>
						<time>2026-06-28T00:02:15Z</time>
					</trkpt>
					<trkpt lat="48.007190" lon="-4.488010">
						<ele>85</ele>
						<time>2026-06-28T00:02:20Z</time>
					</trkpt>
					<trkpt lat="48.007360" lon="-4.487930">
						<ele>84</ele>
						<time>2026-06-28T00:02:23Z</time>
					</trkpt>
					<trkpt lat="48.006980" lon="-4.486030">
						<ele>87</ele>
						<time>2026-06-28T00:02:47Z</time>
					</trkpt>
					<trkpt lat="48.006840" lon="-4.485430">
						<ele>87</ele>
						<time>2026-06-28T00:02:54Z</time>
					</trkpt>
					<trkpt lat="48.006830" lon="-4.485330">
						<ele>87</ele>
						<time>2026-06-28T00:02:55Z</time>
					</trkpt>
					<trkpt lat="48.007020" lon="-4.485240">
						<ele>87</ele>
						<time>2026-06-28T00:02:59Z</time>
					</trkpt>
					<trkpt lat="48.007310" lon="-4.485140">
						<ele>88</ele>
						<time>2026-06-28T00:03:04Z</time>
					</trkpt>
					<trkpt lat="48.008180" lon="-4.485000">
						<ele>87</ele>
						<time>2026-06-28T00:03:20Z</time>
					</trkpt>
					<trkpt lat="48.008340" lon="-4.485000">
						<ele>87</ele>
						<time>2026-06-28T00:03:23Z</time>
					</trkpt>
					<trkpt lat="48.009370" lon="-4.485170">
						<ele>89</ele>
						<time>2026-06-28T00:03:41Z</time>
					</trkpt>
					<trkpt lat="48.010310" lon="-4.485240">
						<ele>92</ele>
						<time>2026-06-28T00:03:58Z</time>
					</trkpt>
					<trkpt lat="48.012090" lon="-4.485460">
						<ele>95</ele>
						<time>2026-06-28T00:04:30Z</time>
					</trkpt>
					<trkpt lat="48.012370" lon="-4.485480">
						<ele>96</ele>
						<time>2026-06-28T00:04:35Z</time>
					</trkpt>
					<trkpt lat="48.013110" lon="-4.485560">
						<ele>98</ele>
						<time>2026-06-28T00:04:48Z</time>
					</trkpt>
					<trkpt lat="48.013670" lon="-4.485650">
						<ele>99</ele>
						<time>2026-06-28T00:04:58Z</time>
					</trkpt>
					<trkpt lat="48.013810" lon="-4.485640">
						<ele>100</ele>
						<time>2026-06-28T00:05:00Z</time>
					</trkpt>
					<trkpt lat="48.013840" lon="-4.485650">
						<ele>100</ele>
						<time>2026-06-28T00:05:01Z</time>
					</trkpt>
					<trkpt lat="48.013860" lon="-4.485600">
						<ele>100</ele>
						<time>2026-06-28T00:05:02Z</time>
					</trkpt>
					<trkpt lat="48.013850" lon="-4.485500">
						<ele>100</ele>
						<time>2026-06-28T00:05:03Z</time>
					</trkpt>
					<trkpt lat="48.013650" lon="-4.484350">
						<ele>100</ele>
						<time>2026-06-28T00:05:17Z</time>
					</trkpt>
					<trkpt lat="48.013630" lon="-4.484330">
						<ele>100</ele>
						<time>2026-06-28T00:05:17Z</time>
					</trkpt>
					<trkpt lat="48.013010" lon="-4.484310">
						<ele>99</ele>
						<time>2026-06-28T00:05:28Z</time>
					</trkpt>
					<trkpt lat="48.012840" lon="-4.484230">
						<ele>99</ele>
						<time>2026-06-28T00:05:32Z</time>
					</trkpt>
					<trkpt lat="48.012600" lon="-4.484040">
						<ele>98</ele>
						<time>2026-06-28T00:05:36Z</time>
					</trkpt>
					<trkpt lat="48.012320" lon="-4.483710">
						<ele>98</ele>
						<time>2026-06-28T00:05:43Z</time>
					</trkpt>
					<trkpt lat="48.011910" lon="-4.483110">
						<ele>99</ele>
						<time>2026-06-28T00:05:53Z</time>
					</trkpt>
					<trkpt lat="48.010340" lon="-4.481050">
						<ele>96</ele>
						<time>2026-06-28T00:06:30Z</time>
					</trkpt>
					<trkpt lat="48.009970" lon="-4.480530">
						<ele>95</ele>
						<time>2026-06-28T00:06:39Z</time>
					</trkpt>
					<trkpt lat="48.009980" lon="-4.480510">
						<ele>95</ele>
						<time>2026-06-28T00:06:39Z</time>
					</trkpt>
					</trkseg>
				</trk>
			</gpx>